[[{"header":{"parameterUnit":"m.s-1","parameterCategory":1,"la1":31.0,"la2":29.5877,"lo1":-88.7671,"lo2":-86.6584,"dy":0.0162,"dx":0.0185,"nx":115,"ny":88,"refTime":"2024-08-06T00:00:00:Z","depth":0,"parameterNumber":2,"parameterNumberName":"U-component_of_WINDS"},"data":[0.0,0.0,0.0,0.0,0.0,0.0,0.0,0.0,0.0,0.0,0.0,0.0,0.0,0.0,0.0,0.0,0.0,0.0,0.0,0.0,0.0,0.0,0.0,0.0,0.0,0.0,0.0,0.0,0.0,0.0,0.0,0.0,0.0,0.0,0.0,0.0,0.0,0.0,0.0,0.0,0.0,0.0,0.0,0.0,0.0,0.0,0.0,0.0,0.0,0.0,0.0,0.0,0.0,0.0,0.0,0.0,0.0,0.0,0.0,0.0,0.0,0.0,0.0,0.0,0.0,0.0,0.0,0.0,0.0,0.0,0.0,0.0,0.0,0.0,0.0,0.0,0.0,0.0,0.0,0.0,0.0,0.0,0.0,0.0,0.0,0.0,0.0,0.0,0.0,0.0,0.0,0.0,0.0,0.0,0.0,0.0,0.0,0.0,0.0,0.0,0.0,0.0,0.0,0.0,0.0,0.0,0.0,0.0,0.0,0.0,0.0,0.0,0.0,0.0,0.0,0.0,0.0,0.0,0.0,0.0,0.0,0.0,0.0,0.0,0.0,0.0,0.0,0.0,0.0,0.0,0.0,0.0,0.0,0.0,0.0,0.0,0.0,0.0,0.0,0.0,0.0,0.0,0.0,0.0,0.0,0.0,0.0,0.0,0.0,0.0,0.0,0.0,0.0,0.0,0.0,0.0,0.0,0.0,0.0,0.0,0.0,0.0,0.0,0.0,0.0,0.0,0.0,0.0,0.0,0.0,0.0,0.0,0.0,0.0,0.0,0.0,0.0,0.0,0.0,0.0,0.0,0.0,0.0,0.0,0.0,0.0,0.0,0.0,0.0,0.0,0.0,0.0,0.0,0.0,0.0,0.0,0.0,0.0,0.0,0.0,0.0,0.0,0.0,0.0,0.0,0.0,0.0,0.0,0.0,0.0,0.0,0.0,0.0,0.0,0.0,0.0,0.0,0.0,0.0,0.0,0.0,0.0,0.0,0.0,0.0,0.0,0.0,0.0,0.0,0.0,0.0,0.0,0.0,0.0,0.0,0.0,0.0,0.0,0.0,0.0,0.0,0.0,0.0,0.0,0.0,0.0,0.0,0.0,0.0,0.0,0.0,0.0,0.0,0.0,0.0,0.0,0.0,0.0,0.0,0.0,0.0,0.0,0.0,0.0,0.0,0.0,0.0,0.0,0.0,0.0,0.0,0.0,0.0,0.0,0.0,0.0,0.0,0.0,0.0,0.0,0.0,0.0,0.0,0.0,0.0,0.0,0.0,0.0,0.0,0.0,0.0,0.0,0.0,0.0,0.0,0.0,0.0,0.0,0.0,0.0,0.0,0.0,0.0,0.0,0.0,0.0,0.0,0.0,0.0,0.0,0.0,0.0,0.0,0.0,0.0,0.0,0.0,0.0,0.0,0.0,0.0,0.0,0.0,0.0,0.0,0.0,0.0,0.0,0.0,0.0,0.0,0.0,0.0,0.0,0.0,0.0,0.0,0.0,0.0,0.0,0.0,0.0,0.0,0.0,0.0,0.0,0.0,0.0,0.0,0.0,0.0,0.0,0.0,0.0,0.0,0.0,0.0,0.0,0.0,0.0,0.0,0.0,0.0,0.0,0.0,0.0,0.0,0.0,0.0,0.0,0.0,0.0,0.0,0.0,0.0,0.0,0.0,0.0,0.0,0.0,0.0,0.0,0.0,0.0,0.0,0.0,0.0,0.0,0.0,0.0,0.0,0.0,0.0,0.0,0.0,0.0,0.0,0.0,0.0,0.0,0.0,0.0,0.0,0.0,0.0,0.0,0.0,0.0,0.0,0.0,0.0,0.0,0.0,0.0,0.0,0.0,0.0,0.0,0.0,0.0,0.0,0.0,0.0,0.0,0.0,0.0,0.0,0.0,0.0,0.0,0.0,0.0,0.0,0.0,0.0,0.0,0.0,0.0,0.0,0.0,0.0,0.0,0.0,0.0,0.0,0.0,0.0,0.0,0.0,0.0,0.0,0.0,0.0,0.0,0.0,0.0,0.0,0.0,0.0,0.0,0.0,0.0,0.0,0.0,0.0,0.0,0.0,0.0,0.0,0.0,0.0,0.0,0.0,0.0,0.0,0.0,0.0,0.0,0.0,0.0,0.0,0.0,0.0,0.0,0.0,0.0,0.0,0.0,0.0,0.0,0.0,0.0,0.0,0.0,0.0,0.0,0.0,0.0,0.0,0.0,0.0,0.0,0.0,0.0,0.0,0.0,0.0,0.0,0.0,0.0,0.0,0.0,0.0,0.0,0.0,0.0,0.0,0.0,0.0,0.0,0.0,0.0,0.0,0.0,0.0,0.0,0.0,0.0,0.0,0.0,0.0,0.0,0.0,0.0,0.0,0.0,0.0,0.0,0.0,0.0,0.0,0.0,0.0,0.0,0.0,0.0,0.0,0.0,0.0,0.0,0.0,0.0,0.0,0.0,0.0,0.0,0.0,0.0,0.0,0.0,0.0,0.0,0.0,0.0,0.0,0.0,0.0,0.0,0.0,0.0,0.0,0.0,0.0,0.0,0.0,0.0,0.0,0.0,0.0,0.0,0.0,0.0,0.0,0.0,0.0,0.0,0.0,0.0,0.0,0.0,0.0,0.0,0.0,0.0,0.0,0.0,0.0,0.0,0.0,0.0,0.0,0.0,0.0,0.0,0.0,0.0,0.0,0.0,0.0,0.0,0.0,0.0,0.0,0.0,0.0,0.0,0.0,0.0,0.0,0.0,0.0,0.0,0.0,0.0,0.0,0.0,0.0,0.0,0.0,0.0,0.0,0.0,0.0,0.0,0.0,0.0,0.0,0.0,0.0,0.0,0.0,0.0,0.0,0.0,0.0,0.0,0.0,0.0,0.0,0.0,0.0,0.0,0.0,0.0,0.0,0.0,0.0,0.0,0.0,0.0,0.0,0.0,0.0,0.0,0.0,0.0,0.0,0.0,0.0,0.0,0.0,0.0,0.0,0.0,0.0,0.0,0.0,0.0,0.0,0.0,0.0,0.0,0.0,0.0,0.0,0.0,0.0,0.0,0.0,0.0,0.0,0.0,0.0,0.0,0.0,0.0,0.0,0.0,0.0,0.0,0.0,0.0,0.0,0.0,0.0,0.0,0.0,0.0,0.0,0.0,0.0,0.0,0.0,0.0,0.0,0.0,0.0,0.0,0.0,0.0,0.0,0.0,0.0,0.0,0.0,0.0,0.0,0.0,0.0,0.0,0.0,0.0,0.0,0.0,0.0,0.0,0.0,0.0,0.0,0.0,0.0,0.0,0.0,0.0,0.0,0.0,0.0,0.0,0.0,0.0,0.0,0.0,0.0,0.0,0.0,0.0,0.0,0.0,0.0,0.0,0.0,0.0,0.0,0.0,0.0,0.0,0.0,0.0,0.0,0.0,0.0,0.0,0.0,0.0,0.0,0.0,0.0,0.0,0.0,0.0,0.0,0.0,0.0,0.0,0.0,0.0,0.0,0.0,0.0,0.0,0.0,0.0,0.0,0.0,0.0,0.0,0.0,0.0,0.0,0.0,0.0,0.0,0.0,0.0,0.0,0.0,0.0,0.0,0.0,0.0,0.0,0.0,0.0,0.0,0.0,0.0,0.0,0.0,0.0,0.0,0.0,0.0,0.0,0.0,0.0,0.0,0.0,0.0,0.0,0.0,0.0,0.0,0.0,0.0,0.0,0.0,0.0,0.0,0.0,0.0,0.0,0.0,0.0,0.0,0.0,0.0,0.0,0.0,0.0,0.0,0.0,0.0,0.0,0.0,0.0,0.0,0.0,0.0,0.0,0.0,0.0,0.0,0.0,0.0,0.0,0.0,0.0,0.0,0.0,0.0,0.0,0.0,0.0,0.0,0.0,0.0,0.0,0.0,0.0,0.0,0.0,0.0,0.0,0.0,0.0,0.0,0.0,0.0,0.0,0.0,0.0,0.0,0.0,0.0,0.0,0.0,0.0,0.0,0.0,0.0,0.0,0.0,0.0,0.0,0.0,0.0,0.0,0.0,0.0,0.0,0.0,0.0,0.0,0.0,0.0,0.0,0.0,0.0,0.0,0.0,0.0,0.0,0.0,0.0,0.0,0.0,0.0,0.0,0.0,0.0,0.0,0.0,0.0,0.0,0.0,0.0,0.0,0.0,0.0,0.0,0.0,0.0,0.0,0.0,0.0,0.0,0.0,0.0,0.0,0.0,0.0,0.0,0.0,0.0,0.0,0.0,0.0,0.0,0.0,0.0,0.0,0.0,0.0,0.0,0.0,0.0,1.9163,0.0,0.0,0.0,0.0,0.0,0.0,0.0,0.0,0.0,0.0,0.0,0.0,0.0,0.0,0.0,0.0,0.0,0.0,0.0,0.0,0.0,0.0,0.0,0.0,0.0,0.0,0.0,0.0,0.0,0.0,0.0,0.0,0.0,0.0,0.0,0.0,0.0,0.0,0.0,0.0,0.0,0.0,0.0,0.0,0.0,0.0,0.0,0.0,0.0,0.0,0.0,0.0,0.0,0.0,0.0,0.0,0.0,0.0,0.0,0.0,0.0,0.0,0.0,0.0,0.0,0.0,0.0,0.0,0.0,0.0,0.0,0.0,0.0,0.0,0.0,0.0,0.0,0.0,0.0,0.0,0.0,0.0,0.0,0.0,0.0,0.0,0.0,0.0,0.0,0.0,0.0,0.0,0.0,0.0,0.0,0.0,0.0,0.0,0.0,0.0,0.0,0.0,0.0,0.0,0.0,0.0,0.0,0.0,0.0,0.0,2.0852,1.9612,2.1639,2.1581,1.904,0.0,0.0,0.0,0.0,0.0,0.0,0.0,0.0,0.0,0.0,0.0,0.0,0.0,0.0,0.0,0.0,0.0,0.0,0.0,0.0,0.0,0.0,0.0,0.0,0.0,0.0,0.0,0.0,0.0,0.0,0.0,0.0,0.0,0.0,0.0,0.0,0.0,0.0,0.0,0.0,0.0,0.0,0.0,0.0,0.0,0.0,0.0,0.0,0.0,0.0,0.0,0.0,0.0,0.0,0.0,0.0,0.0,0.0,0.0,0.0,0.0,0.0,0.0,0.0,0.0,0.0,0.0,0.0,0.0,0.0,0.0,0.0,0.0,0.0,0.0,0.0,0.0,0.0,0.0,0.0,0.0,0.0,0.0,0.0,0.0,0.0,0.0,0.0,0.0,0.0,0.0,0.0,0.0,0.0,0.0,0.0,0.0,0.0,0.0,0.0,0.0,0.0,0.0,0.0,0.0,0.0,0.0,0.0,0.0,0.0,0.0,0.0,2.1884,2.1662,1.9701,0.0,0.0,0.0,0.0,0.0,0.0,0.0,0.0,0.0,0.0,0.0,0.0,0.0,0.0,0.0,0.0,0.0,0.0,0.0,0.0,0.0,0.0,0.0,0.0,0.0,0.0,0.0,0.0,0.0,0.0,0.0,0.0,0.0,0.0,0.0,0.0,0.0,0.0,0.0,0.0,0.0,0.0,0.0,0.0,0.0,0.0,0.0,0.0,0.0,0.0,0.0,0.0,0.0,0.0,0.0,0.0,0.0,0.0,0.0,0.0,0.0,0.0,0.0,0.0,0.0,0.0,0.0,0.0,0.0,0.0,0.0,0.0,0.0,0.0,0.0,0.0,0.0,0.0,0.0,0.0,0.0,0.0,0.0,0.0,0.0,0.0,0.0,0.0,0.0,0.0,0.0,0.0,0.0,0.0,0.0,0.0,0.0,0.0,0.0,0.0,0.0,0.0,0.0,0.0,0.0,0.0,0.0,0.0,0.0,0.0,2.0769,2.1789,2.199,0.0,2.1648,0.0,0.0,0.0,0.0,0.0,0.0,0.0,0.0,0.0,0.0,0.0,0.0,0.0,0.0,0.0,0.0,0.0,0.0,0.0,0.0,0.0,0.0,0.0,0.0,0.0,0.0,0.0,0.0,0.0,0.0,0.0,0.0,0.0,0.0,0.0,0.0,0.0,0.0,0.0,0.0,0.0,0.0,0.0,0.0,0.0,0.0,0.0,0.0,0.0,0.0,0.0,0.0,0.0,0.0,0.0,0.0,0.0,0.0,0.0,0.0,0.0,0.0,0.0,0.0,0.0,0.0,0.0,0.0,0.0,0.0,0.0,0.0,0.0,0.0,0.0,0.0,0.0,0.0,0.0,0.0,0.0,0.0,0.0,0.0,0.0,0.0,0.0,0.0,0.0,0.0,0.0,0.0,0.0,0.0,0.0,0.0,0.0,0.0,0.0,0.0,0.0,0.0,0.0,0.0,0.0,0.0,0.0,0.0,0.0,0.0,0.0,2.3436,2.2587,2.1746,0.0,0.0,0.0,0.0,0.0,0.0,0.0,0.0,0.0,0.0,0.0,0.0,0.0,0.0,0.0,0.0,0.0,0.0,0.0,0.0,0.0,0.0,0.0,0.0,0.0,0.0,0.0,0.0,0.0,0.0,0.0,0.0,0.0,0.0,0.0,0.0,0.0,0.0,0.0,0.0,0.0,0.0,0.0,0.0,0.0,0.0,0.0,0.0,0.0,0.0,0.0,0.0,0.0,0.0,0.0,0.0,0.0,0.0,0.0,0.0,0.0,0.0,0.0,0.0,0.0,0.0,0.0,0.0,0.0,0.0,0.0,0.0,0.0,0.0,0.0,0.0,0.0,0.0,0.0,0.0,0.0,0.0,0.0,0.0,0.0,0.0,0.0,0.0,0.0,0.0,0.0,0.0,0.0,0.0,0.0,0.0,0.0,0.0,0.0,0.0,0.0,0.0,0.0,0.0,0.0,0.0,0.0,0.0,0.0,0.0,2.3307,0.0,2.4544,2.2914,2.156,2.0689,0.0,0.0,0.0,0.0,0.0,0.0,0.0,0.0,0.0,0.0,0.0,0.0,0.0,0.0,0.0,0.0,0.0,0.0,0.0,0.0,0.0,0.0,0.0,0.0,0.0,0.0,0.0,0.0,0.0,0.0,0.0,0.0,0.0,0.0,0.0,0.0,0.0,0.0,0.0,0.0,0.0,0.0,0.0,0.0,0.0,0.0,0.0,0.0,0.0,0.0,0.0,0.0,0.0,0.0,0.0,0.0,0.0,0.0,0.0,0.0,0.0,0.0,0.0,0.0,0.0,0.0,0.0,0.0,0.0,0.0,0.0,0.0,0.0,0.0,0.0,0.0,0.0,0.0,0.0,0.0,0.0,0.0,0.0,0.0,0.0,0.0,0.0,0.0,0.0,0.0,0.0,0.0,0.0,0.0,0.0,0.0,0.0,0.0,0.0,0.0,0.0,0.0,0.0,0.0,0.0,0.0,0.0,0.0,0.0,2.5004,2.4736,2.51,2.2732,2.1666,0.0,0.0,0.0,0.0,0.0,0.0,0.0,0.0,0.0,0.0,0.0,0.0,0.0,0.0,0.0,0.0,0.0,0.0,0.0,0.0,0.0,0.0,0.0,0.0,0.0,0.0,0.0,0.0,0.0,0.0,0.0,0.0,0.0,0.0,0.0,0.0,0.0,0.0,0.0,0.0,0.0,0.0,0.0,0.0,0.0,0.0,0.0,0.0,0.0,0.0,0.0,0.0,0.0,0.0,0.0,0.0,0.0,0.0,0.0,0.0,0.0,0.0,0.0,0.0,0.0,0.0,0.0,0.0,0.0,0.0,0.0,0.0,0.0,0.0,0.0,0.0,0.0,0.0,0.0,0.0,0.0,0.0,0.0,0.0,0.0,0.0,0.0,0.0,0.0,0.0,0.0,0.0,0.0,0.0,0.0,0.0,0.0,0.0,0.0,0.0,0.0,0.0,0.0,0.0,0.0,0.0,0.0,0.0,0.0,2.4716,2.5013,2.5268,2.5506,2.3519,2.2584,0.0,0.0,0.0,0.0,0.0,0.0,0.0,0.0,0.0,0.0,0.0,0.0,0.0,0.0,0.0,0.0,0.0,0.0,0.0,0.0,0.0,0.0,0.0,0.0,0.0,0.0,0.0,0.0,0.0,0.0,0.0,0.0,0.0,0.0,0.0,0.0,0.0,0.0,0.0,0.0,0.0,0.0,0.0,0.0,0.0,0.0,0.0,0.0,0.0,0.0,0.0,0.0,0.0,0.0,0.0,0.0,0.0,0.0,0.0,0.0,0.0,0.0,0.0,0.0,0.0,0.0,0.0,0.0,0.0,0.0,0.0,0.0,0.0,0.0,0.0,0.0,0.0,0.0,0.0,0.0,0.0,0.0,0.0,0.0,0.0,0.0,0.0,0.0,0.0,0.0,0.0,0.0,0.0,0.0,0.0,0.0,0.0,0.0,0.0,0.0,0.0,0.0,0.0,0.0,0.0,0.0,0.0,0.0,0.0,2.5213,0.0,2.6163,0.0,2.407,2.2847,0.0,0.0,0.0,0.0,0.0,0.0,0.0,0.0,0.0,0.0,0.0,0.0,0.0,0.0,0.0,0.0,0.0,0.0,0.0,0.0,0.0,0.0,0.0,0.0,0.0,0.0,0.0,0.0,0.0,0.0,0.0,0.0,0.0,0.0,0.0,0.0,0.0,0.0,0.0,0.0,0.0,0.0,0.0,0.0,0.0,0.0,0.0,0.0,0.0,0.0,0.0,0.0,0.0,0.0,0.0,0.0,0.0,0.0,0.0,0.0,0.0,0.0,0.0,0.0,0.0,0.0,0.0,0.0,0.0,0.0,0.0,0.0,0.0,0.0,0.0,0.0,0.0,0.0,0.0,0.0,0.0,0.0,0.0,0.0,0.0,0.0,0.0,0.0,0.0,0.0,0.0,0.0,0.0,0.0,0.0,0.0,0.0,0.0,0.0,0.0,0.0,0.0,0.0,0.0,0.0,0.0,0.0,0.0,2.4556,2.7522,2.7959,2.7425,2.6083,2.4356,2.2367,0.0,0.0,0.0,0.0,0.0,0.0,0.0,0.0,0.0,0.0,0.0,0.0,0.0,0.0,0.0,0.0,0.0,0.0,0.0,0.0,0.0,0.0,0.0,0.0,0.0,0.0,0.0,0.0,0.0,0.0,0.0,0.0,0.0,0.0,0.0,0.0,0.0,0.0,0.0,0.0,0.0,0.0,0.0,0.0,0.0,0.0,0.0,0.0,0.0,0.0,0.0,0.0,0.0,0.0,0.0,0.0,0.0,0.0,0.0,0.0,0.0,0.0,0.0,0.0,0.0,0.0,0.0,0.0,0.0,0.0,0.0,0.0,0.0,0.0,0.0,0.0,0.0,0.0,0.0,0.0,0.0,0.0,0.0,0.0,0.0,0.0,0.0,0.0,0.0,0.0,0.0,0.0,0.0,0.0,0.0,0.0,0.0,0.0,0.0,0.0,0.0,0.0,0.0,0.0,0.0,0.0,0.0,0.0,0.0,2.5817,2.6982,2.7831,2.828,2.4968,2.3291,0.0,0.0,0.0,0.0,0.0,0.0,0.0,0.0,0.0,0.0,0.0,0.0,0.0,0.0,0.0,0.0,0.0,0.0,0.0,0.0,0.0,0.0,0.0,0.0,0.0,0.0,0.0,0.0,0.0,0.0,0.0,0.0,0.0,0.0,0.0,0.0,0.0,0.0,0.0,0.0,0.0,0.0,0.0,0.0,0.0,0.0,0.0,0.0,0.0,0.0,0.0,0.0,0.0,0.0,0.0,0.0,0.0,0.0,0.0,0.0,0.0,0.0,0.0,0.0,0.0,0.0,0.0,0.0,0.0,0.0,0.0,0.0,0.0,0.0,0.0,0.0,0.0,0.0,0.0,0.0,0.0,0.0,0.0,0.0,0.0,0.0,0.0,0.0,0.0,0.0,0.0,0.0,0.0,0.0,0.0,0.0,0.0,0.0,0.0,0.0,0.0,0.0,0.0,0.0,0.0,0.0,0.0,0.0,0.0,2.6171,2.782,2.8939,2.9282,2.6045,2.4296,2.4278,0.0,0.0,0.0,0.0,0.0,0.0,0.0,0.0,0.0,0.0,0.0,0.0,0.0,0.0,0.0,0.0,0.0,0.0,0.0,0.0,0.0,0.0,0.0,0.0,0.0,0.0,0.0,0.0,0.0,0.0,0.0,0.0,0.0,0.0,0.0,0.0,0.0,0.0,0.0,0.0,0.0,0.0,0.0,0.0,0.0,0.0,0.0,0.0,0.0,0.0,0.0,0.0,0.0,0.0,0.0,0.0,0.0,0.0,0.0,0.0,0.0,0.0,0.0,0.0,0.0,0.0,0.0,0.0,0.0,0.0,0.0,0.0,0.0,0.0,0.0,0.0,0.0,0.0,0.0,0.0,0.0,0.0,0.0,0.0,0.0,0.0,0.0,0.0,0.0,0.0,0.0,0.0,0.0,0.0,0.0,0.0,0.0,0.0,0.0,0.0,0.0,0.0,0.0,0.0,0.0,0.0,0.0,0.0,2.8083,3.0187,3.0548,2.9163,2.7345,2.5345,0.0,0.0,0.0,0.0,0.0,0.0,0.0,0.0,0.0,0.0,0.0,0.0,0.0,0.0,0.0,0.0,0.0,0.0,0.0,0.0,0.0,0.0,0.0,0.0,0.0,0.0,0.0,0.0,0.0,0.0,0.0,0.0,0.0,0.0,0.0,0.0,0.0,0.0,0.0,0.0,0.0,0.0,0.0,0.0,0.0,0.0,0.0,0.0,0.0,0.0,0.0,0.0,0.0,0.0,0.0,0.0,0.0,0.0,0.0,0.0,0.0,0.0,0.0,0.0,0.0,0.0,0.0,0.0,0.0,0.0,0.0,0.0,0.0,0.0,0.0,0.0,0.0,0.0,0.0,0.0,0.0,0.0,0.0,0.0,0.0,0.0,0.0,0.0,0.0,0.0,0.0,0.0,0.0,0.0,0.0,0.0,0.0,0.0,0.0,0.0,0.0,0.0,0.0,0.0,0.0,0.0,0.0,0.0,0.0,2.9551,3.1167,3.1562,3.062,2.7898,2.5834,0.0,0.0,0.0,0.0,0.0,0.0,0.0,0.0,0.0,0.0,0.0,0.0,0.0,0.0,0.0,0.0,0.0,0.0,0.0,0.0,0.0,0.0,0.0,0.0,0.0,0.0,0.0,0.0,0.0,0.0,0.0,0.0,0.0,0.0,0.0,0.0,0.0,0.0,0.0,0.0,0.0,0.0,0.0,0.0,0.0,0.0,0.0,0.0,0.0,0.0,0.0,0.0,0.0,0.0,0.0,0.0,0.0,0.0,0.0,0.0,0.0,0.0,0.0,0.0,0.0,0.0,0.0,0.0,0.0,0.0,0.0,0.0,0.0,0.0,0.0,0.0,0.0,0.0,0.0,0.0,0.0,0.0,0.0,0.0,0.0,0.0,0.0,0.0,0.0,0.0,0.0,0.0,0.0,0.0,0.0,0.0,0.0,0.0,0.0,0.0,0.0,0.0,0.0,0.0,0.0,0.0,0.0,0.0,2.876,3.0113,3.1691,3.2169,3.1429,2.9178,2.703,0.0,0.0,0.0,0.0,0.0,0.0,0.0,0.0,0.0,0.0,0.0,0.0,0.0,0.0,0.0,0.0,0.0,0.0,0.0,0.0,0.0,0.0,0.0,0.0,0.0,0.0,0.0,0.0,0.0,0.0,0.0,0.0,0.0,0.0,0.0,0.0,0.0,0.0,0.0,0.0,0.0,0.0,0.0,0.0,0.0,0.0,0.0,0.0,0.0,0.0,0.0,0.0,0.0,0.0,0.0,0.0,0.0,0.0,0.0,0.0,0.0,0.0,0.0,0.0,0.0,0.0,0.0,0.0,0.0,0.0,0.0,0.0,0.0,0.0,0.0,0.0,0.0,0.0,0.0,0.0,0.0,0.0,0.0,0.0,0.0,0.0,0.0,0.0,0.0,0.0,0.0,0.0,0.0,0.0,0.0,0.0,0.0,0.0,0.0,0.0,0.0,0.0,0.0,0.0,0.0,0.0,0.0,0.0,2.9175,3.052,3.21,3.264,3.2017,3.074,2.8493,0.0,0.0,0.0,0.0,0.0,0.0,0.0,0.0,0.0,0.0,0.0,0.0,0.0,0.0,0.0,0.0,0.0,0.0,0.0,0.0,0.0,0.0,0.0,0.0,0.0,0.0,0.0,0.0,0.0,0.0,0.0,0.0,0.0,0.0,0.0,0.0,0.0,0.0,0.0,0.0,0.0,0.0,0.0,0.0,0.0,0.0,0.0,0.0,0.0,0.0,0.0,0.0,0.0,0.0,0.0,0.0,0.0,0.0,0.0,0.0,0.0,0.0,0.0,0.0,0.0,0.0,0.0,0.0,0.0,0.0,0.0,0.0,0.0,0.0,0.0,0.0,0.0,0.0,0.0,0.0,0.0,0.0,0.0,0.0,0.0,0.0,0.0,0.0,0.0,0.0,0.0,0.0,0.0,0.0,0.0,0.0,0.0,0.0,0.0,0.0,0.0,0.0,0.0,0.0,0.0,0.0,0.0,0.0,3.0285,3.2656,3.3326,3.3606,3.3439,3.1477,2.8905,0.0,0.0,0.0,0.0,0.0,0.0,0.0,0.0,0.0,0.0,0.0,0.0,0.0,0.0,0.0,0.0,0.0,0.0,0.0,0.0,0.0,0.0,0.0,0.0,0.0,0.0,0.0,0.0,0.0,0.0,0.0,0.0,0.0,0.0,0.0,0.0,0.0,0.0,0.0,0.0,0.0,0.0,0.0,0.0,0.0,0.0,0.0,0.0,2.2106,0.0,0.0,0.0,0.0,0.0,0.0,0.0,0.0,0.0,0.0,0.0,0.0,0.0,0.0,0.0,0.0,0.0,0.0,0.0,0.0,0.0,0.0,0.0,0.0,0.0,0.0,0.0,0.0,0.0,0.0,0.0,0.0,0.0,0.0,0.0,0.0,0.0,0.0,0.0,0.0,0.0,0.0,0.0,0.0,0.0,0.0,0.0,0.0,0.0,0.0,0.0,0.0,0.0,0.0,0.0,0.0,0.0,0.0,0.0,3.0767,3.3062,3.3663,3.3758,3.3365,3.2417,3.0104,0.0,0.0,0.0,0.0,0.0,0.0,0.0,0.0,0.0,0.0,0.0,0.0,0.0,0.0,0.0,0.0,0.0,0.0,0.0,0.0,0.0,0.0,0.0,0.0,0.0,0.0,0.0,0.0,0.0,0.0,0.0,0.0,0.0,0.0,0.0,0.0,0.0,0.0,0.0,0.0,0.0,0.0,0.0,0.0,0.0,0.0,0.0,0.0,0.0,0.0,0.0,0.0,0.0,0.0,0.0,0.0,0.0,0.0,0.0,0.0,0.0,0.0,0.0,0.0,0.0,0.0,0.0,0.0,0.0,0.0,0.0,0.0,0.0,0.0,0.0,0.0,0.0,0.0,0.0,0.0,0.0,0.0,0.0,0.0,0.0,0.0,0.0,0.0,0.0,0.0,0.0,0.0,0.0,0.0,0.0,0.0,0.0,0.0,0.0,0.0,0.0,0.0,0.0,0.0,0.0,0.0,0.0,2.9264,3.0936,3.2885,3.3577,3.3609,3.2965,3.321,3.1351,2.7165,0.0,0.0,0.0,0.0,0.0,0.0,0.0,0.0,0.0,0.0,0.0,0.0,0.0,0.0,0.0,0.0,0.0,0.0,0.0,0.0,0.0,0.0,0.0,0.0,0.0,0.0,0.0,0.0,0.0,0.0,0.0,0.0,0.0,0.0,0.0,0.0,0.0,0.0,2.3172,2.3928,0.0,0.0,0.0,0.0,0.0,0.0,0.0,0.0,2.1466,0.0,0.0,0.0,0.0,0.0,0.0,0.0,0.0,0.0,0.0,0.0,0.0,0.0,0.0,0.0,0.0,0.0,0.0,0.0,0.0,0.0,0.0,0.0,0.0,0.0,0.0,0.0,0.0,0.0,0.0,0.0,0.0,0.0,0.0,0.0,0.0,0.0,0.0,0.0,0.0,0.0,0.0,0.0,0.0,0.0,0.0,0.0,0.0,0.0,0.0,0.0,0.0,0.0,0.0,0.0,0.0,2.9159,2.9521,3.0968,3.3609,3.3834,3.3834,3.3705,3.3225,3.1336,2.8244,0.0,0.0,0.0,0.0,0.0,0.0,0.0,0.0,0.0,0.0,0.0,0.0,0.0,0.0,0.0,0.0,0.0,0.0,0.0,0.0,0.0,0.0,0.0,0.0,0.0,0.0,0.0,0.0,0.0,0.0,0.0,0.0,0.0,0.0,0.0,0.0,0.0,0.0,0.0,2.4664,2.4633,0.0,0.0,0.0,0.0,0.0,0.0,0.0,0.0,2.1486,0.0,0.0,0.0,0.0,0.0,0.0,0.0,0.0,0.0,0.0,0.0,0.0,0.0,0.0,0.0,0.0,0.0,0.0,0.0,0.0,0.0,0.0,0.0,0.0,0.0,0.0,0.0,0.0,0.0,0.0,0.0,0.0,0.0,0.0,0.0,0.0,0.0,0.0,0.0,0.0,0.0,0.0,0.0,0.0,0.0,0.0,0.0,0.0,0.0,0.0,0.0,0.0,0.0,0.0,0.0,2.8694,3.0054,3.1646,3.3423,3.3519,3.3487,3.3591,3.2538,3.0744,0.0,0.0,0.0,0.0,0.0,0.0,0.0,0.0,0.0,0.0,0.0,0.0,0.0,0.0,0.0,0.0,0.0,0.0,0.0,0.0,0.0,0.0,0.0,0.0,0.0,0.0,0.0,0.0,0.0,0.0,0.0,0.0,0.0,0.0,0.0,0.0,0.0,0.0,0.0,0.0,2.4774,2.4989,2.4441,0.0,0.0,0.0,0.0,0.0,0.0,2.2034,2.1606,0.0,0.0,0.0,0.0,0.0,0.0,0.0,0.0,0.0,0.0,0.0,0.0,0.0,0.0,0.0,0.0,0.0,0.0,0.0,0.0,0.0,0.0,0.0,0.0,0.0,0.0,0.0,0.0,0.0,0.0,0.0,0.0,0.0,0.0,0.0,0.0,0.0,0.0,0.0,0.0,0.0,0.0,0.0,0.0,0.0,0.0,0.0,0.0,0.0,0.0,0.0,0.0,0.0,0.0,0.0,2.8135,3.0354,3.204,3.3011,3.3043,3.3096,3.3171,3.1792,3.0064,0.0,0.0,0.0,0.0,0.0,0.0,0.0,0.0,0.0,0.0,0.0,0.0,0.0,0.0,0.0,0.0,0.0,0.0,0.0,0.0,0.0,0.0,0.0,0.0,0.0,0.0,0.0,0.0,0.0,0.0,0.0,0.0,0.0,0.0,0.0,0.0,0.0,0.0,0.0,0.0,0.0,2.5465,2.5277,2.475,0.0,0.0,0.0,0.0,2.2717,2.2586,0.0,0.0,0.0,0.0,0.0,0.0,0.0,0.0,0.0,0.0,0.0,0.0,0.0,0.0,0.0,0.0,0.0,0.0,0.0,0.0,0.0,0.0,0.0,0.0,0.0,0.0,0.0,0.0,0.0,0.0,0.0,0.0,0.0,0.0,0.0,0.0,0.0,0.0,0.0,0.0,0.0,0.0,0.0,0.0,0.0,0.0,0.0,0.0,0.0,0.0,0.0,0.0,0.0,0.0,0.0,0.0,2.7958,2.9681,3.1336,3.2841,3.2912,3.2966,3.2935,3.1336,2.9656,0.0,0.0,0.0,0.0,0.0,0.0,0.0,0.0,0.0,0.0,0.0,0.0,0.0,0.0,0.0,0.0,0.0,0.0,0.0,0.0,0.0,0.0,0.0,0.0,0.0,0.0,0.0,0.0,0.0,0.0,0.0,0.0,0.0,0.0,0.0,0.0,0.0,0.0,0.0,0.0,0.0,2.6366,2.518,2.5454,2.5575,0.0,0.0,2.4785,2.4823,2.4823,0.0,0.0,0.0,0.0,0.0,0.0,0.0,0.0,0.0,0.0,0.0,0.0,0.0,0.0,0.0,0.0,0.0,0.0,0.0,0.0,0.0,0.0,0.0,0.0,0.0,0.0,0.0,0.0,0.0,0.0,0.0,0.0,0.0,0.0,0.0,0.0,0.0,0.0,0.0,0.0,0.0,0.0,0.0,0.0,0.0,0.0,0.0,0.0,0.0,0.0,0.0,0.0,0.0,0.0,0.0,2.6311,2.7737,2.9848,3.1509,3.2656,3.2718,3.2773,3.2912,3.0464,2.867,0.0,0.0,0.0,0.0,0.0,0.0,0.0,0.0,0.0,0.0,0.0,0.0,0.0,0.0,0.0,0.0,0.0,0.0,0.0,0.0,0.0,0.0,0.0,0.0,0.0,0.0,0.0,0.0,0.0,0.0,0.0,0.0,0.0,0.0,0.0,0.0,0.0,0.0,0.0,0.0,0.0,0.0,2.5682,2.623,0.0,0.0,0.0,2.5274,2.5089,0.0,0.0,0.0,0.0,0.0,0.0,0.0,0.0,0.0,0.0,0.0,0.0,0.0,0.0,0.0,0.0,0.0,0.0,0.0,0.0,0.0,0.0,0.0,0.0,0.0,0.0,0.0,0.0,0.0,0.0,0.0,0.0,0.0,0.0,0.0,0.0,0.0,0.0,0.0,0.0,0.0,0.0,0.0,0.0,0.0,0.0,0.0,0.0,0.0,0.0,0.0,0.0,0.0,0.0,0.0,0.0,0.0,2.7483,3.0042,3.1736,3.2492,3.2523,3.2578,3.2711,2.9958,0.0,0.0,0.0,0.0,0.0,0.0,0.0,0.0,0.0,0.0,0.0,0.0,0.0,0.0,0.0,0.0,0.0,0.0,0.0,0.0,0.0,0.0,0.0,0.0,0.0,0.0,0.0,1.4828,0.0,0.0,0.0,0.0,0.0,0.0,0.0,0.0,0.0,0.0,0.0,0.0,0.0,0.0,2.6909,2.6133,2.6758,2.7339,0.0,0.0,2.5828,2.5682,2.5438,2.4759,0.0,0.0,0.0,0.0,0.0,0.0,0.0,0.0,0.0,0.0,0.0,0.0,0.0,0.0,0.0,0.0,0.0,0.0,0.0,0.0,0.0,0.0,0.0,0.0,0.0,0.0,0.0,0.0,0.0,0.0,0.0,0.0,0.0,0.0,0.0,0.0,0.0,0.0,0.0,0.0,0.0,0.0,0.0,0.0,0.0,0.0,0.0,0.0,0.0,0.0,0.0,0.0,0.0,0.0,0.0,2.739,2.9894,3.1597,3.2351,3.2382,3.2382,3.2407,3.0203,2.8379,0.0,0.0,0.0,0.0,0.0,0.0,0.0,0.0,0.0,0.0,0.0,0.0,0.0,0.0,0.0,0.0,0.0,0.0,0.0,0.0,0.0,0.0,0.0,0.0,0.0,0.0,0.0,0.0,0.0,0.0,0.0,0.0,0.0,0.0,0.0,0.0,0.0,0.0,0.0,0.0,0.0,2.733,2.6159,2.6881,2.784,0.0,0.0,2.6771,2.7489,2.7579,2.706,2.5444,0.0,0.0,0.0,0.0,0.0,0.0,0.0,0.0,0.0,0.0,0.0,0.0,0.0,0.0,0.0,0.0,0.0,0.0,0.0,0.0,0.0,0.0,0.0,0.0,0.0,0.0,0.0,0.0,0.0,0.0,0.0,0.0,0.0,0.0,0.0,0.0,0.0,0.0,0.0,0.0,0.0,0.0,0.0,0.0,0.0,0.0,0.0,0.0,0.0,0.0,0.0,0.0,0.0,2.6417,2.7137,2.9825,3.1627,3.2382,3.2358,3.2302,3.2413,3.0136,2.8261,0.0,0.0,0.0,0.0,0.0,0.0,0.0,0.0,0.0,0.0,0.0,0.0,0.0,0.0,0.0,0.0,0.0,0.0,0.0,0.0,0.0,0.0,0.0,0.0,0.0,0.0,0.0,0.0,1.7777,1.8528,1.8086,0.0,0.0,0.0,0.0,0.0,0.0,0.0,0.0,0.0,0.0,2.6997,2.6968,2.8111,0.0,0.0,2.8194,2.7759,2.7928,2.7417,2.6623,2.5696,2.5072,0.0,0.0,0.0,0.0,0.0,0.0,0.0,0.0,0.0,0.0,0.0,0.0,0.0,0.0,0.0,0.0,0.0,0.0,0.0,0.0,0.0,0.0,0.0,0.0,0.0,0.0,0.0,0.0,0.0,0.0,0.0,0.0,0.0,0.0,0.0,0.0,0.0,0.0,0.0,0.0,0.0,0.0,0.0,0.0,0.0,0.0,0.0,0.0,0.0,0.0,0.0,0.0,2.6335,2.7162,2.9715,3.1555,3.2578,3.2313,3.2191,3.2266,3.0505,2.8776,0.0,0.0,0.0,0.0,0.0,0.0,0.0,0.0,0.0,0.0,0.0,0.0,0.0,0.0,0.0,0.0,0.0,0.0,0.0,0.0,0.0,0.0,0.0,0.0,0.0,0.0,0.0,0.0,1.7958,1.8548,1.8355,0.0,0.0,0.0,0.0,0.0,0.0,0.0,0.0,0.0,0.0,2.7107,2.7427,2.8656,2.9464,2.9028,2.8654,2.8338,2.8236,2.7642,2.6992,2.6107,0.0,0.0,0.0,0.0,0.0,0.0,0.0,0.0,0.0,0.0,0.0,0.0,0.0,0.0,0.0,0.0,0.0,0.0,0.0,0.0,0.0,0.0,0.0,0.0,0.0,0.0,0.0,0.0,0.0,0.0,1.8249,0.0,0.0,0.0,0.0,0.0,0.0,0.0,0.0,0.0,0.0,0.0,0.0,0.0,0.0,0.0,0.0,0.0,0.0,0.0,0.0,0.0,0.0,2.6125,2.7611,2.9703,3.152,3.2877,3.233,3.2023,3.216,3.1378,3.0121,2.8415,0.0,0.0,0.0,0.0,0.0,0.0,0.0,0.0,0.0,0.0,0.0,0.0,0.0,0.0,0.0,0.0,0.0,0.0,0.0,0.0,0.0,0.0,0.0,0.0,0.0,0.0,1.504,1.6049,1.717,0.0,0.0,0.0,0.0,0.0,0.0,0.0,0.0,0.0,0.0,2.6187,2.7824,2.7322,2.8299,2.914,2.9052,2.8655,2.8397,2.834,2.88,2.8654,0.0,0.0,0.0,0.0,0.0,0.0,0.0,0.0,0.0,0.0,0.0,0.0,0.0,0.0,0.0,0.0,0.0,0.0,0.0,0.0,0.0,0.0,0.0,0.0,0.0,0.0,0.0,1.9211,1.8933,0.0,0.0,0.0,0.0,0.0,0.0,0.0,0.0,0.0,0.0,0.0,2.421,2.4461,0.0,0.0,0.0,0.0,0.0,0.0,0.0,0.0,0.0,0.0,0.0,0.0,2.6489,2.8104,3.0327,3.1974,3.2938,3.2246,3.194,3.2053,3.1414,2.9894,2.7575,0.0,0.0,0.0,0.0,0.0,0.0,0.0,0.0,0.0,0.0,0.0,0.0,0.0,0.0,0.0,0.0,0.0,0.0,0.0,0.0,0.0,0.0,0.0,0.0,0.0,1.7313,0.0,0.0,0.0,0.0,0.0,0.0,0.0,0.0,0.0,0.0,0.0,2.4176,2.6175,2.6895,2.7644,2.873,2.9223,2.9692,0.0,0.0,0.0,0.0,0.0,0.0,0.0,0.0,0.0,0.0,0.0,0.0,0.0,0.0,2.5415,2.4177,2.2736,2.1358,2.0524,0.0,0.0,0.0,0.0,0.0,0.0,0.0,0.0,0.0,0.0,0.0,0.0,0.0,0.0,2.0879,0.0,2.0061,0.0,0.0,0.0,0.0,0.0,0.0,0.0,0.0,2.5568,2.6202,2.5769,2.5993,2.5964,0.0,2.5437,2.425,0.0,0.0,0.0,0.0,0.0,0.0,0.0,0.0,2.72,2.8534,3.1041,3.2615,3.3125,3.2462,3.201,3.194,3.1329,3.0054,2.7981,2.6572,2.5017,0.0,0.0,0.0,0.0,0.0,0.0,0.0,0.0,0.0,0.0,0.0,0.0,0.0,0.0,0.0,0.0,0.0,0.0,0.0,0.0,0.0,0.0,0.0,1.7734,0.0,0.0,0.0,0.0,0.0,0.0,0.0,0.0,0.0,2.2485,2.4254,2.6022,2.7849,2.803,2.8356,2.9127,0.0,0.0,0.0,0.0,0.0,0.0,0.0,2.5766,2.5162,2.5823,2.6737,2.7662,2.958,3.0964,3.1059,0.0,0.0,2.6492,2.4731,2.3184,2.2439,2.2578,2.2589,2.1948,2.2055,2.2204,0.0,0.0,0.0,0.0,0.0,0.0,0.0,0.0,2.2831,2.3096,0.0,2.1821,0.0,0.0,0.0,0.0,0.0,2.383,0.0,0.0,2.7653,2.8677,2.7993,2.7371,2.7399,2.7909,2.7111,2.6357,2.5696,2.5051,0.0,0.0,0.0,0.0,0.0,0.0,2.8071,2.8958,3.1925,3.3484,3.3514,3.2886,3.2317,3.186,3.1278,3.0582,2.9726,2.8544,2.7297,2.6077,2.3805,0.0,0.0,0.0,0.0,0.0,0.0,0.0,0.0,0.0,0.0,0.0,0.0,0.0,0.0,0.0,0.0,0.0,0.0,0.0,0.0,1.726,0.0,0.0,0.0,0.0,0.0,0.0,0.0,0.0,0.0,0.0,2.2231,2.513,2.7524,2.8126,0.0,0.0,0.0,0.0,2.7139,2.6088,2.5418,2.5181,2.5265,2.7391,2.8816,2.8235,0.0,0.0,3.0555,3.1296,3.1622,3.0566,3.0077,2.9536,2.8158,2.5743,2.3641,2.2898,2.2812,2.2628,2.2813,2.2983,2.2834,2.6674,0.0,0.0,0.0,0.0,2.4524,2.4754,2.5223,2.5308,2.4967,2.43,2.3792,0.0,0.0,0.0,0.0,0.0,0.0,2.6253,2.7638,2.8725,2.9457,2.9933,2.9923,3.0015,3.0155,2.9883,2.9854,2.9964,2.9373,2.7118,2.3393,0.0,0.0,0.0,0.0,2.8419,3.0809,3.2586,3.3724,3.4173,3.3544,3.2886,3.2317,3.1657,3.1054,3.0418,3.0027,2.8846,2.6731,2.5667,0.0,0.0,0.0,0.0,0.0,0.0,0.0,0.0,0.0,0.0,0.0,0.0,0.0,0.0,0.0,0.0,0.0,0.0,0.0,1.7305,1.7585,1.7429,0.0,0.0,0.0,0.0,0.0,0.0,0.0,0.0,0.0,2.4486,2.4779,2.5222,0.0,0.0,2.602,2.6161,2.731,2.8163,2.8244,2.8174,0.0,2.8066,2.7552,2.712,2.6958,2.8876,2.9916,2.8523,2.9817,3.0939,3.0524,2.9682,2.8919,2.9098,2.7959,2.6697,2.6045,2.6089,2.6223,2.5966,2.6116,2.6262,2.9666,2.8098,2.6909,2.6505,2.6752,2.6582,2.6895,2.7446,2.7511,2.722,2.6717,2.603,2.5342,2.4681,2.4394,0.0,0.0,0.0,2.7534,2.9252,2.9449,2.9925,3.065,3.0773,3.0841,3.0841,3.0976,3.1216,3.1547,3.1055,2.9137,2.5862,0.0,0.0,2.6109,2.7748,2.9579,3.1664,3.3208,3.4133,3.4472,3.3844,3.3185,3.2527,3.2138,3.1541,3.0741,3.0711,2.9832,2.7926,2.6765,2.5142,0.0,0.0,0.0,0.0,0.0,0.0,0.0,0.0,0.0,0.0,0.0,1.9575,1.8296,0.0,0.0,0.0,1.8363,1.8003,1.7956,1.8041,0.0,0.0,0.0,0.0,0.0,0.0,0.0,2.1313,2.3492,2.5159,2.5532,2.5075,2.5441,2.7535,2.7546,2.7344,2.7237,0.0,2.8663,2.8556,2.8249,2.8088,2.8153,2.7921,2.7958,2.879,2.9632,3.0057,2.9236,2.9651,2.9961,2.9935,2.9028,2.8371,2.8602,2.8176,2.7826,2.7755,2.7977,2.8047,2.7766,2.8033,2.8208,3.2359,3.155,2.8846,2.7971,2.8334,2.7816,2.8274,2.9405,2.9405,2.9693,3.0006,2.8438,2.7799,2.7761,2.6212,0.0,2.7986,2.7986,2.8701,2.9874,3.0111,3.0319,3.0458,3.0554,3.0554,3.0554,3.1006,3.1182,3.1182,3.0956,3.0467,2.9826,2.9139,2.8732,2.8626,2.9907,3.0911,3.1678,3.3463,3.4427,3.4405,3.3779,3.3123,3.2497,3.2407,3.1871,3.0807,3.0718,3.0248,2.9229,2.7314,2.5926,2.5185,0.0,0.0,0.0,0.0,0.0,0.0,0.0,0.0,0.0,0.0,0.0,0.0,0.0,0.0,0.0,1.9909,0.0,1.9659,1.9004,0.0,0.0,0.0,2.1354,2.3974,2.4515,2.4833,2.5306,0.0,0.0,2.5855,2.5981,2.7538,3.1649,3.1938,3.127,2.9981,2.9322,2.8692,2.7755,2.713,2.6774,2.7434,2.8595,3.0052,3.1646,3.1882,3.1188,3.0966,3.0012,2.916,2.9003,2.8395,2.7763,2.727,2.7254,2.7396,2.8275,2.8402,2.8402,2.8426,2.8585,2.8664,3.2359,3.1707,3.1029,3.0559,3.0346,3.0142,3.032,3.0581,3.0581,3.0424,3.0038,2.9693,2.951,2.9483,2.9091,2.9353,3.0236,3.0236,3.0393,3.0729,3.1096,3.1169,3.1096,3.1532,3.1676,3.1559,3.182,3.1962,3.1962,3.1897,3.1475,3.0825,3.029,2.9342,2.8138,2.8993,3.0054,3.1185,3.2263,3.3194,3.3946,3.3301,3.2731,3.2251,3.1662,3.105,3.0447,3.0297,2.9768,2.8661,2.7849,2.647,2.4475,2.2242,0.0,0.0,0.0,0.0,0.0,0.0,0.0,0.0,0.0,2.0286,1.797,0.0,2.0399,0.0,2.1407,2.2959,2.369,2.3482,0.0,0.0,2.3105,2.3318,2.4469,2.6191,2.6657,2.5307,2.6791,2.8026,2.8119,2.8026,2.9023,3.173,2.9483,2.7375,2.7173,2.8437,2.9121,2.9026,2.9834,3.074,3.0449,3.0394,3.0472,3.1044,3.057,2.9935,2.9341,2.9028,2.8712,2.8075,2.7938,2.7834,2.7716,2.7693,2.774,2.7995,2.787,2.7885,2.8323,2.8578,2.8578,3.3117,3.262,3.262,3.1915,3.0748,3.0898,3.0973,3.0973,3.0973,3.0817,3.0503,3.0529,3.0503,3.0503,3.0503,3.0686,3.0973,3.0973,3.1048,3.1123,3.1373,3.1447,3.1447,3.1743,3.189,3.1743,3.1963,3.2036,3.2109,3.2182,3.2044,3.1668,3.1319,3.046,2.9101,2.8982,2.9392,3.0381,3.1639,3.2766,3.3739,3.3454,3.2634,3.1358,3.1117,3.0249,2.8736,2.8621,2.8155,2.7345,2.6574,2.5521,2.4123,2.2261,2.0898,0.0,0.0,0.0,0.0,0.0,0.0,0.0,0.0,0.0,0.0,0.0,2.2239,2.1429,2.3401,2.4813,2.4943,2.4997,2.5376,2.6116,2.6065,2.6477,2.778,2.9118,2.9425,2.8177,2.9353,3.0244,3.0271,3.0244,3.0734,3.2046,3.0169,2.8799,2.8919,2.9888,3.062,3.0647,3.1531,3.2009,3.1542,3.0771,3.0241,3.019,2.9626,2.9003,2.8554,2.8235,2.7938,2.7452,2.7476,2.7557,2.7557,2.7557,2.7638,2.7672,2.7542,2.7711,2.8291,2.8419,2.8522,3.4084,3.3587,3.3587,3.2514,3.0726,3.1057,3.0999,3.0585,3.0507,3.0559,3.0764,3.0921,3.0973,3.0973,3.0973,3.0973,3.0973,3.0973,3.1123,3.1272,3.1272,3.1347,3.1522,3.1596,3.1596,3.1596,3.1897,3.2071,3.1998,3.2299,3.2318,3.2182,3.2101,3.1477,3.0283,2.9302,2.9022,2.9498,3.1212,3.2482,3.3374,3.326,3.2122,3.0111,3.0358,2.9379,2.6775,2.6663,2.6406,2.5918,2.491,2.434,2.4286,2.256,2.1626,0.0,2.0395,0.0,0.0,0.0,0.0,0.0,0.0,0.0,0.0,2.449,2.4563,2.4655,2.5722,2.6169,2.5595,2.5884,2.6895,2.8834,2.9114,2.9821,3.1675,3.2036,3.1963,3.1596,3.1963,3.2109,3.1882,3.2036,3.2155,3.2155,3.2046,3.1884,3.2182,3.2101,3.2046,3.2182,3.2082,3.1616,3.0771,2.9986,2.9549,2.9471,2.8924,2.8395,2.8474,2.7777,2.7231,2.7231,2.7231,2.7231,2.7231,2.7231,2.7231,2.7452,2.7487,2.7649,2.7995,2.8339,2.8419,3.4084,3.3587,3.3587,3.3117,3.228,3.2359,3.0799,2.8196,2.7831,2.828,2.9424,3.0481,3.0973,3.0973,3.0973,3.0973,3.0973,3.0973,3.0973,3.1048,3.1198,3.1198,3.1149,3.1596,3.1669,3.1447,3.2347,3.2813,3.2616,3.3225,3.3132,3.2209,3.1694,3.0853,2.9686,0.0,0.0,0.0,3.0102,3.0883,3.1184,3.0141,2.927,2.858,2.8415,0.0,2.7061,2.6859,2.6462,2.5914,2.567,0.0,0.0,0.0,0.0,0.0,0.0,0.0,0.0,0.0,0.0,0.0,2.5535,2.5236,2.5071,2.5406,2.6374,2.7946,2.8385,2.912,3.0643,3.0788,3.1074,3.1469,3.1235,3.1296,3.1863,3.1643,3.1495,3.1596,3.1817,3.1963,3.1844,3.2109,3.2182,3.2136,3.2182,3.2372,3.2806,3.2481,3.2182,3.2182,3.1468,3.062,2.9781,2.9028,2.8712,2.8949,2.8235,2.7696,2.8099,2.7696,2.7231,2.7231,2.7231,2.7231,2.7231,2.7231,2.7231,2.7231,2.7371,2.7615,2.7881,2.8099,2.8259,3.4241,0.0,3.4005,3.3401,0.0,3.2175,3.0649,2.8486,2.9314,2.9947,3.0407,3.0843,3.0973,3.0947,3.0398,3.0137,3.0137,2.9777,2.9777,3.0163,3.0398,3.0686,3.0999,3.1589,3.1796,3.1823,3.276,3.3257,3.3284,3.3734,3.3647,3.305,3.2752,3.2318,3.1667,3.1167,3.0474,2.9668,3.0528,3.1264,3.1782,3.1395,3.0732,2.9816,2.9535,0.0,0.0,0.0,0.0,0.0,0.0,0.0,0.0,0.0,0.0,2.6022,2.5754,2.5908,2.6854,2.7176,2.7648,2.8624,2.9013,2.8597,2.7317,2.8371,2.9483,3.0508,3.0929,3.1469,3.2508,3.2888,3.2942,3.2671,3.2469,3.224,3.1797,3.1669,3.1347,3.0999,3.136,3.1619,3.106,3.1627,3.1882,3.157,3.1819,3.2225,3.2514,3.2314,3.2036,3.189,3.0797,2.9858,2.9419,2.8395,2.7777,2.7995,2.7615,2.7394,2.7615,2.7452,2.7231,2.7231,2.7231,2.7231,2.7231,2.7231,2.7231,2.7231,2.729,2.7371,2.7557,2.78,2.8018,3.4633,3.4554,3.4554,3.3814,3.2584,3.212,3.1293,3.0317,0.0,0.0,0.0,3.1392,3.1287,3.1209,3.0294,2.9876,2.9849,2.9236,2.9262,2.9902,3.0199,3.0667,3.1313,3.1757,3.207,3.2354,3.3116,3.3617,3.3799,3.4062,3.4244,3.4167,3.4163,3.3977,3.3842,3.3457,3.2554,3.128,3.1389,3.1918,3.2799,3.3132,3.2643,3.1221,3.1124,3.0663,2.9686,2.917,2.9143,2.9604,2.917,2.8671,2.8163,2.8163,2.7975,2.7471,2.7417,2.7911,2.9038,2.9551,3.0377,3.1531,3.2046,3.1667,2.9929,3.1243,3.2236,3.2318,3.2779,3.3078,3.3213,3.3571,3.368,3.3192,3.3138,3.2724,3.207,3.1814,3.1491,3.0778,3.1293,3.1473,3.0922,3.1596,3.1935,3.1523,3.2018,3.2172,3.2196,3.2337,3.2145,3.1593,3.0624,2.9717,2.9065,2.8383,2.7415,2.7336,2.73,2.7323,2.7254,2.7231,2.7231,2.7231,2.7231,2.7231,2.7231,2.7231,2.7231,2.7231,2.7231,2.7231,2.7231,2.7476,2.7719,3.5574,3.5182,3.5182,3.4789,3.4079,3.4001,3.3871,3.3558,3.1811,3.0929,3.0903,3.1967,3.2463,3.2437,3.228,3.2202,3.2202,3.2123,3.215,3.2228,3.2306,3.2359,3.2463,3.2673,3.2725,3.2699,3.378,3.4232,3.4206,3.4982,3.5465,3.5384,3.495,3.4384,3.3896,3.3788,3.3702,3.343,3.2019,3.1439,3.1744,3.1194,3.0868,3.0706,3.065,3.0473,3.0283,3.0228,3.0201,3.0283,3.0201,3.0337,3.0771,3.0702,3.0961,3.1368,3.1422,3.1504,3.1639,3.1775,3.2101,3.2725,3.2888,3.2589,3.1884,3.2019,3.2372,3.2888,3.305,3.3268,3.3756,3.3688,3.3665,3.353,3.3194,3.2985,3.293,3.228,3.1885,3.228,3.2173,3.2171,3.2304,3.2751,3.2988,3.3143,3.3038,3.3116,3.2699,3.3037,3.2879,3.1727,3.1165,3.0261,2.8905,2.8472,2.808,2.7346,2.7621,2.7736,2.7346,2.73,2.7277,2.7231,2.7231,2.7231,2.7231,2.7231,2.7231,2.7231,2.7231,2.7231,2.7231,2.7313,2.7371,3.5966,3.5757,3.573,3.5417,3.4868,3.4528,3.4397,3.4319,3.3219,3.2567,3.2332,3.262,3.2672,3.2646,3.2045,3.1757,3.1757,3.1341,3.1368,3.1757,3.2019,3.2332,3.2698,3.3092,3.3329,3.3462,3.4232,3.4686,3.4875,3.5359,3.5548,3.571,3.5438,3.5004,3.4384,3.4434,3.4194,3.3869,3.3457,3.3213,3.3288,3.3268,3.3268,3.3343,3.2969,3.2969,3.3268,3.2969,3.2969,3.3268,3.3295,3.3132,3.2752,3.2725,3.2562,3.2209,3.2182,3.2182,3.2182,3.2481,3.2915,3.3485,3.3539,3.343,3.3159,3.3132,3.324,3.3539,3.381,3.4059,3.4251,3.4391,3.4392,3.3991,3.3728,3.3357,3.2725,3.2593,3.2275,3.1873,3.2235,3.2439,3.2225,3.2695,3.2885,3.2898,3.3223,3.3383,3.3169,3.3967,3.3754,3.1486,3.0679,3.0108,2.9103,2.8796,2.8471,2.8057,2.8218,2.8149,2.7736,2.7644,2.7529,2.7277,2.7231,2.7231,2.7231,2.7231,2.7231,2.7231,2.7231,2.7231,2.7231,2.7231,2.7231,3.6436,3.6305,3.6305,3.5992,3.5443,3.4972,3.4789,3.4789,3.4659,3.4371,3.3927,3.3352,3.3064,3.2986,3.215,3.1757,3.1679,3.1135,3.1187,3.1757,3.2071,3.2514,3.3091,3.3561,3.3852,3.4068,3.4545,3.5003,3.5249,3.5331,3.5467,3.571,3.571,3.5493,3.5031,3.5031,3.4787,3.4407,3.4787,3.4977,3.4841,3.5411,3.571,3.5683,3.5276,3.5248,3.5655,3.5276,3.5248,3.5683,3.571,3.5221,3.4244,3.4059,3.3675,3.2725,3.2589,3.2589,3.2589,3.2996,3.3512,3.4109,3.4059,3.419,3.4248,3.4275,3.4194,3.414,3.4465,3.4684,3.474,3.5009,3.4981,3.4392,3.4258,3.3831,3.2927,3.2904,3.2823,3.187,3.2498,3.2777,3.2491,3.2596,3.2732,3.2634,3.3059,3.3554,3.3688,3.4192,3.3405,3.1704,3.0568,3.0374,2.9962,2.9456,2.904,2.8792,2.8792,2.8632,2.831,2.8149,2.8035,2.769,2.7483,2.7461,2.7415,2.73,2.7254,2.7231,2.7231,2.7231,2.7231,2.7231,2.7231,3.7403,3.6959,3.6933,3.6567,3.6044,3.594,3.5887,3.5835,3.5443,3.5208,3.5051,3.4528,3.4241,3.4241,3.4084,3.4005,3.4031,3.4005,3.3979,3.4031,3.4136,3.4188,3.4241,3.4319,3.4319,3.4428,3.4699,3.4944,3.5027,3.5276,3.5494,3.571,3.571,3.5683,3.5628,3.5628,3.5601,3.5547,3.5601,3.5357,3.4896,3.5411,3.571,3.571,3.5655,3.5655,3.571,3.5655,3.5655,3.571,3.571,3.5411,3.4841,3.4654,3.4461,3.3734,3.3756,3.3707,3.3783,3.3761,3.4136,3.4679,3.476,3.495,3.5438,3.552,3.5303,3.4844,3.4578,3.4767,3.5224,3.5059,3.4812,3.4706,3.4515,3.4376,3.4271,3.3824,3.3572,3.4432,3.363,3.3564,3.385,3.359,3.3189,3.2782,3.3183,3.3377,3.3013,3.2832,3.2476,3.1719,3.1956,3.1798,3.0841,3.0225,2.9685,2.8999,2.9137,2.9114,2.8838,2.8632,2.8586,2.831,2.8149,2.792,2.7805,2.7598,2.73,2.7415,2.7392,2.7254,2.7231,2.7231,2.7231,3.7769,3.7534,3.7534,3.7194,3.6619,3.6253,3.6096,3.607,3.5887,3.5783,3.5757,3.5521,3.5234,3.4946,3.492,3.5103,3.5365,3.5077,3.5103,3.5338,3.5077,3.5077,3.5391,3.5391,3.5391,3.5417,3.5503,3.57,3.5817,3.5862,3.5762,3.5602,3.5629,3.571,3.571,3.571,3.571,3.571,3.571,3.5601,3.5411,3.5574,3.571,3.571,3.571,3.571,3.571,3.571,3.571,3.571,3.571,3.5438,3.4869,3.4841,3.457,3.4,3.3869,3.4032,3.4356,3.4384,3.4654,3.5303,3.5357,3.5465,3.5683,3.5548,3.544,3.517,3.5117,3.5063,3.5032,3.4921,3.4756,3.4564,3.4481,3.4314,3.4004,3.3979,3.4063,3.4004,3.3979,3.4063,3.4314,3.4314,3.3979,3.353,3.3641,3.3556,3.2846,3.2649,3.2302,3.1689,3.1753,3.1704,3.1009,3.0481,3.0256,3.0225,3.0047,2.9734,2.932,2.9183,2.9091,2.8792,2.8563,2.8425,2.8402,2.831,2.8103,2.8035,2.7759,2.7598,2.73,2.7231,2.7231,3.8135,3.8109,3.7978,3.7639,3.722,3.6776,3.6593,3.6567,3.6436,3.6332,3.6332,3.6201,3.5992,3.5757,3.56,3.5757,3.6018,3.5678,3.573,3.6044,3.5704,3.573,3.607,3.6096,3.6096,3.6096,3.607,3.6184,3.6445,3.6444,3.6159,3.595,3.5952,3.6034,3.6225,3.6116,3.6035,3.5981,3.5954,3.59,3.5737,3.571,3.571,3.571,3.571,3.571,3.571,3.571,3.571,3.571,3.571,3.5438,3.4896,3.4977,3.479,3.4332,3.4278,3.4389,3.482,3.4927,3.5089,3.5494,3.5548,3.5548,3.5548,3.5386,3.5331,3.5223,3.5249,3.5059,3.4839,3.4756,3.4564,3.4397,3.4397,3.4147,3.381,3.4147,3.423,3.381,3.4147,3.4314,3.4147,3.4063,3.37,3.3275,3.336,3.3556,3.2846,3.276,3.2525,3.1858,3.1461,3.1234,3.1139,3.0644,3.0578,3.0668,3.0441,3.0055,2.9757,2.9711,2.9665,2.9435,2.9114,2.8907,2.8884,2.8861,2.8528,2.8482,2.8254,2.7843,2.7349,2.7235,2.7122,3.8684,3.8606,3.8135,3.7926,3.7848,3.7821,3.7795,3.7665,3.7194,3.6959,3.6881,3.641,3.641,3.6854,3.6358,3.6096,3.6149,3.6096,3.6123,3.6201,3.6123,3.6096,3.6096,3.6096,3.6149,3.6279,3.6279,3.6315,3.6524,3.6558,3.6704,3.708,3.6829,3.6967,3.7196,3.7084,3.6895,3.6522,3.6578,3.6334,3.5845,3.5764,3.5791,3.5818,3.5737,3.5764,3.5791,3.5737,3.5764,3.5737,3.5791,3.552,3.5004,3.5411,3.5521,3.5332,3.5169,3.5087,3.5141,3.5331,3.5358,3.5303,3.5465,3.5358,3.5328,3.5328,3.5272,3.4891,3.4997,3.4971,3.4809,3.459,3.4481,3.4397,3.4397,3.4397,3.4314,3.4314,3.4397,3.4314,3.423,3.4147,3.3556,3.2846,3.2698,3.2351,3.2089,3.2162,3.2537,3.2512,3.2333,3.2046,3.1619,3.1227,3.0965,3.0628,3.0399,3.0468,3.0674,3.0171,3.0216,3.017,3.0124,3.0032,2.9598,2.937,2.9278,2.9007,2.8517,2.8403,2.8403,2.8064,2.755,2.7375,2.7285,3.9285,3.9285,3.9076,3.8789,3.8423,3.8423,3.8214,3.79,3.7691,3.7586,3.756,3.7325,3.7377,3.756,3.7351,3.7246,3.722,3.6881,3.6881,3.7168,3.6854,3.6881,3.7246,3.7246,3.7273,3.7246,3.7246,3.7063,3.6901,3.6964,3.6928,3.6784,3.6817,3.6903,3.7102,3.7187,3.7165,3.6976,3.7118,3.7094,3.6877,3.6877,3.6877,3.6849,3.6497,3.6469,3.6849,3.6877,3.6877,3.6877,3.6877,3.6685,3.6383,3.6324,3.6347,3.6262,3.6178,3.6204,3.6204,3.6262,3.6262,3.6204,3.6262,3.6236,3.6204,3.612,3.595,3.5838,3.5667,3.5536,3.5057,3.4716,3.4397,3.4397,3.4397,3.4424,3.4397,3.4397,3.4397,3.4314,3.3953,3.353,3.3743,3.3406,3.3134,3.3119,3.3171,3.2931,3.2309,3.204,3.1778,3.1201,3.0886,3.0841,3.0778,3.0733,3.071,3.0878,3.0903,3.0441,3.0258,2.9986,2.9873,2.9897,2.967,2.9489,2.9376,2.9308,2.8835,2.8522,2.8588,2.8408,2.7872,2.7718,2.7607,3.9756,3.9625,3.9625,3.939,3.9024,3.8998,3.8789,3.8449,3.8266,3.8161,3.8135,3.7978,3.79,3.79,3.79,3.79,3.7874,3.7482,3.7508,3.7848,3.7482,3.7508,3.7821,3.79,3.79,3.79,3.79,3.7691,3.7351,3.7479,3.7332,3.7078,3.714,3.7228,3.7403,3.7491,3.7524,3.7537,3.7655,3.7659,3.7497,3.7555,3.7636,3.7718,3.7419,3.7284,3.7555,3.7443,3.7358,3.7358,3.7358,3.7187,3.7102,3.6844,3.6731,3.6645,3.6618,3.6558,3.6558,3.6645,3.6645,3.6558,3.6645,3.6645,3.6558,3.6471,3.6384,3.6297,3.621,3.594,3.56,3.5182,3.4816,3.4554,3.4554,3.4685,3.4685,3.4685,3.4711,3.4601,3.3997,3.3802,3.4093,3.3795,3.3533,3.3492,3.3683,3.3179,3.2385,3.1948,3.1646,3.0979,3.1091,3.1105,3.1051,3.114,3.0935,3.1067,3.1099,3.0633,3.0309,2.9996,2.9751,2.9754,2.9687,2.962,2.9575,2.953,2.9237,2.8878,2.8789,2.8656,2.8255,2.7944,2.7811,4.0122,3.9756,3.9625,3.9677,3.9599,3.9599,3.9599,3.939,3.8945,3.8736,3.8658,3.8214,3.8004,3.7952,3.7926,3.79,3.7874,3.7821,3.7821,3.7874,3.7848,3.7848,3.79,3.79,3.79,3.79,3.79,3.79,3.7821,3.7821,3.7861,3.8069,3.7899,3.7938,3.8549,3.8209,3.8113,3.8121,3.8075,3.7892,3.7551,3.7605,3.7849,3.8342,3.8369,3.8038,3.7578,3.738,3.7349,3.7322,3.7123,3.6844,3.6977,3.6717,3.655,3.663,3.6376,3.6175,3.6289,3.6542,3.6595,3.6507,3.649,3.6595,3.6446,3.6393,3.6305,3.6332,3.6305,3.6175,3.6149,3.607,3.5652,3.4711,3.4999,3.5286,3.5286,3.5312,3.5312,3.5201,3.4658,3.434,3.4529,3.4123,3.3547,3.3318,3.3083,3.2933,3.2394,3.2206,3.2225,3.1916,3.1703,3.1495,3.1504,3.1542,3.1296,3.1127,3.1046,3.0793,3.0652,3.043,3.0164,3.003,2.9964,2.9897,2.9648,2.9581,2.9404,2.909,2.9024,2.887,2.8561,2.8206,2.7962,4.0932,4.0801,4.0775,4.054,4.02,4.0174,3.9965,3.9599,3.939,3.9337,3.9233,3.871,3.8449,3.837,3.8083,3.79,3.79,3.79,3.79,3.7926,3.79,3.79,3.7926,3.79,3.79,3.79,3.79,3.79,3.7926,3.7926,3.79,3.7965,3.79,3.7992,3.8201,3.8122,3.8172,3.8156,3.8309,3.847,3.8485,3.8458,3.8654,3.8993,3.8816,3.862,3.8485,3.837,3.8309,3.8132,3.8043,3.7954,3.7748,3.7595,3.7441,3.7441,3.7441,3.7325,3.7325,3.7415,3.7389,3.7325,3.7415,3.7441,3.7351,3.7299,3.7299,3.7325,3.7325,3.722,3.6828,3.6724,3.641,3.5652,3.573,3.5861,3.5913,3.5739,3.5921,3.6207,3.5392,3.4977,3.5194,3.4691,3.3837,3.3431,3.3173,3.291,3.2453,3.2236,3.2052,3.1784,3.1772,3.1772,3.1622,3.1629,3.1447,3.1296,3.1119,3.1086,3.0943,3.0833,3.0568,3.0348,3.0281,3.0149,2.9921,2.9789,2.9635,2.9409,2.9321,2.9058,2.8659,2.8462,2.8261,4.1198,4.1324,4.1324,4.1115,4.0775,4.0749,4.0566,4.0226,3.9991,3.9913,3.9808,3.9311,3.905,3.8972,3.8684,3.8553,3.8553,3.8527,3.8527,3.8423,3.8031,3.8004,3.8214,3.8449,3.8527,3.8475,3.8292,3.8318,3.8527,3.8318,3.8214,3.8214,3.8423,3.8423,3.824,3.8346,3.8438,3.853,3.8527,3.8575,3.8729,3.8639,3.8729,3.8845,3.8639,3.8549,3.8549,3.8549,3.8485,3.8421,3.8421,3.8239,3.8057,3.7965,3.79,3.79,3.79,3.7874,3.79,3.7821,3.79,3.79,3.79,3.7874,3.79,3.79,3.79,3.79,3.8057,3.7978,3.7482,3.756,3.7429,3.7142,3.6671,3.6567,3.6698,3.6508,3.6793,3.7065,3.6396,3.6132,3.6077,3.5551,3.4579,3.3956,3.3469,3.2879,3.2338,3.195,3.1794,3.1644,3.1644,3.1666,3.1586,3.1629,3.1629,3.1476,3.1425,3.1315,3.1249,3.1162,3.0965,3.0592,3.0417,3.0219,3.0066,3.0013,2.9947,2.9816,2.9685,2.9445,2.9205,2.8979,2.8798,4.1023,4.1224,4.1224,4.1198,4.1172,4.1145,4.1219,4.1167,4.0723,4.0461,4.0357,3.9886,3.9651,3.9651,3.9468,3.9416,3.9573,3.9468,3.9442,3.9207,3.8658,3.837,3.8789,3.9207,3.939,3.9364,3.8998,3.905,3.9364,3.8972,3.8762,3.8815,3.9207,3.9311,3.8867,3.8762,3.8882,3.8991,3.8582,3.8436,3.8591,3.8304,3.8266,3.8292,3.8109,3.7952,3.807,3.7992,3.8031,3.8122,3.8057,3.7992,3.79,3.79,3.79,3.79,3.79,3.79,3.79,3.79,3.79,3.79,3.79,3.7952,3.8004,3.8057,3.8109,3.8214,3.8527,3.8527,3.8161,3.8277,3.8512,3.8512,3.7782,3.7495,3.7808,3.7701,3.7868,3.811,3.7715,3.7304,3.7556,3.6801,3.567,3.4544,3.3839,3.3017,3.2342,3.1984,3.1688,3.1629,3.1629,3.1629,3.1629,3.1629,3.1629,3.1586,3.1498,3.1498,3.1476,3.1389,3.1345,3.0974,3.069,3.045,3.0406,3.0438,3.0373,3.0199,3.0025,2.9947,2.9676,2.9332,2.9267,4.0978,4.072,4.0694,4.0795,4.0997,4.0997,4.1097,4.1298,4.1141,4.0937,4.0932,4.0461,4.02,4.0174,3.9808,3.9625,3.9677,3.9651,3.9625,3.9573,3.9364,3.9233,3.9337,3.952,3.9651,3.9625,3.9494,3.9468,3.9599,3.9468,3.9364,3.939,3.9573,3.9573,3.939,3.9364,3.9364,3.9406,3.8882,3.8568,3.8608,3.8267,3.8175,3.8542,3.8262,3.8194,3.8075,3.7593,3.7505,3.7965,3.79,3.79,3.79,3.79,3.79,3.79,3.7926,3.7926,3.7926,3.7952,3.7926,3.79,3.8004,3.8083,3.8475,3.8501,3.871,3.9024,3.9311,3.9033,3.8548,3.8739,3.8929,3.8762,3.8497,3.8489,3.8575,3.8582,3.8666,3.9128,3.8907,3.869,3.829,3.771,3.671,3.5544,3.4449,3.3504,3.2881,3.2104,3.1944,3.1651,3.1629,3.1629,3.1629,3.1629,3.1629,3.1629,3.1586,3.1586,3.1564,3.1542,3.152,3.1411,3.1135,3.0917,3.1048,3.1121,3.0882,3.0456,3.0206,2.9955,2.9719,2.9449,2.9547,4.1054,4.0824,4.0619,4.0593,4.0694,4.0694,4.0795,4.0922,4.0997,4.1023,4.0919,4.056,4.0378,4.0452,4.0265,4.0135,4.0109,4.0207,4.0331,4.0357,4.0331,4.02,4.0069,4.0148,4.0331,4.0278,4.0069,4.0122,4.0252,3.9998,3.9771,3.9823,3.9907,3.9907,3.9576,3.9647,3.9647,3.9447,3.9006,3.8696,3.8644,3.8291,3.8291,3.8453,3.8287,3.8216,3.8261,3.8005,3.7767,3.7661,3.7598,3.7598,3.7598,3.7598,3.7598,3.7598,3.7924,3.808,3.8199,3.8262,3.8418,3.8418,3.8324,3.8385,3.8644,3.8722,3.8929,3.911,3.9395,3.9239,3.8859,3.902,3.9205,3.8962,3.8863,3.8837,3.906,3.9035,3.9216,3.9599,3.9728,3.9397,3.8792,3.808,3.7276,3.6199,3.504,3.436,3.3743,3.2936,3.22,3.1973,3.1717,3.1673,3.1629,3.1629,3.1629,3.1629,3.1629,3.1629,3.1629,3.1629,3.1607,3.1505,3.1527,3.1424,3.1322,3.1219,3.0965,3.0627,3.0295,3.0168,2.9955,2.9621,2.9721,4.1022,4.1103,4.0696,4.0466,4.0415,4.0415,4.0389,4.0517,4.0517,4.0491,4.0491,4.0491,4.0516,4.0491,4.0614,4.0818,4.0818,4.0815,4.0993,4.0967,4.0915,4.0733,4.0395,4.0807,4.0989,4.0889,4.0624,4.0702,4.0733,4.0301,4.0046,4.0124,4.031,4.0184,3.9925,3.9722,3.9697,3.962,3.9282,3.8928,3.8877,3.8528,3.8405,3.8459,3.8386,3.8288,3.8485,3.843,3.8216,3.7245,3.7288,3.7416,3.7365,3.7339,3.7339,3.7561,3.8136,3.8437,3.8489,3.8825,3.911,3.8962,3.882,3.8877,3.8877,3.9,3.9102,3.9308,3.9466,3.9466,3.9235,3.9341,3.9395,3.9196,3.8716,3.8767,3.912,3.9195,3.9272,3.988,3.9956,3.9469,3.8816,3.8031,3.731,3.6772,3.5701,3.469,3.4094,3.3406,3.279,3.2345,3.2022,3.1717,3.1673,3.1629,3.1629,3.1629,3.1629,3.1629,3.1629,3.1629,3.1629,3.1527,3.1424,3.1322,3.1219,3.1116,3.0806,3.0411,2.9994,3.016,3.0284,2.9785,2.968,4.1064,4.037,4.027,4.0178,4.0134,4.0006,4.0006,4.0211,4.0185,4.0083,4.0185,4.0389,4.0517,4.0517,4.0491,4.0593,4.0593,4.072,4.0694,4.072,4.0694,4.0668,4.0514,4.087,4.0896,4.0668,4.0591,4.0591,4.0617,4.0464,4.0413,4.0337,4.0363,4.044,4.0312,4.0134,4.0312,4.0209,3.9748,3.9293,3.9117,3.8713,3.8614,3.8718,3.8793,3.8793,3.8667,3.834,3.8086,3.7909,3.8151,3.8344,3.8242,3.8268,3.8242,3.8268,3.8492,3.8743,3.8794,3.8897,3.8948,3.9025,3.9005,3.9005,3.9415,3.9367,3.9697,4.0004,4.0235,4.0057,3.9728,3.9297,3.9297,3.9448,3.9293,3.8835,3.8284,3.7989,3.8266,3.8792,3.9196,3.9424,3.9287,3.8502,3.7839,3.7196,3.625,3.5032,3.4381,3.3899,3.3276,3.2805,3.2416,3.2175,3.2022,3.2001,3.2001,3.1979,3.1957,3.1706,3.1706,3.1614,3.1533,3.1489,3.1424,3.1219,3.1013,3.062,3.0183,2.9932,2.9786,2.9807,2.9682,2.9579,2.9642,4.126,4.0631,4.0575,4.0514,4.0425,4.007,3.9969,3.9998,3.9669,3.9569,3.9775,3.9878,3.9981,4.0083,4.0287,4.0287,4.0287,4.0415,4.0517,4.0517,4.0491,4.0389,4.0287,4.0491,4.0491,4.0491,4.0491,4.0517,4.0517,4.0415,4.0262,4.0287,4.0211,4.0108,4.0108,4.0108,4.0083,4.0058,3.9829,3.955,3.9398,3.9196,3.9095,3.9195,3.9245,3.927,3.922,3.8994,3.8818,3.8894,3.907,3.8916,3.851,3.8434,3.8434,3.8434,3.8936,3.9013,3.9064,3.9267,3.9446,3.9369,3.9321,3.9373,3.955,3.9626,3.9753,4.0007,4.0083,3.9981,3.9853,3.9599,3.9471,3.9418,3.9137,3.8452,3.7849,3.7555,3.7482,3.7751,3.7746,3.7806,3.7733,3.782,3.7501,3.653,3.685,3.5833,3.5228,3.4634,3.3937,3.3501,3.3003,3.2656,3.2481,3.2437,3.2481,3.2503,3.2547,3.2314,3.1997,3.1801,3.1603,3.1391,3.118,3.0909,3.0703,3.0203,2.97,2.9554,2.9323,2.9237,2.9132,2.9343,2.9513,4.1571,4.125,4.1002,4.0864,4.0823,4.0269,4.0021,3.9897,3.9185,3.9069,3.9154,3.9154,3.9362,3.9569,3.9775,3.9878,3.9981,4.0185,4.0185,4.0185,4.0287,4.0185,4.0083,4.0083,4.0185,4.0415,4.0287,4.0287,4.0287,4.0185,4.0083,3.9981,3.9903,3.98,3.9697,3.9697,3.98,3.9775,3.975,3.9699,3.9622,3.9572,3.9597,3.9597,3.9622,3.9622,3.9622,3.9572,3.9622,3.9697,3.9697,3.917,3.8567,3.8266,3.8266,3.8316,3.8995,3.9272,3.9373,3.9753,3.9879,3.9981,3.9853,3.9647,3.9647,3.9725,3.9725,3.975,3.98,3.98,3.9697,3.9415,3.944,3.9415,3.8502,3.7843,3.7618,3.7618,3.7156,3.674,3.6892,3.6896,3.6754,3.6773,3.634,3.6122,3.6449,3.6511,3.5768,3.5064,3.4207,3.3617,3.3095,3.2663,3.249,3.2447,3.2511,3.2683,3.277,3.2448,3.2125,3.1741,3.1487,3.1187,3.0955,3.0704,3.0287,2.9949,2.9505,2.9232,2.918,2.9291,2.9232,2.914,2.9373,4.1467,4.1274,4.0929,4.0881,4.0814,4.0232,3.9986,3.9701,3.9365,3.8941,3.868,3.8841,3.8995,3.9074,3.8945,3.905,3.9332,3.9565,3.9619,3.9697,3.9825,3.9851,3.9876,4.0002,3.9901,3.98,3.9979,4.0029,3.9954,3.98,3.9951,3.9851,3.9747,3.9747,3.9697,3.9697,3.9697,3.9697,3.9697,3.9697,3.9697,3.9697,3.9697,3.9697,3.9697,3.9697,3.9697,3.9697,3.9697,3.9697,3.9697,3.9572,3.9371,3.932,3.932,3.9295,3.9473,3.9574,3.9624,3.9725,3.98,3.98,3.9798,3.9798,3.9772,3.9722,3.9772,3.9594,3.9594,3.9697,3.9697,3.9154,3.905,3.9104,3.8822,3.7952,3.7557,3.7148,3.652,3.6015,3.6121,3.6191,3.6002,3.5904,3.5685,3.5356,3.5466,3.5356,3.4781,3.4248,3.3763,3.3304,3.2937,3.2617,3.234,3.234,3.2361,3.2446,3.251,3.2293,3.1923,3.1579,3.1287,3.0888,3.0535,3.0222,2.9839,2.9641,2.9527,2.9371,2.9391,2.9518,2.949,2.9332,2.947,4.0751,4.0421,4.0511,4.0482,4.0555,4.0512,4.0404,4.016,3.9649,3.9237,3.8956,3.8941,3.9047,3.9153,3.9259,3.9259,3.9259,3.9575,3.9531,3.9486,3.974,3.9994,4.007,4.0375,4.0526,4.0551,4.0551,4.0245,4.0199,4.045,4.035,4.0174,4.0124,3.9973,3.9747,3.9697,3.9722,3.9722,3.9722,3.9697,3.9697,3.9697,3.9697,3.9697,3.9697,3.9697,3.9697,3.9697,3.9697,3.9697,3.9697,3.9697,3.9772,3.9923,3.9998,3.9772,3.9722,3.9722,3.9798,3.9923,4.0124,4.0174,4.0325,4.0526,4.045,4.0325,3.9815,3.9253,3.905,3.905,3.8945,3.8631,3.8631,3.8841,3.8502,3.7724,3.6921,3.6637,3.6056,3.5341,3.4795,3.4799,3.5001,3.4914,3.5024,3.4825,3.4602,3.4289,3.3861,3.3572,3.3374,3.3289,3.3077,3.295,3.2674,3.2632,3.248,3.2522,3.2301,3.2079,3.1746,3.1461,3.1005,3.0489,3.0088,3.0073,2.9964,2.9968,2.9679,2.9498,2.9656,2.9662,2.9662,2.957,2.9668,4.0316,4.0083,4.0316,4.0432,4.0453,4.0805,4.0789,4.0619,4.0033,3.9575,3.931,3.9285,3.9393,3.9501,3.9609,3.9609,3.9609,3.9931,3.9922,3.9854,4.0159,4.0464,4.0483,4.0707,4.0666,4.0242,4.0621,4.0881,4.0721,4.1003,4.1003,4.0802,4.0676,4.0501,4.0199,4.0224,4.0023,3.9873,3.9848,3.9823,3.9722,3.9697,3.9697,3.9697,3.9697,3.9697,3.9697,3.9697,3.9697,3.9697,3.9697,3.9697,3.9772,4.0199,4.03,3.9973,3.9948,4.0023,4.0149,4.04,4.0676,4.0701,4.1078,4.1254,4.1229,4.0721,4.0265,3.9136,3.8697,3.8624,3.855,3.808,3.7974,3.7974,3.7868,3.7311,3.6402,3.5836,3.5376,3.4604,3.3634,3.3609,3.4112,3.4267,3.4379,3.4267,3.4065,3.384,3.3523,3.3409,3.3254,3.3254,3.3212,3.3191,3.3085,3.3022,3.2847,3.2805,3.2467,3.2128,3.1787,3.1539,3.0943,3.0557,3.0571,3.0518,3.0366,3.0227,3.0023,2.9839,2.9878,2.9902,3.0078,3.0098,3.0137,4.1148,4.1378,4.1148,4.1287,4.1353,4.1052,4.1015,4.0716,4.0331,3.9994,3.9378,3.9513,3.9402,3.9513,3.9537,3.9647,3.9733,3.9928,4.0049,4.0011,4.0483,4.0449,4.0123,4.0038,3.9951,3.9579,3.9665,4.0255,4.0804,4.1106,4.1247,4.1146,4.1121,4.1046,4.0714,4.0796,4.0902,4.0501,4.0425,4.0199,3.9873,3.9798,3.9798,3.9798,3.9798,3.9848,3.9873,3.9744,3.9669,3.9644,3.9594,3.9697,3.9772,4.0224,4.045,4.0576,4.0827,4.1153,4.1053,4.1153,4.1229,4.1254,4.1404,4.1354,4.1164,4.1114,4.0682,4.037,3.9529,3.8825,3.8131,3.7059,3.6796,3.6688,3.6603,3.6449,3.5881,3.5356,3.4936,3.4379,3.3604,3.3444,3.3614,3.3727,3.3727,3.3614,3.3523,3.3409,3.3296,3.3069,3.2955,3.3069,3.3069,3.3069,3.2955,3.2955,3.282,3.282,3.2477,3.2018,3.1727,3.1436,3.1149,3.078,3.0817,3.0734,3.0438,3.0207,3.0192,3.0176,3.0254,3.0488,3.0762,3.0703,3.0527,3.9966,4.0432,3.9849,3.9966,4.0432,3.9849,3.9849,4.0009,3.9523,3.8897,3.8481,3.8412,3.8526,3.8824,3.9148,3.9262,3.9075,3.9457,3.9379,3.9396,3.9738,3.9882,3.9753,3.9944,3.9746,3.9494,3.9706,4.0144,4.0564,4.0716,4.0891,4.1588,4.1211,4.0709,4.0695,4.1031,4.0749,4.0467,4.0607,4.0746,4.0676,4.0601,4.0601,4.0601,4.0601,4.0576,4.0395,3.9724,3.9495,3.921,3.8802,3.8648,3.9308,3.9989,4.0517,4.1505,4.1957,4.1932,4.148,4.1656,4.1647,4.1907,4.1898,4.1938,4.1249,4.0881,4.033,3.9467,3.8957,3.8485,3.8029,3.6718,3.6248,3.5959,3.5624,3.5068,3.5002,3.4914,3.4491,3.3931,3.3614,3.3388,3.3296,3.3182,3.3161,3.3182,3.3069,3.3069,3.2955,3.2841,3.2841,3.2727,3.2727,3.2727,3.2612,3.2477,3.2363,3.2248,3.1903,3.1672,3.1441,3.1208,3.1015,3.0898,3.0897,3.0682,3.0293,3.0351,3.0488,3.0625,3.0742,3.084,3.0898,3.0879,3.0742,3.8908,3.9239,3.8529,3.8766,3.9239,3.8529,3.8648,3.9239,3.8625,3.8089,3.782,3.7753,3.787,3.8173,3.8635,3.8729,3.8501,3.8688,3.8712,3.8597,3.8804,3.9243,3.936,3.964,3.9522,3.9357,3.8912,3.9265,3.9405,3.9499,3.987,4.1558,4.0886,4.0467,4.0289,4.0574,4.0525,3.9864,4.0111,4.0256,4.0365,4.0715,4.0823,4.0956,4.1114,4.1222,4.0823,4.007,3.9477,3.8623,3.806,3.806,3.8695,3.9261,4.0013,4.0943,4.1457,4.1394,4.1163,4.1361,4.1867,4.1905,4.2053,4.1654,4.0595,4.0272,3.9831,3.877,3.8158,3.7975,3.7451,3.6204,3.5773,3.5391,3.5124,3.429,3.3819,3.4026,3.4075,3.3735,3.335,3.3161,3.2934,3.2841,3.2727,3.2727,3.2727,3.2747,3.2727,3.2727,3.2727,3.2727,3.2727,3.2612,3.2363,3.2248,3.2018,3.1787,3.1441,3.1325,3.1344,3.1112,3.1015,3.0898,3.0898,3.0801,3.0586,3.0742,3.0898,3.0859,3.084,3.0859,3.0898,3.0898,3.0898,3.9121,3.841,3.8313,3.8313,3.841,3.8291,3.8313,3.841,3.8291,3.8029,3.7821,3.8104,3.794,3.8127,3.8104,3.8149,3.8223,3.8602,3.8585,3.8938,3.9405,3.9007,3.8817,3.8506,3.8335,3.7517,3.7495,3.7834,3.7692,3.7594,3.8506,3.9896,3.9872,4.0058,4.008,4.0006,4.0116,3.9604,3.9522,3.9172,3.9372,3.9681,4.0123,4.0318,4.073,4.0898,4.0087,3.9733,3.9235,3.8194,3.7566,3.7566,3.8067,3.853,3.9249,3.986,4.0263,4.0127,4.0033,4.0607,4.098,4.0822,4.0616,4.05,3.9523,4.0058,3.9708,3.8504,3.7856,3.7211,3.6501,3.5656,3.5189,3.4987,3.4837,3.4498,3.3884,3.3759,3.3696,3.3381,3.3298,3.3215,3.3152,3.312,3.2975,3.2975,3.2913,3.2913,3.2747,3.2727,3.2727,3.2727,3.2727,3.2612,3.2363,3.2133,3.1903,3.1692,3.1344,3.1208,3.1208,3.1112,3.0898,3.0898,3.0898,3.0898,3.0898,3.0898,3.0898,3.0898,3.0898,3.0898,3.0762,3.0762,3.0762,3.7407,3.6545,3.6822,3.7493,3.8171,3.6989,3.6868,3.7231,3.6746,3.6502,3.6624,3.6502,3.6624,3.6746,3.6868,3.6989,3.7132,3.7231,3.7473,3.7473,3.7594,3.7495,3.7374,3.7374,3.7032,3.6667,3.6545,3.6667,3.6889,3.6524,3.6767,3.7834,3.8529,3.8744,3.898,3.9262,3.9476,3.9709,3.9591,3.945,3.9588,3.9817,4.0045,4.0159,4.0272,4.0499,4.0021,3.9145,3.8594,3.7885,3.7156,3.7179,3.7406,3.7794,3.8274,3.8942,3.9147,3.898,3.8766,3.9474,3.9943,3.9569,3.9098,3.8625,3.8268,3.8625,3.8557,3.7926,3.7502,3.6828,3.6828,3.5712,3.4826,3.4784,3.4679,3.4435,3.4191,3.4046,3.3824,3.3762,3.372,3.3679,3.3637,3.3617,3.341,3.3223,3.3141,3.3037,3.2851,3.2612,3.2612,3.2612,3.2612,3.2383,3.2018,3.1903,3.1787,3.1576,3.1228,3.1112,3.1112,3.0995,3.0898,3.0898,3.0898,3.0898,3.0898,3.0898,3.0898,3.0898,3.0898,3.0782,3.0762,3.0626,3.0509,3.6204,3.5541,3.5706,3.6329,3.7231,3.6013,3.5788,3.6279,3.5788,3.5418,3.5418,3.5418,3.5541,3.5665,3.5788,3.5911,3.6156,3.6156,3.6178,3.63,3.6401,3.63,3.6423,3.6423,3.6545,3.63,3.63,3.63,3.6156,3.6055,3.6156,3.6401,3.6746,3.721,3.7714,3.8096,3.8551,3.9026,3.9239,3.9239,3.9216,3.9428,3.9663,3.9756,4.0082,3.9966,3.9663,3.8849,3.8154,3.7367,3.6721,3.6465,3.6736,3.703,3.7488,3.7993,3.8171,3.779,3.7692,3.7812,3.8291,3.7932,3.7932,3.7451,3.7089,3.7089,3.7407,3.6946,3.6824,3.6724,3.6703,3.5575,3.5084,3.5022,3.4939,3.4814,3.471,3.4465,3.4362,3.4258,3.4155,3.3989,3.4051,3.3969,3.3782,3.3513,3.3285,3.3099,3.2809,3.2612,3.2498,3.2498,3.2383,3.2038,3.1787,3.1672,3.1556,3.1344,3.0995,3.1015,3.1015,3.0898,3.0898,3.0898,3.0898,3.0898,3.0762,3.0645,3.0762,3.0879,3.0762,3.0645,3.0411,3.0274,3.0157,3.6101,3.5534,3.5146,3.5211,3.5541,3.5418,3.5418,3.5541,3.5418,3.5418,3.5418,3.5418,3.5418,3.5418,3.5541,3.5541,3.5541,3.5541,3.5665,3.5932,3.5911,3.6055,3.6178,3.63,3.6055,3.5911,3.5788,3.5665,3.5418,3.5418,3.5418,3.5418,3.5665,3.6034,3.6423,3.6789,3.7032,3.7054,3.7154,3.7374,3.7616,3.8052,3.8291,3.8529,3.9003,3.8885,3.8387,3.8223,3.7405,3.6568,3.6264,3.6003,3.5905,3.5664,3.5876,3.646,3.6013,3.5788,3.5911,3.6279,3.6401,3.6524,3.6746,3.6746,3.6013,3.6135,3.6502,3.6135,3.5788,3.5665,3.5541,3.5397,3.5335,3.5149,3.5046,3.4984,3.4861,3.4677,3.4553,3.4492,3.4283,3.4134,3.4279,3.432,3.3994,3.3844,3.3513,3.3223,3.288,3.2621,3.2432,3.237,3.2255,3.1903,3.1556,3.1441,3.1208,3.0995,3.0898,3.0898,3.0898,3.0762,3.0898,3.0898,3.0762,3.0528,3.0509,3.0392,3.0469,3.0526,3.0547,3.0274,3.0039,2.9998,2.9974,3.5997,3.5214,3.5053,3.4956,3.4818,3.517,3.5418,3.5418,3.5418,3.5418,3.5418,3.5418,3.5418,3.5418,3.5418,3.5418,3.5418,3.5418,3.5541,3.5541,3.5541,3.5665,3.5665,3.5788,3.5541,3.5294,3.517,3.5046,3.4673,3.4797,3.4797,3.4797,3.4922,3.5294,3.5932,3.6423,3.6545,3.6545,3.6423,3.6279,3.6401,3.6502,3.6502,3.6746,3.7089,3.7089,3.6868,3.6868,3.6396,3.576,3.5739,3.5516,3.5271,3.5005,3.4985,3.5149,3.4797,3.4797,3.4922,3.5046,3.5294,3.5541,3.5788,3.5911,3.5541,3.5665,3.5665,3.5541,3.5418,3.5418,3.5418,3.5418,3.5253,3.5025,3.4964,3.4964,3.4902,3.4634,3.445,3.4573,3.4493,3.4391,3.4329,3.433,3.4126,3.4003,3.3738,3.3551,3.3305,3.2743,3.2387,3.2266,3.2069,3.1772,3.146,3.1404,3.121,3.1113,3.0957,3.0898,3.0898,3.08,3.0723,3.0644,3.0469,3.0176,3.0252,3.0211,3.0168,3.0187,3.0187,3.0244,3.0099,3.0073,3.0046,3.583,3.542,3.51,3.4799,3.4644,3.4983,3.5046,3.5046,3.5046,3.5046,3.517,3.517,3.517,3.5294,3.5294,3.5294,3.5418,3.5418,3.5418,3.5418,3.5418,3.5418,3.5294,3.517,3.5046,3.4797,3.4673,3.4673,3.4423,3.4423,3.4423,3.4423,3.4423,3.4797,3.5294,3.5665,3.5788,3.5809,3.5685,3.5665,3.5665,3.5541,3.5418,3.5541,3.5541,3.5541,3.5418,3.5418,3.5294,3.5294,3.517,3.5046,3.4797,3.4548,3.4548,3.4423,3.4423,3.4423,3.4423,3.4423,3.4797,3.5046,3.5046,3.517,3.517,3.5294,3.5418,3.5294,3.5418,3.5418,3.5294,3.5294,3.517,3.4922,3.4797,3.4797,3.4673,3.4507,3.4383,3.4528,3.4548,3.4423,3.4298,3.4342,3.4285,3.4184,3.4083,3.3882,3.3518,3.2934,3.2375,3.2215,3.2056,3.1642,3.1445,3.1328,3.1231,3.1113,3.1034,3.1093,3.113,3.1084,3.0734,3.0405,3.0325,3.0244,3.0125,3.0062,3.0167,3.0139,3.0139,3.0195,3.0167,3.0119,3.0193,3.5524,3.5785,3.4953,3.4704,3.5006,3.4604,3.4423,3.4423,3.4443,3.4733,3.4962,3.4669,3.5001,3.5293,3.5148,3.521,3.5314,3.5438,3.5397,3.5335,3.5211,3.5066,3.4922,3.4922,3.4673,3.4548,3.4423,3.4298,3.4298,3.4173,3.4173,3.4298,3.4173,3.4298,3.4548,3.4673,3.4922,3.5046,3.4922,3.5046,3.5046,3.4922,3.4797,3.4922,3.4922,3.5046,3.5046,3.5046,3.4922,3.4922,3.4797,3.4548,3.4423,3.4047,3.4173,3.4298,3.4298,3.4298,3.4173,3.4173,3.4298,3.4298,3.4423,3.4548,3.4797,3.4922,3.4922,3.5046,3.517,3.517,3.5294,3.5046,3.4797,3.4673,3.4548,3.4423,3.4423,3.4298,3.4298,3.4298,3.4298,3.4173,3.4173,3.4153,3.4133,3.3948,3.3808,3.361,3.3394,3.2993,3.2574,3.2196,3.1899,3.1406,3.1367,3.1307,3.1246,3.1185,3.1257,3.1232,3.1264,3.1264,3.0793,3.0622,3.0464,3.0344,3.0121,3.0185,3.018,3.0236,3.034,3.0377,3.0328,3.0346,3.0401,3.5524,3.5426,3.4564,3.4339,3.426,3.3867,3.3922,3.4443,3.4745,3.5032,3.5053,3.5228,3.5396,3.5625,3.5497,3.5457,3.5483,3.5341,3.5199,3.5078,3.5041,3.4754,3.4588,3.4629,3.4318,3.4213,3.4107,3.4021,3.3836,3.369,3.369,3.367,3.3796,3.3796,3.3796,3.3796,3.4173,3.4423,3.4298,3.4298,3.4298,3.4173,3.4047,3.4173,3.4173,3.4173,3.4173,3.4173,3.4047,3.3922,3.3922,3.3796,3.367,3.3544,3.367,3.367,3.367,3.367,3.367,3.367,3.367,3.3796,3.3796,3.4047,3.4298,3.4548,3.4548,3.4797,3.4797,3.4797,3.4797,3.4673,3.4548,3.4298,3.4173,3.4047,3.4047,3.3922,3.3922,3.4047,3.3922,3.3922,3.3796,3.3796,3.365,3.367,3.3611,3.3434,3.3277,3.2878,3.2603,3.2348,3.193,3.1474,3.1373,3.1309,3.1207,3.1161,3.1351,3.1465,3.1304,3.1124,3.0888,3.0691,3.0512,3.0389,3.0162,3.0241,3.0479,3.0571,3.0714,3.0607,3.0626,3.0626,3.0681,3.5644,3.5547,3.4883,3.4414,3.4062,3.3789,3.3926,3.4366,3.4604,3.4704,3.4892,3.5142,3.5471,3.569,3.5561,3.5561,3.567,3.5469,3.5348,3.5268,3.4919,3.4919,3.4839,3.4652,3.4624,3.431,3.4162,3.43,3.3867,3.3691,3.3652,3.3418,3.3418,3.3418,3.3418,3.3544,3.367,3.3796,3.3796,3.3796,3.367,3.3544,3.3418,3.3418,3.3418,3.3418,3.3418,3.3418,3.3418,3.3418,3.3418,3.3418,3.3418,3.3418,3.3418,3.3418,3.3418,3.3418,3.3418,3.3418,3.3418,3.3418,3.3418,3.367,3.3922,3.4047,3.4298,3.4423,3.4423,3.4423,3.4298,3.4298,3.4173,3.3922,3.3796,3.367,3.367,3.3544,3.3544,3.367,3.3544,3.3544,3.3418,3.3418,3.3292,3.3292,3.3165,3.3107,3.3029,3.2894,3.2622,3.237,3.1969,3.1589,3.1484,3.1361,3.1418,3.1388,3.1615,3.1527,3.1396,3.1127,3.1021,3.0803,3.0567,3.0567,3.0442,3.0644,3.0864,3.0919,3.0974,3.0992,3.0992,3.1029,3.1121,3.6016,3.5976,3.5566,3.4883,3.418,3.4121,3.4121,3.4141,3.4348,3.4457,3.4705,3.4779,3.5297,3.5659,3.5528,3.5639,3.5619,3.5631,3.5551,3.5641,3.5331,3.5142,3.5032,3.504,3.4713,3.472,3.4629,3.4434,3.4512,3.4297,3.3945,3.3516,3.3613,3.3691,3.373,3.3613,3.3721,3.3721,3.3623,3.3418,3.3418,3.3418,3.3418,3.3418,3.3418,3.3418,3.3418,3.3418,3.3418,3.3418,3.3418,3.3418,3.3418,3.3418,3.3418,3.3418,3.3418,3.3418,3.3418,3.3418,3.3418,3.3418,3.3418,3.3418,3.367,3.3796,3.3922,3.4047,3.4047,3.4047,3.4047,3.3922,3.3796,3.367,3.367,3.3544,3.3544,3.3418,3.3418,3.3418,3.3292,3.3165,3.3038,3.3038,3.2912,3.2931,3.2804,3.2657,3.2657,3.2619,3.2574,3.2325,3.2017,3.1653,3.1577,3.1471,3.1565,3.1715,3.1757,3.1705,3.1429,3.1357,3.1212,3.1029,3.0972,3.0827,3.0882,3.1029,3.1121,3.1194,3.1249,3.1322,3.1341,3.1304,3.1322,3.6035,3.5976,3.5566,3.5059,3.459,3.4551,3.4551,3.459,3.4941,3.5059,3.5269,3.5469,3.5799,3.5874,3.5854,3.5854,3.5835,3.5712,3.55,3.5362,3.5225,3.5297,3.4897,3.4995,3.4916,3.4687,3.4687,3.4766,3.4648,3.4551,3.4492,3.4336,3.4219,3.4121,3.4101,3.3945,3.3769,3.373,3.3555,3.3437,3.3418,3.3418,3.3418,3.3418,3.3418,3.3418,3.3418,3.3418,3.3418,3.3418,3.3418,3.3418,3.3418,3.3418,3.3418,3.3418,3.3418,3.3418,3.3418,3.3418,3.3418,3.3418,3.3418,3.3418,3.3418,3.3418,3.3544,3.367,3.367,3.367,3.367,3.3544,3.3544,3.3544,3.3418,3.3418,3.3418,3.3292,3.3292,3.3165,3.3038,3.2912,3.2804,3.2676,3.2549,3.2549,3.2549,3.2422,3.2294,3.2275,3.2256,3.2086,3.2016,3.1813,3.1574,3.1518,3.1593,3.1522,3.1524,3.1598,3.1506,3.1469,3.1304,3.1322,3.1231,3.1157,3.1139,3.1249,3.1341,3.1377,3.1377,3.1249,3.1249,3.1083,3.123,3.6035,3.5976,3.5566,3.5254,3.5039,3.5019,3.5,3.5098,3.5488,3.5684,3.5684,3.5898,3.6035,3.6035,3.6035,3.6035,3.5996,3.5781,3.5684,3.5547,3.541,3.5371,3.5273,3.5234,3.5351,3.5293,3.5254,3.5215,3.4844,3.4648,3.459,3.4336,3.4238,3.4258,3.4199,3.3926,3.3867,3.375,3.3574,3.3496,3.3457,3.3437,3.3418,3.3418,3.3418,3.3437,3.3418,3.3418,3.3418,3.3418,3.3418,3.3418,3.3418,3.3418,3.3418,3.3418,3.3418,3.3418,3.3437,3.3437,3.3457,3.3457,3.3418,3.3418,3.3418,3.3418,3.3418,3.3544,3.3544,3.3544,3.3544,3.3418,3.3418,3.3418,3.3418,3.3418,3.3165,3.2912,3.2804,3.2804,3.2676,3.2676,3.2549,3.2549,3.2422,3.2166,3.2166,3.2038,3.191,3.191,3.191,3.191,3.1782,3.1782,3.1524,3.1505,3.1414,3.1488,3.1377,3.1377,3.1506,3.1377,3.1377,3.1359,3.1359,3.1341,3.1359,3.1377,3.1377,3.1377,3.1249,3.1138,3.0991,3.0732,3.0602,3.6035,3.5976,3.5625,3.5488,3.5469,3.5469,3.5469,3.5527,3.5859,3.6016,3.5996,3.5996,3.6035,3.6035,3.6035,3.6035,3.5996,3.5937,3.5957,3.5976,3.5957,3.5801,3.582,3.5937,3.5859,3.5859,3.584,3.5469,3.5059,3.5,3.4707,3.3887,3.375,3.3809,3.373,3.373,3.3926,3.3984,3.3887,3.3691,3.3574,3.3476,3.3496,3.3476,3.3516,3.3516,3.3555,3.3535,3.3535,3.3535,3.3555,3.3496,3.3516,3.3516,3.3476,3.3476,3.3555,3.3574,3.3574,3.3594,3.3574,3.3535,3.3457,3.3418,3.3292,3.3292,3.3292,3.3292,3.3292,3.3418,3.3418,3.3418,3.3418,3.3292,3.3292,3.3184,3.2931,3.2549,3.2549,3.2422,3.2294,3.2294,3.2294,3.2294,3.2166,3.191,3.1782,3.1653,3.1525,3.1635,3.1635,3.1635,3.1635,3.1506,3.1377,3.1377,3.1377,3.1377,3.1377,3.1377,3.1377,3.1377,3.1377,3.1377,3.1377,3.1377,3.1377,3.1377,3.1377,3.1377,3.0732,3.0473,3.0195,2.9935,2.9691,3.6035,3.6016,3.5918,3.5898,3.5898,3.5879,3.5898,3.5898,3.5976,3.6035,3.6035,3.6035,3.6035,3.6035,3.6035,3.6035,3.6035,3.6035,3.6035,3.6016,3.6035,3.6035,3.6035,3.6035,3.6035,3.6035,3.6016,3.5879,3.541,3.5527,3.5644,3.5254,3.5332,3.5351,3.5332,3.5137,3.4707,3.4609,3.4434,3.4297,3.4141,3.3984,3.3711,3.3769,3.3945,3.416,3.4277,3.4101,3.4004,3.3945,3.3926,3.3769,3.375,3.3789,3.3789,3.375,3.3809,3.3906,3.3945,3.3945,3.3945,3.3681,3.3583,3.3223,3.3204,3.3038,3.2912,3.2785,3.2912,3.3165,3.3292,3.3292,3.3292,3.2931,3.2804,3.2676,3.2422,3.2294,3.2294,3.2166,3.2038,3.191,3.1763,3.1763,3.1763,3.1506,3.1506,3.1506,3.1506,3.1377,3.1377,3.1377,3.1377,3.1377,3.1377,3.1377,3.1377,3.1377,3.1377,3.1377,3.1377,3.1377,3.1377,3.1377,3.1377,3.1377,3.1377,3.1377,3.1249,3.0991,3.0065,2.9543,2.9282,2.874,2.8362]},{"header":{"parameterUnit":"m.s-1","parameterCategory":1,"la1":31.0,"la2":29.5877,"lo1":-88.7671,"lo2":-86.6584,"dy":0.0162,"dx":0.0185,"nx":115,"ny":88,"refTime":"2024-08-06T00:00:00:Z","depth":0,"parameterNumber":3,"parameterNumberName":"V-component_of_WINDS"},"data":[0.0,0.0,0.0,0.0,0.0,0.0,0.0,0.0,0.0,0.0,0.0,0.0,0.0,0.0,0.0,0.0,0.0,0.0,0.0,0.0,0.0,0.0,0.0,0.0,0.0,0.0,0.0,0.0,0.0,0.0,0.0,0.0,0.0,0.0,0.0,0.0,0.0,0.0,0.0,0.0,0.0,0.0,0.0,0.0,0.0,0.0,0.0,0.0,0.0,0.0,0.0,0.0,0.0,0.0,0.0,0.0,0.0,0.0,0.0,0.0,0.0,0.0,0.0,0.0,0.0,0.0,0.0,0.0,0.0,0.0,0.0,0.0,0.0,0.0,0.0,0.0,0.0,0.0,0.0,0.0,0.0,0.0,0.0,0.0,0.0,0.0,0.0,0.0,0.0,0.0,0.0,0.0,0.0,0.0,0.0,0.0,0.0,0.0,0.0,0.0,0.0,0.0,0.0,0.0,0.0,0.0,0.0,0.0,0.0,0.0,0.0,0.0,0.0,0.0,0.0,0.0,0.0,0.0,0.0,0.0,0.0,0.0,0.0,0.0,0.0,0.0,0.0,0.0,0.0,0.0,0.0,0.0,0.0,0.0,0.0,0.0,0.0,0.0,0.0,0.0,0.0,0.0,0.0,0.0,0.0,0.0,0.0,0.0,0.0,0.0,0.0,0.0,0.0,0.0,0.0,0.0,0.0,0.0,0.0,0.0,0.0,0.0,0.0,0.0,0.0,0.0,0.0,0.0,0.0,0.0,0.0,0.0,0.0,0.0,0.0,0.0,0.0,0.0,0.0,0.0,0.0,0.0,0.0,0.0,0.0,0.0,0.0,0.0,0.0,0.0,0.0,0.0,0.0,0.0,0.0,0.0,0.0,0.0,0.0,0.0,0.0,0.0,0.0,0.0,0.0,0.0,0.0,0.0,0.0,0.0,0.0,0.0,0.0,0.0,0.0,0.0,0.0,0.0,0.0,0.0,0.0,0.0,0.0,0.0,0.0,0.0,0.0,0.0,0.0,0.0,0.0,0.0,0.0,0.0,0.0,0.0,0.0,0.0,0.0,0.0,0.0,0.0,0.0,0.0,0.0,0.0,0.0,0.0,0.0,0.0,0.0,0.0,0.0,0.0,0.0,0.0,0.0,0.0,0.0,0.0,0.0,0.0,0.0,0.0,0.0,0.0,0.0,0.0,0.0,0.0,0.0,0.0,0.0,0.0,0.0,0.0,0.0,0.0,0.0,0.0,0.0,0.0,0.0,0.0,0.0,0.0,0.0,0.0,0.0,0.0,0.0,0.0,0.0,0.0,0.0,0.0,0.0,0.0,0.0,0.0,0.0,0.0,0.0,0.0,0.0,0.0,0.0,0.0,0.0,0.0,0.0,0.0,0.0,0.0,0.0,0.0,0.0,0.0,0.0,0.0,0.0,0.0,0.0,0.0,0.0,0.0,0.0,0.0,0.0,0.0,0.0,0.0,0.0,0.0,0.0,0.0,0.0,0.0,0.0,0.0,0.0,0.0,0.0,0.0,0.0,0.0,0.0,0.0,0.0,0.0,0.0,0.0,0.0,0.0,0.0,0.0,0.0,0.0,0.0,0.0,0.0,0.0,0.0,0.0,0.0,0.0,0.0,0.0,0.0,0.0,0.0,0.0,0.0,0.0,0.0,0.0,0.0,0.0,0.0,0.0,0.0,0.0,0.0,0.0,0.0,0.0,0.0,0.0,0.0,0.0,0.0,0.0,0.0,0.0,0.0,0.0,0.0,0.0,0.0,0.0,0.0,0.0,0.0,0.0,0.0,0.0,0.0,0.0,0.0,0.0,0.0,0.0,0.0,0.0,0.0,0.0,0.0,0.0,0.0,0.0,0.0,0.0,0.0,0.0,0.0,0.0,0.0,0.0,0.0,0.0,0.0,0.0,0.0,0.0,0.0,0.0,0.0,0.0,0.0,0.0,0.0,0.0,0.0,0.0,0.0,0.0,0.0,0.0,0.0,0.0,0.0,0.0,0.0,0.0,0.0,0.0,0.0,0.0,0.0,0.0,0.0,0.0,0.0,0.0,0.0,0.0,0.0,0.0,0.0,0.0,0.0,0.0,0.0,0.0,0.0,0.0,0.0,0.0,0.0,0.0,0.0,0.0,0.0,0.0,0.0,0.0,0.0,0.0,0.0,0.0,0.0,0.0,0.0,0.0,0.0,0.0,0.0,0.0,0.0,0.0,0.0,0.0,0.0,0.0,0.0,0.0,0.0,0.0,0.0,0.0,0.0,0.0,0.0,0.0,0.0,0.0,0.0,0.0,0.0,0.0,0.0,0.0,0.0,0.0,0.0,0.0,0.0,0.0,0.0,0.0,0.0,0.0,0.0,0.0,0.0,0.0,0.0,0.0,0.0,0.0,0.0,0.0,0.0,0.0,0.0,0.0,0.0,0.0,0.0,0.0,0.0,0.0,0.0,0.0,0.0,0.0,0.0,0.0,0.0,0.0,0.0,0.0,0.0,0.0,0.0,0.0,0.0,0.0,0.0,0.0,0.0,0.0,0.0,0.0,0.0,0.0,0.0,0.0,0.0,0.0,0.0,0.0,0.0,0.0,0.0,0.0,0.0,0.0,0.0,0.0,0.0,0.0,0.0,0.0,0.0,0.0,0.0,0.0,0.0,0.0,0.0,0.0,0.0,0.0,0.0,0.0,0.0,0.0,0.0,0.0,0.0,0.0,0.0,0.0,0.0,0.0,0.0,0.0,0.0,0.0,0.0,0.0,0.0,0.0,0.0,0.0,0.0,0.0,0.0,0.0,0.0,0.0,0.0,0.0,0.0,0.0,0.0,0.0,0.0,0.0,0.0,0.0,0.0,0.0,0.0,0.0,0.0,0.0,0.0,0.0,0.0,0.0,0.0,0.0,0.0,0.0,0.0,0.0,0.0,0.0,0.0,0.0,0.0,0.0,0.0,0.0,0.0,0.0,0.0,0.0,0.0,0.0,0.0,0.0,0.0,0.0,0.0,0.0,0.0,0.0,0.0,0.0,0.0,0.0,0.0,0.0,0.0,0.0,0.0,0.0,0.0,0.0,0.0,0.0,0.0,0.0,0.0,0.0,0.0,0.0,0.0,0.0,0.0,0.0,0.0,0.0,0.0,0.0,0.0,0.0,0.0,0.0,0.0,0.0,0.0,0.0,0.0,0.0,0.0,0.0,0.0,0.0,0.0,0.0,0.0,0.0,0.0,0.0,0.0,0.0,0.0,0.0,0.0,0.0,0.0,0.0,0.0,0.0,0.0,0.0,0.0,0.0,0.0,0.0,0.0,0.0,0.0,0.0,0.0,0.0,0.0,0.0,0.0,0.0,0.0,0.0,0.0,0.0,0.0,0.0,0.0,0.0,0.0,0.0,0.0,0.0,0.0,0.0,0.0,0.0,0.0,0.0,0.0,0.0,0.0,0.0,0.0,0.0,0.0,0.0,0.0,0.0,0.0,0.0,0.0,0.0,0.0,0.0,0.0,0.0,0.0,0.0,0.0,0.0,0.0,0.0,0.0,0.0,0.0,0.0,0.0,0.0,0.0,0.0,0.0,0.0,0.0,0.0,0.0,0.0,0.0,0.0,0.0,0.0,0.0,0.0,0.0,0.0,0.0,0.0,0.0,0.0,0.0,0.0,0.0,0.0,0.0,0.0,0.0,0.0,0.0,0.0,0.0,0.0,0.0,0.0,0.0,0.0,0.0,0.0,0.0,0.0,0.0,0.0,0.0,0.0,0.0,0.0,0.0,0.0,0.0,0.0,0.0,0.0,0.0,0.0,0.0,0.0,0.0,0.0,0.0,0.0,0.0,0.0,0.0,0.0,0.0,0.0,0.0,0.0,0.0,0.0,0.0,0.0,0.0,0.0,0.0,0.0,0.0,0.0,0.0,0.0,0.0,0.0,0.0,0.0,0.0,0.0,0.0,0.0,0.0,0.0,0.0,0.0,0.0,0.0,0.0,0.0,0.0,0.0,0.0,0.0,0.0,0.0,0.0,0.0,0.0,0.0,0.0,0.0,0.0,0.0,0.0,0.0,0.0,0.0,0.0,0.0,0.0,0.0,0.0,0.0,0.0,0.0,0.0,0.0,0.0,0.0,0.0,0.0,0.0,0.0,0.0,0.0,0.0,0.0,0.0,0.0,0.0,0.0,0.0,0.0,0.0,0.0,0.0,0.0,0.0,0.0,0.0,0.0,0.0,0.0,0.0,0.0,0.0,0.0,0.0,0.0,0.0,0.0,0.0,0.0,0.0,0.0,0.0,0.0,-0.8532,0.0,0.0,0.0,0.0,0.0,0.0,0.0,0.0,0.0,0.0,0.0,0.0,0.0,0.0,0.0,0.0,0.0,0.0,0.0,0.0,0.0,0.0,0.0,0.0,0.0,0.0,0.0,0.0,0.0,0.0,0.0,0.0,0.0,0.0,0.0,0.0,0.0,0.0,0.0,0.0,0.0,0.0,0.0,0.0,0.0,0.0,0.0,0.0,0.0,0.0,0.0,0.0,0.0,0.0,0.0,0.0,0.0,0.0,0.0,0.0,0.0,0.0,0.0,0.0,0.0,0.0,0.0,0.0,0.0,0.0,0.0,0.0,0.0,0.0,0.0,0.0,0.0,0.0,0.0,0.0,0.0,0.0,0.0,0.0,0.0,0.0,0.0,0.0,0.0,0.0,0.0,0.0,0.0,0.0,0.0,0.0,0.0,0.0,0.0,0.0,0.0,0.0,0.0,0.0,0.0,0.0,0.0,0.0,0.0,0.0,-0.9723,-0.8579,-1.0613,-1.0643,-0.8229,0.0,0.0,0.0,0.0,0.0,0.0,0.0,0.0,0.0,0.0,0.0,0.0,0.0,0.0,0.0,0.0,0.0,0.0,0.0,0.0,0.0,0.0,0.0,0.0,0.0,0.0,0.0,0.0,0.0,0.0,0.0,0.0,0.0,0.0,0.0,0.0,0.0,0.0,0.0,0.0,0.0,0.0,0.0,0.0,0.0,0.0,0.0,0.0,0.0,0.0,0.0,0.0,0.0,0.0,0.0,0.0,0.0,0.0,0.0,0.0,0.0,0.0,0.0,0.0,0.0,0.0,0.0,0.0,0.0,0.0,0.0,0.0,0.0,0.0,0.0,0.0,0.0,0.0,0.0,0.0,0.0,0.0,0.0,0.0,0.0,0.0,0.0,0.0,0.0,0.0,0.0,0.0,0.0,0.0,0.0,0.0,0.0,0.0,0.0,0.0,0.0,0.0,0.0,0.0,0.0,0.0,0.0,0.0,0.0,0.0,0.0,0.0,-1.0556,-1.0565,-0.8668,0.0,0.0,0.0,0.0,0.0,0.0,0.0,0.0,0.0,0.0,0.0,0.0,0.0,0.0,0.0,0.0,0.0,0.0,0.0,0.0,0.0,0.0,0.0,0.0,0.0,0.0,0.0,0.0,0.0,0.0,0.0,0.0,0.0,0.0,0.0,0.0,0.0,0.0,0.0,0.0,0.0,0.0,0.0,0.0,0.0,0.0,0.0,0.0,0.0,0.0,0.0,0.0,0.0,0.0,0.0,0.0,0.0,0.0,0.0,0.0,0.0,0.0,0.0,0.0,0.0,0.0,0.0,0.0,0.0,0.0,0.0,0.0,0.0,0.0,0.0,0.0,0.0,0.0,0.0,0.0,0.0,0.0,0.0,0.0,0.0,0.0,0.0,0.0,0.0,0.0,0.0,0.0,0.0,0.0,0.0,0.0,0.0,0.0,0.0,0.0,0.0,0.0,0.0,0.0,0.0,0.0,0.0,0.0,0.0,0.0,-0.9247,-1.0393,-1.0607,0.0,-1.0326,0.0,0.0,0.0,0.0,0.0,0.0,0.0,0.0,0.0,0.0,0.0,0.0,0.0,0.0,0.0,0.0,0.0,0.0,0.0,0.0,0.0,0.0,0.0,0.0,0.0,0.0,0.0,0.0,0.0,0.0,0.0,0.0,0.0,0.0,0.0,0.0,0.0,0.0,0.0,0.0,0.0,0.0,0.0,0.0,0.0,0.0,0.0,0.0,0.0,0.0,0.0,0.0,0.0,0.0,0.0,0.0,0.0,0.0,0.0,0.0,0.0,0.0,0.0,0.0,0.0,0.0,0.0,0.0,0.0,0.0,0.0,0.0,0.0,0.0,0.0,0.0,0.0,0.0,0.0,0.0,0.0,0.0,0.0,0.0,0.0,0.0,0.0,0.0,0.0,0.0,0.0,0.0,0.0,0.0,0.0,0.0,0.0,0.0,0.0,0.0,0.0,0.0,0.0,0.0,0.0,0.0,0.0,0.0,0.0,0.0,0.0,-1.0929,-1.0532,-1.0025,0.0,0.0,0.0,0.0,0.0,0.0,0.0,0.0,0.0,0.0,0.0,0.0,0.0,0.0,0.0,0.0,0.0,0.0,0.0,0.0,0.0,0.0,0.0,0.0,0.0,0.0,0.0,0.0,0.0,0.0,0.0,0.0,0.0,0.0,0.0,0.0,0.0,0.0,0.0,0.0,0.0,0.0,0.0,0.0,0.0,0.0,0.0,0.0,0.0,0.0,0.0,0.0,0.0,0.0,0.0,0.0,0.0,0.0,0.0,0.0,0.0,0.0,0.0,0.0,0.0,0.0,0.0,0.0,0.0,0.0,0.0,0.0,0.0,0.0,0.0,0.0,0.0,0.0,0.0,0.0,0.0,0.0,0.0,0.0,0.0,0.0,0.0,0.0,0.0,0.0,0.0,0.0,0.0,0.0,0.0,0.0,0.0,0.0,0.0,0.0,0.0,0.0,0.0,0.0,0.0,0.0,0.0,0.0,0.0,0.0,-1.0074,0.0,-1.151,-1.0382,-0.9487,-0.8942,0.0,0.0,0.0,0.0,0.0,0.0,0.0,0.0,0.0,0.0,0.0,0.0,0.0,0.0,0.0,0.0,0.0,0.0,0.0,0.0,0.0,0.0,0.0,0.0,0.0,0.0,0.0,0.0,0.0,0.0,0.0,0.0,0.0,0.0,0.0,0.0,0.0,0.0,0.0,0.0,0.0,0.0,0.0,0.0,0.0,0.0,0.0,0.0,0.0,0.0,0.0,0.0,0.0,0.0,0.0,0.0,0.0,0.0,0.0,0.0,0.0,0.0,0.0,0.0,0.0,0.0,0.0,0.0,0.0,0.0,0.0,0.0,0.0,0.0,0.0,0.0,0.0,0.0,0.0,0.0,0.0,0.0,0.0,0.0,0.0,0.0,0.0,0.0,0.0,0.0,0.0,0.0,0.0,0.0,0.0,0.0,0.0,0.0,0.0,0.0,0.0,0.0,0.0,0.0,0.0,0.0,0.0,0.0,0.0,-1.1726,-1.1469,-1.2514,-1.0121,-0.9141,0.0,0.0,0.0,0.0,0.0,0.0,0.0,0.0,0.0,0.0,0.0,0.0,0.0,0.0,0.0,0.0,0.0,0.0,0.0,0.0,0.0,0.0,0.0,0.0,0.0,0.0,0.0,0.0,0.0,0.0,0.0,0.0,0.0,0.0,0.0,0.0,0.0,0.0,0.0,0.0,0.0,0.0,0.0,0.0,0.0,0.0,0.0,0.0,0.0,0.0,0.0,0.0,0.0,0.0,0.0,0.0,0.0,0.0,0.0,0.0,0.0,0.0,0.0,0.0,0.0,0.0,0.0,0.0,0.0,0.0,0.0,0.0,0.0,0.0,0.0,0.0,0.0,0.0,0.0,0.0,0.0,0.0,0.0,0.0,0.0,0.0,0.0,0.0,0.0,0.0,0.0,0.0,0.0,0.0,0.0,0.0,0.0,0.0,0.0,0.0,0.0,0.0,0.0,0.0,0.0,0.0,0.0,0.0,0.0,-1.0555,-1.1333,-1.1715,-1.1758,-1.0843,-1.0352,0.0,0.0,0.0,0.0,0.0,0.0,0.0,0.0,0.0,0.0,0.0,0.0,0.0,0.0,0.0,0.0,0.0,0.0,0.0,0.0,0.0,0.0,0.0,0.0,0.0,0.0,0.0,0.0,0.0,0.0,0.0,0.0,0.0,0.0,0.0,0.0,0.0,0.0,0.0,0.0,0.0,0.0,0.0,0.0,0.0,0.0,0.0,0.0,0.0,0.0,0.0,0.0,0.0,0.0,0.0,0.0,0.0,0.0,0.0,0.0,0.0,0.0,0.0,0.0,0.0,0.0,0.0,0.0,0.0,0.0,0.0,0.0,0.0,0.0,0.0,0.0,0.0,0.0,0.0,0.0,0.0,0.0,0.0,0.0,0.0,0.0,0.0,0.0,0.0,0.0,0.0,0.0,0.0,0.0,0.0,0.0,0.0,0.0,0.0,0.0,0.0,0.0,0.0,0.0,0.0,0.0,0.0,0.0,0.0,-1.0379,0.0,-1.2831,0.0,-1.1417,-1.0714,0.0,0.0,0.0,0.0,0.0,0.0,0.0,0.0,0.0,0.0,0.0,0.0,0.0,0.0,0.0,0.0,0.0,0.0,0.0,0.0,0.0,0.0,0.0,0.0,0.0,0.0,0.0,0.0,0.0,0.0,0.0,0.0,0.0,0.0,0.0,0.0,0.0,0.0,0.0,0.0,0.0,0.0,0.0,0.0,0.0,0.0,0.0,0.0,0.0,0.0,0.0,0.0,0.0,0.0,0.0,0.0,0.0,0.0,0.0,0.0,0.0,0.0,0.0,0.0,0.0,0.0,0.0,0.0,0.0,0.0,0.0,0.0,0.0,0.0,0.0,0.0,0.0,0.0,0.0,0.0,0.0,0.0,0.0,0.0,0.0,0.0,0.0,0.0,0.0,0.0,0.0,0.0,0.0,0.0,0.0,0.0,0.0,0.0,0.0,0.0,0.0,0.0,0.0,0.0,0.0,0.0,0.0,0.0,-0.9921,-1.298,-1.4477,-1.4736,-1.4015,-1.1814,-1.0075,0.0,0.0,0.0,0.0,0.0,0.0,0.0,0.0,0.0,0.0,0.0,0.0,0.0,0.0,0.0,0.0,0.0,0.0,0.0,0.0,0.0,0.0,0.0,0.0,0.0,0.0,0.0,0.0,0.0,0.0,0.0,0.0,0.0,0.0,0.0,0.0,0.0,0.0,0.0,0.0,0.0,0.0,0.0,0.0,0.0,0.0,0.0,0.0,0.0,0.0,0.0,0.0,0.0,0.0,0.0,0.0,0.0,0.0,0.0,0.0,0.0,0.0,0.0,0.0,0.0,0.0,0.0,0.0,0.0,0.0,0.0,0.0,0.0,0.0,0.0,0.0,0.0,0.0,0.0,0.0,0.0,0.0,0.0,0.0,0.0,0.0,0.0,0.0,0.0,0.0,0.0,0.0,0.0,0.0,0.0,0.0,0.0,0.0,0.0,0.0,0.0,0.0,0.0,0.0,0.0,0.0,0.0,0.0,0.0,-1.1158,-1.3379,-1.472,-1.4958,-1.2517,-1.1234,0.0,0.0,0.0,0.0,0.0,0.0,0.0,0.0,0.0,0.0,0.0,0.0,0.0,0.0,0.0,0.0,0.0,0.0,0.0,0.0,0.0,0.0,0.0,0.0,0.0,0.0,0.0,0.0,0.0,0.0,0.0,0.0,0.0,0.0,0.0,0.0,0.0,0.0,0.0,0.0,0.0,0.0,0.0,0.0,0.0,0.0,0.0,0.0,0.0,0.0,0.0,0.0,0.0,0.0,0.0,0.0,0.0,0.0,0.0,0.0,0.0,0.0,0.0,0.0,0.0,0.0,0.0,0.0,0.0,0.0,0.0,0.0,0.0,0.0,0.0,0.0,0.0,0.0,0.0,0.0,0.0,0.0,0.0,0.0,0.0,0.0,0.0,0.0,0.0,0.0,0.0,0.0,0.0,0.0,0.0,0.0,0.0,0.0,0.0,0.0,0.0,0.0,0.0,0.0,0.0,0.0,0.0,0.0,0.0,-1.2273,-1.4405,-1.5713,-1.5982,-1.3414,-1.2114,-1.2237,0.0,0.0,0.0,0.0,0.0,0.0,0.0,0.0,0.0,0.0,0.0,0.0,0.0,0.0,0.0,0.0,0.0,0.0,0.0,0.0,0.0,0.0,0.0,0.0,0.0,0.0,0.0,0.0,0.0,0.0,0.0,0.0,0.0,0.0,0.0,0.0,0.0,0.0,0.0,0.0,0.0,0.0,0.0,0.0,0.0,0.0,0.0,0.0,0.0,0.0,0.0,0.0,0.0,0.0,0.0,0.0,0.0,0.0,0.0,0.0,0.0,0.0,0.0,0.0,0.0,0.0,0.0,0.0,0.0,0.0,0.0,0.0,0.0,0.0,0.0,0.0,0.0,0.0,0.0,0.0,0.0,0.0,0.0,0.0,0.0,0.0,0.0,0.0,0.0,0.0,0.0,0.0,0.0,0.0,0.0,0.0,0.0,0.0,0.0,0.0,0.0,0.0,0.0,0.0,0.0,0.0,0.0,0.0,-1.5567,-1.7166,-1.7637,-1.6753,-1.4387,-1.2636,0.0,0.0,0.0,0.0,0.0,0.0,0.0,0.0,0.0,0.0,0.0,0.0,0.0,0.0,0.0,0.0,0.0,0.0,0.0,0.0,0.0,0.0,0.0,0.0,0.0,0.0,0.0,0.0,0.0,0.0,0.0,0.0,0.0,0.0,0.0,0.0,0.0,0.0,0.0,0.0,0.0,0.0,0.0,0.0,0.0,0.0,0.0,0.0,0.0,0.0,0.0,0.0,0.0,0.0,0.0,0.0,0.0,0.0,0.0,0.0,0.0,0.0,0.0,0.0,0.0,0.0,0.0,0.0,0.0,0.0,0.0,0.0,0.0,0.0,0.0,0.0,0.0,0.0,0.0,0.0,0.0,0.0,0.0,0.0,0.0,0.0,0.0,0.0,0.0,0.0,0.0,0.0,0.0,0.0,0.0,0.0,0.0,0.0,0.0,0.0,0.0,0.0,0.0,0.0,0.0,0.0,0.0,0.0,0.0,-1.6465,-1.7813,-1.8223,-1.7589,-1.4678,-1.288,0.0,0.0,0.0,0.0,0.0,0.0,0.0,0.0,0.0,0.0,0.0,0.0,0.0,0.0,0.0,0.0,0.0,0.0,0.0,0.0,0.0,0.0,0.0,0.0,0.0,0.0,0.0,0.0,0.0,0.0,0.0,0.0,0.0,0.0,0.0,0.0,0.0,0.0,0.0,0.0,0.0,0.0,0.0,0.0,0.0,0.0,0.0,0.0,0.0,0.0,0.0,0.0,0.0,0.0,0.0,0.0,0.0,0.0,0.0,0.0,0.0,0.0,0.0,0.0,0.0,0.0,0.0,0.0,0.0,0.0,0.0,0.0,0.0,0.0,0.0,0.0,0.0,0.0,0.0,0.0,0.0,0.0,0.0,0.0,0.0,0.0,0.0,0.0,0.0,0.0,0.0,0.0,0.0,0.0,0.0,0.0,0.0,0.0,0.0,0.0,0.0,0.0,0.0,0.0,0.0,0.0,0.0,0.0,-1.5052,-1.7915,-1.8854,-1.9043,-1.8606,-1.609,-1.4146,0.0,0.0,0.0,0.0,0.0,0.0,0.0,0.0,0.0,0.0,0.0,0.0,0.0,0.0,0.0,0.0,0.0,0.0,0.0,0.0,0.0,0.0,0.0,0.0,0.0,0.0,0.0,0.0,0.0,0.0,0.0,0.0,0.0,0.0,0.0,0.0,0.0,0.0,0.0,0.0,0.0,0.0,0.0,0.0,0.0,0.0,0.0,0.0,0.0,0.0,0.0,0.0,0.0,0.0,0.0,0.0,0.0,0.0,0.0,0.0,0.0,0.0,0.0,0.0,0.0,0.0,0.0,0.0,0.0,0.0,0.0,0.0,0.0,0.0,0.0,0.0,0.0,0.0,0.0,0.0,0.0,0.0,0.0,0.0,0.0,0.0,0.0,0.0,0.0,0.0,0.0,0.0,0.0,0.0,0.0,0.0,0.0,0.0,0.0,0.0,0.0,0.0,0.0,0.0,0.0,0.0,0.0,0.0,-1.6256,-1.9631,-2.0058,-2.0002,-1.9524,-1.7927,-1.5794,0.0,0.0,0.0,0.0,0.0,0.0,0.0,0.0,0.0,0.0,0.0,0.0,0.0,0.0,0.0,0.0,0.0,0.0,0.0,0.0,0.0,0.0,0.0,0.0,0.0,0.0,0.0,0.0,0.0,0.0,0.0,0.0,0.0,0.0,0.0,0.0,0.0,0.0,0.0,0.0,0.0,0.0,0.0,0.0,0.0,0.0,0.0,0.0,0.0,0.0,0.0,0.0,0.0,0.0,0.0,0.0,0.0,0.0,0.0,0.0,0.0,0.0,0.0,0.0,0.0,0.0,0.0,0.0,0.0,0.0,0.0,0.0,0.0,0.0,0.0,0.0,0.0,0.0,0.0,0.0,0.0,0.0,0.0,0.0,0.0,0.0,0.0,0.0,0.0,0.0,0.0,0.0,0.0,0.0,0.0,0.0,0.0,0.0,0.0,0.0,0.0,0.0,0.0,0.0,0.0,0.0,0.0,0.0,-1.7309,-2.1005,-2.0824,-2.0594,-2.0492,-1.79,-1.5694,0.0,0.0,0.0,0.0,0.0,0.0,0.0,0.0,0.0,0.0,0.0,0.0,0.0,0.0,0.0,0.0,0.0,0.0,0.0,0.0,0.0,0.0,0.0,0.0,0.0,0.0,0.0,0.0,0.0,0.0,0.0,0.0,0.0,0.0,0.0,0.0,0.0,0.0,0.0,0.0,0.0,0.0,0.0,0.0,0.0,0.0,0.0,0.0,-1.6358,0.0,0.0,0.0,0.0,0.0,0.0,0.0,0.0,0.0,0.0,0.0,0.0,0.0,0.0,0.0,0.0,0.0,0.0,0.0,0.0,0.0,0.0,0.0,0.0,0.0,0.0,0.0,0.0,0.0,0.0,0.0,0.0,0.0,0.0,0.0,0.0,0.0,0.0,0.0,0.0,0.0,0.0,0.0,0.0,0.0,0.0,0.0,0.0,0.0,0.0,0.0,0.0,0.0,0.0,0.0,0.0,0.0,0.0,0.0,-1.8946,-2.1883,-2.1965,-2.1818,-2.1564,-1.9768,-1.7468,0.0,0.0,0.0,0.0,0.0,0.0,0.0,0.0,0.0,0.0,0.0,0.0,0.0,0.0,0.0,0.0,0.0,0.0,0.0,0.0,0.0,0.0,0.0,0.0,0.0,0.0,0.0,0.0,0.0,0.0,0.0,0.0,0.0,0.0,0.0,0.0,0.0,0.0,0.0,0.0,0.0,0.0,0.0,0.0,0.0,0.0,0.0,0.0,0.0,0.0,0.0,0.0,0.0,0.0,0.0,0.0,0.0,0.0,0.0,0.0,0.0,0.0,0.0,0.0,0.0,0.0,0.0,0.0,0.0,0.0,0.0,0.0,0.0,0.0,0.0,0.0,0.0,0.0,0.0,0.0,0.0,0.0,0.0,0.0,0.0,0.0,0.0,0.0,0.0,0.0,0.0,0.0,0.0,0.0,0.0,0.0,0.0,0.0,0.0,0.0,0.0,0.0,0.0,0.0,0.0,0.0,0.0,-1.8109,-2.0283,-2.2496,-2.3077,-2.3099,-2.2656,-2.2085,-1.9781,-1.5605,0.0,0.0,0.0,0.0,0.0,0.0,0.0,0.0,0.0,0.0,0.0,0.0,0.0,0.0,0.0,0.0,0.0,0.0,0.0,0.0,0.0,0.0,0.0,0.0,0.0,0.0,0.0,0.0,0.0,0.0,0.0,0.0,0.0,0.0,0.0,0.0,0.0,0.0,-1.8432,-1.8863,0.0,0.0,0.0,0.0,0.0,0.0,0.0,0.0,-1.6621,0.0,0.0,0.0,0.0,0.0,0.0,0.0,0.0,0.0,0.0,0.0,0.0,0.0,0.0,0.0,0.0,0.0,0.0,0.0,0.0,0.0,0.0,0.0,0.0,0.0,0.0,0.0,0.0,0.0,0.0,0.0,0.0,0.0,0.0,0.0,0.0,0.0,0.0,0.0,0.0,0.0,0.0,0.0,0.0,0.0,0.0,0.0,0.0,0.0,0.0,0.0,0.0,0.0,0.0,0.0,0.0,-1.7607,-1.7914,-1.9729,-2.3099,-2.3254,-2.3254,-2.3165,-2.2622,-2.0741,-1.7308,0.0,0.0,0.0,0.0,0.0,0.0,0.0,0.0,0.0,0.0,0.0,0.0,0.0,0.0,0.0,0.0,0.0,0.0,0.0,0.0,0.0,0.0,0.0,0.0,0.0,0.0,0.0,0.0,0.0,0.0,0.0,0.0,0.0,0.0,0.0,0.0,0.0,0.0,0.0,-1.9443,-1.9419,0.0,0.0,0.0,0.0,0.0,0.0,0.0,0.0,-1.6786,0.0,0.0,0.0,0.0,0.0,0.0,0.0,0.0,0.0,0.0,0.0,0.0,0.0,0.0,0.0,0.0,0.0,0.0,0.0,0.0,0.0,0.0,0.0,0.0,0.0,0.0,0.0,0.0,0.0,0.0,0.0,0.0,0.0,0.0,0.0,0.0,0.0,0.0,0.0,0.0,0.0,0.0,0.0,0.0,0.0,0.0,0.0,0.0,0.0,0.0,0.0,0.0,0.0,0.0,0.0,-1.7843,-1.9987,-2.1954,-2.3841,-2.3909,-2.3886,-2.374,-2.2996,-2.113,0.0,0.0,0.0,0.0,0.0,0.0,0.0,0.0,0.0,0.0,0.0,0.0,0.0,0.0,0.0,0.0,0.0,0.0,0.0,0.0,0.0,0.0,0.0,0.0,0.0,0.0,0.0,0.0,0.0,0.0,0.0,0.0,0.0,0.0,0.0,0.0,0.0,0.0,0.0,0.0,-1.9618,-1.9788,-1.9095,0.0,0.0,0.0,0.0,0.0,0.0,-1.7605,-1.7264,0.0,0.0,0.0,0.0,0.0,0.0,0.0,0.0,0.0,0.0,0.0,0.0,0.0,0.0,0.0,0.0,0.0,0.0,0.0,0.0,0.0,0.0,0.0,0.0,0.0,0.0,0.0,0.0,0.0,0.0,0.0,0.0,0.0,0.0,0.0,0.0,0.0,0.0,0.0,0.0,0.0,0.0,0.0,0.0,0.0,0.0,0.0,0.0,0.0,0.0,0.0,0.0,0.0,0.0,0.0,-1.7924,-2.1551,-2.3816,-2.4539,-2.4562,-2.449,-2.4322,-2.3098,-2.1149,0.0,0.0,0.0,0.0,0.0,0.0,0.0,0.0,0.0,0.0,0.0,0.0,0.0,0.0,0.0,0.0,0.0,0.0,0.0,0.0,0.0,0.0,0.0,0.0,0.0,0.0,0.0,0.0,0.0,0.0,0.0,0.0,0.0,0.0,0.0,0.0,0.0,0.0,0.0,0.0,0.0,-2.0256,-1.9927,-1.9775,0.0,0.0,0.0,0.0,-1.8314,-1.829,0.0,0.0,0.0,0.0,0.0,0.0,0.0,0.0,0.0,0.0,0.0,0.0,0.0,0.0,0.0,0.0,0.0,0.0,0.0,0.0,0.0,0.0,0.0,0.0,0.0,0.0,0.0,0.0,0.0,0.0,0.0,0.0,0.0,0.0,0.0,0.0,0.0,0.0,0.0,0.0,0.0,0.0,0.0,0.0,0.0,0.0,0.0,0.0,0.0,0.0,0.0,0.0,0.0,0.0,0.0,0.0,-1.7983,-2.0399,-2.2662,-2.4636,-2.4801,-2.4729,-2.4706,-2.2662,-2.0573,0.0,0.0,0.0,0.0,0.0,0.0,0.0,0.0,0.0,0.0,0.0,0.0,0.0,0.0,0.0,0.0,0.0,0.0,0.0,0.0,0.0,0.0,0.0,0.0,0.0,0.0,0.0,0.0,0.0,0.0,0.0,0.0,0.0,0.0,0.0,0.0,0.0,0.0,0.0,0.0,0.0,-2.1256,-2.03,-2.052,-2.0618,0.0,0.0,-1.9981,-1.9745,-1.9745,0.0,0.0,0.0,0.0,0.0,0.0,0.0,0.0,0.0,0.0,0.0,0.0,0.0,0.0,0.0,0.0,0.0,0.0,0.0,0.0,0.0,0.0,0.0,0.0,0.0,0.0,0.0,0.0,0.0,0.0,0.0,0.0,0.0,0.0,0.0,0.0,0.0,0.0,0.0,0.0,0.0,0.0,0.0,0.0,0.0,0.0,0.0,0.0,0.0,0.0,0.0,0.0,0.0,0.0,0.0,-1.7005,-1.8533,-2.1587,-2.3743,-2.4945,-2.4992,-2.4921,-2.4801,-2.2134,-2.0075,0.0,0.0,0.0,0.0,0.0,0.0,0.0,0.0,0.0,0.0,0.0,0.0,0.0,0.0,0.0,0.0,0.0,0.0,0.0,0.0,0.0,0.0,0.0,0.0,0.0,0.0,0.0,0.0,0.0,0.0,0.0,0.0,0.0,0.0,0.0,0.0,0.0,0.0,0.0,0.0,0.0,0.0,-2.0797,-2.1052,0.0,0.0,0.0,-2.0742,-2.0226,0.0,0.0,0.0,0.0,0.0,0.0,0.0,0.0,0.0,0.0,0.0,0.0,0.0,0.0,0.0,0.0,0.0,0.0,0.0,0.0,0.0,0.0,0.0,0.0,0.0,0.0,0.0,0.0,0.0,0.0,0.0,0.0,0.0,0.0,0.0,0.0,0.0,0.0,0.0,0.0,0.0,0.0,0.0,0.0,0.0,0.0,0.0,0.0,0.0,0.0,0.0,0.0,0.0,0.0,0.0,0.0,0.0,-1.8977,-2.2639,-2.4795,-2.5158,-2.5182,-2.5111,-2.4874,-2.1966,0.0,0.0,0.0,0.0,0.0,0.0,0.0,0.0,0.0,0.0,0.0,0.0,0.0,0.0,0.0,0.0,0.0,0.0,0.0,0.0,0.0,0.0,0.0,0.0,0.0,0.0,0.0,-1.4893,0.0,0.0,0.0,0.0,0.0,0.0,0.0,0.0,0.0,0.0,0.0,0.0,0.0,0.0,-2.1888,-2.1542,-2.1765,-2.204,0.0,0.0,-2.1481,-2.0983,-2.1156,-2.1053,0.0,0.0,0.0,0.0,0.0,0.0,0.0,0.0,0.0,0.0,0.0,0.0,0.0,0.0,0.0,0.0,0.0,0.0,0.0,0.0,0.0,0.0,0.0,0.0,0.0,0.0,0.0,0.0,0.0,0.0,0.0,0.0,0.0,0.0,0.0,0.0,0.0,0.0,0.0,0.0,0.0,0.0,0.0,0.0,0.0,0.0,0.0,0.0,0.0,0.0,0.0,0.0,0.0,0.0,0.0,-1.9179,-2.2835,-2.4909,-2.5276,-2.53,-2.53,-2.5205,-2.2554,-2.0618,0.0,0.0,0.0,0.0,0.0,0.0,0.0,0.0,0.0,0.0,0.0,0.0,0.0,0.0,0.0,0.0,0.0,0.0,0.0,0.0,0.0,0.0,0.0,0.0,0.0,0.0,0.0,0.0,0.0,0.0,0.0,0.0,0.0,0.0,0.0,0.0,0.0,0.0,0.0,0.0,0.0,-2.273,-2.284,-2.2959,-2.3155,0.0,0.0,-2.2364,-2.266,-2.2735,-2.2505,-2.1635,0.0,0.0,0.0,0.0,0.0,0.0,0.0,0.0,0.0,0.0,0.0,0.0,0.0,0.0,0.0,0.0,0.0,0.0,0.0,0.0,0.0,0.0,0.0,0.0,0.0,0.0,0.0,0.0,0.0,0.0,0.0,0.0,0.0,0.0,0.0,0.0,0.0,0.0,0.0,0.0,0.0,0.0,0.0,0.0,0.0,0.0,0.0,0.0,0.0,0.0,0.0,0.0,0.0,-1.893,-1.9536,-2.2989,-2.4933,-2.53,-2.5394,-2.5465,-2.5324,-2.2709,-2.0912,0.0,0.0,0.0,0.0,0.0,0.0,0.0,0.0,0.0,0.0,0.0,0.0,0.0,0.0,0.0,0.0,0.0,0.0,0.0,0.0,0.0,0.0,0.0,0.0,0.0,0.0,0.0,0.0,-1.7242,-1.8207,-1.8647,0.0,0.0,0.0,0.0,0.0,0.0,0.0,0.0,0.0,0.0,-2.378,-2.4282,-2.4761,0.0,0.0,-2.4725,-2.4451,-2.3959,-2.3833,-2.3554,-2.2834,-2.2182,0.0,0.0,0.0,0.0,0.0,0.0,0.0,0.0,0.0,0.0,0.0,0.0,0.0,0.0,0.0,0.0,0.0,0.0,0.0,0.0,0.0,0.0,0.0,0.0,0.0,0.0,0.0,0.0,0.0,0.0,0.0,0.0,0.0,0.0,0.0,0.0,0.0,0.0,0.0,0.0,0.0,0.0,0.0,0.0,0.0,0.0,0.0,0.0,0.0,0.0,0.0,0.0,-1.931,-2.0098,-2.332,-2.5213,-2.5683,-2.5703,-2.5606,-2.5322,-2.3513,-2.1981,0.0,0.0,0.0,0.0,0.0,0.0,0.0,0.0,0.0,0.0,0.0,0.0,0.0,0.0,0.0,0.0,0.0,0.0,0.0,0.0,0.0,0.0,0.0,0.0,0.0,0.0,0.0,0.0,-1.8115,-1.9123,-1.9684,0.0,0.0,0.0,0.0,0.0,0.0,0.0,0.0,0.0,0.0,-2.5057,-2.5688,-2.6258,-2.6413,-2.6022,-2.6028,-2.5853,-2.5091,-2.5109,-2.4951,-2.4239,0.0,0.0,0.0,0.0,0.0,0.0,0.0,0.0,0.0,0.0,0.0,0.0,0.0,0.0,0.0,0.0,0.0,0.0,0.0,0.0,0.0,0.0,0.0,0.0,0.0,0.0,0.0,0.0,0.0,0.0,-1.7933,0.0,0.0,0.0,0.0,0.0,0.0,0.0,0.0,0.0,0.0,0.0,0.0,0.0,0.0,0.0,0.0,0.0,0.0,0.0,0.0,0.0,0.0,-2.0046,-2.0996,-2.3839,-2.5753,-2.6623,-2.6181,-2.5816,-2.5581,-2.5184,-2.4067,-2.2002,0.0,0.0,0.0,0.0,0.0,0.0,0.0,0.0,0.0,0.0,0.0,0.0,0.0,0.0,0.0,0.0,0.0,0.0,0.0,0.0,0.0,0.0,0.0,0.0,0.0,0.0,-1.7924,-1.8708,-1.9493,0.0,0.0,0.0,0.0,0.0,0.0,0.0,0.0,0.0,0.0,-2.5179,-2.6519,-2.7203,-2.7209,-2.7173,-2.721,-2.6605,-2.6136,-2.6083,-2.6506,-2.672,0.0,0.0,0.0,0.0,0.0,0.0,0.0,0.0,0.0,0.0,0.0,0.0,0.0,0.0,0.0,0.0,0.0,0.0,0.0,0.0,0.0,0.0,0.0,0.0,0.0,0.0,0.0,-1.9127,-1.8687,0.0,0.0,0.0,0.0,0.0,0.0,0.0,0.0,0.0,0.0,0.0,-2.1799,-2.1929,0.0,0.0,0.0,0.0,0.0,0.0,0.0,0.0,0.0,0.0,0.0,0.0,-2.0976,-2.1957,-2.4558,-2.6124,-2.6672,-2.6346,-2.598,-2.584,-2.5326,-2.41,-2.1934,0.0,0.0,0.0,0.0,0.0,0.0,0.0,0.0,0.0,0.0,0.0,0.0,0.0,0.0,0.0,0.0,0.0,0.0,0.0,0.0,0.0,0.0,0.0,0.0,0.0,-1.9313,0.0,0.0,0.0,0.0,0.0,0.0,0.0,0.0,0.0,0.0,0.0,-2.4602,-2.6635,-2.7131,-2.7765,-2.9108,-2.9223,-2.9306,0.0,0.0,0.0,0.0,0.0,0.0,0.0,0.0,0.0,0.0,0.0,0.0,0.0,0.0,-2.8103,-2.5036,-2.3441,-2.2705,-2.3097,0.0,0.0,0.0,0.0,0.0,0.0,0.0,0.0,0.0,0.0,0.0,0.0,0.0,0.0,-2.1433,0.0,-2.0594,0.0,0.0,0.0,0.0,0.0,0.0,0.0,0.0,-2.3326,-2.3905,-2.403,-2.4133,-2.4106,0.0,-2.3411,-2.193,0.0,0.0,0.0,0.0,0.0,0.0,0.0,0.0,-2.2026,-2.2799,-2.5475,-2.7005,-2.7185,-2.676,-2.6387,-2.598,-2.5369,-2.4337,-2.2861,-2.1807,-2.0623,0.0,0.0,0.0,0.0,0.0,0.0,0.0,0.0,0.0,0.0,0.0,0.0,0.0,0.0,0.0,0.0,0.0,0.0,0.0,0.0,0.0,0.0,0.0,-2.0401,0.0,0.0,0.0,0.0,0.0,0.0,0.0,0.0,0.0,-2.4431,-2.5558,-2.6947,-2.8713,-2.9026,-2.9364,-3.0031,0.0,0.0,0.0,0.0,0.0,0.0,0.0,-2.6106,-2.5494,-2.6049,-2.6737,-2.7303,-2.997,-3.1786,-3.0923,0.0,0.0,-2.7795,-2.629,-2.5749,-2.6041,-2.6436,-2.6683,-2.6507,-2.6874,-2.7055,0.0,0.0,0.0,0.0,0.0,0.0,0.0,0.0,-2.459,-2.4876,0.0,-2.3502,0.0,0.0,0.0,0.0,0.0,-2.3623,0.0,0.0,-2.6472,-2.7095,-2.6681,-2.6202,-2.6229,-2.66,-2.5282,-2.4257,-2.3649,-2.197,0.0,0.0,0.0,0.0,0.0,0.0,-2.3243,-2.3765,-2.6552,-2.8097,-2.8122,-2.7595,-2.6997,-2.6263,-2.5555,-2.4987,-2.4613,-2.353,-2.2402,-2.1117,-2.0064,0.0,0.0,0.0,0.0,0.0,0.0,0.0,0.0,0.0,0.0,0.0,0.0,0.0,0.0,0.0,0.0,0.0,0.0,0.0,0.0,-2.0753,0.0,0.0,0.0,0.0,0.0,0.0,0.0,0.0,0.0,0.0,-2.5238,-2.7305,-2.9132,-2.9638,0.0,0.0,0.0,0.0,-2.8474,-2.7371,-2.6552,-2.6076,-2.6049,-2.7631,-2.8691,-2.8112,0.0,0.0,-2.9765,-3.157,-3.2889,-3.1791,-3.268,-3.2803,-3.0729,-2.9484,-2.8807,-2.8404,-2.8423,-2.832,-2.8171,-2.8636,-2.8706,-2.9755,0.0,0.0,0.0,0.0,-2.7118,-2.7014,-2.7167,-2.714,-2.6657,-2.5944,-2.5403,0.0,0.0,0.0,0.0,0.0,0.0,-2.6832,-2.788,-2.8228,-2.8821,-2.9673,-2.9405,-2.9367,-2.9504,-2.9111,-2.8579,-2.8065,-2.7152,-2.4524,-2.0246,0.0,0.0,0.0,0.0,-2.4165,-2.551,-2.7222,-2.8298,-2.8674,-2.8147,-2.7595,-2.6997,-2.6446,-2.5827,-2.5186,-2.4863,-2.4205,-2.3134,-2.2214,0.0,0.0,0.0,0.0,0.0,0.0,0.0,0.0,0.0,0.0,0.0,0.0,0.0,0.0,0.0,0.0,0.0,0.0,0.0,-2.0715,-2.1143,-2.1523,0.0,0.0,0.0,0.0,0.0,0.0,0.0,0.0,0.0,-2.7676,-2.752,-2.7645,0.0,0.0,-2.8025,-2.8054,-2.8905,-2.9549,-2.9633,-2.9431,0.0,-2.9318,-2.8782,-2.833,-2.8161,-2.9512,-3.0844,-3.1401,-3.297,-3.4062,-3.3752,-3.4753,-3.5238,-3.407,-3.2164,-3.0983,-3.1177,-3.1649,-3.2095,-3.2353,-3.2833,-3.3016,-3.2948,-3.1206,-3.0017,-2.9697,-2.9842,-2.9523,-2.9609,-2.9952,-2.9892,-2.9576,-2.903,-2.8282,-2.7535,-2.6816,-2.639,0.0,0.0,0.0,-2.9015,-3.0291,-3.0099,-3.0452,-3.1054,-3.1043,-3.0976,-3.0976,-3.0841,-3.0542,-3.02,-2.947,-2.729,-2.3698,0.0,0.0,-2.2897,-2.4875,-2.6285,-2.7043,-2.8363,-2.9024,-2.8925,-2.8398,-2.7846,-2.7293,-2.6967,-2.6584,-2.6139,-2.6114,-2.5818,-2.5145,-2.4099,-2.3039,0.0,0.0,0.0,0.0,0.0,0.0,0.0,0.0,0.0,0.0,0.0,-2.1269,-2.032,0.0,0.0,0.0,-2.1406,-2.1455,-2.1494,-2.1982,0.0,0.0,0.0,0.0,0.0,0.0,0.0,-2.632,-2.7505,-2.8437,-2.8732,-2.8094,-2.8132,-2.9657,-2.954,-2.9194,-2.908,0.0,-3.0205,-3.0092,-2.9898,-2.9728,-2.9667,-2.9294,-2.9205,-2.9813,-3.0954,-3.1952,-3.2757,-3.4109,-3.508,-3.5204,-3.6006,-3.6477,-3.5797,-3.4332,-3.3457,-3.397,-3.4394,-3.479,-3.5064,-3.5401,-3.5462,-3.5938,-3.5194,-3.2319,-3.1477,-3.1886,-3.1302,-3.1678,-3.2658,-3.2658,-3.2977,-3.3325,-3.1584,-3.0739,-3.0563,-2.8857,0.0,-3.0675,-3.0675,-3.1185,-3.2176,-3.2008,-3.1811,-3.1678,-3.164,-3.164,-3.164,-3.1142,-3.0911,-3.0911,-3.0025,-2.9294,-2.8552,-2.8139,-2.7265,-2.6117,-2.8011,-2.8825,-2.8274,-2.9736,-3.0059,-2.9126,-2.8596,-2.8041,-2.7511,-2.7435,-2.7341,-2.7255,-2.7297,-2.7236,-2.7019,-2.5694,-2.4603,-2.3795,0.0,0.0,0.0,0.0,0.0,0.0,0.0,0.0,0.0,0.0,0.0,0.0,0.0,0.0,0.0,-2.2702,0.0,-2.2816,-2.3364,0.0,0.0,0.0,-2.6136,-2.807,-2.8326,-2.8567,-2.8983,0.0,0.0,-2.8968,-2.8855,-2.9921,-3.2917,-3.3073,-3.2523,-3.1593,-3.1034,-3.05,-2.9505,-2.8966,-2.8711,-2.9163,-3.0001,-3.1256,-3.2485,-3.3451,-3.3887,-3.409,-3.4984,-3.5849,-3.5976,-3.6507,-3.6843,-3.6188,-3.6004,-3.6191,-3.6353,-3.6353,-3.6353,-3.6384,-3.6259,-3.6197,-3.5938,-3.5369,-3.4612,-3.4089,-3.3703,-3.3623,-3.3674,-3.3964,-3.3964,-3.379,-3.3507,-3.2977,-3.2774,-3.2745,-3.2309,-3.26,-3.3434,-3.3434,-3.3607,-3.383,-3.3493,-3.3425,-3.3493,-3.3083,-3.2945,-3.3111,-3.2807,-3.2668,-3.2668,-3.2458,-3.1612,-3.0159,-3.0422,-2.9215,-2.6585,-2.7273,-2.8026,-2.8701,-2.9434,-3.0151,-3.0834,-3.0382,-2.9731,-2.9039,-2.8759,-2.8328,-2.7656,-2.7762,-2.7759,-2.7678,-2.6776,-2.5785,-2.469,-2.2832,0.0,0.0,0.0,0.0,0.0,0.0,0.0,0.0,0.0,-2.2629,-2.1227,0.0,-2.3363,0.0,-2.3775,-2.5056,-2.6081,-2.6426,0.0,0.0,-2.778,-2.8162,-2.9032,-3.0129,-3.0397,-2.9241,-3.0017,-3.0585,-3.0553,-3.0585,-3.126,-3.3002,-3.1204,-2.9485,-2.914,-3.0097,-3.0687,-3.0453,-3.1302,-3.2111,-3.2227,-3.3025,-3.3694,-3.4177,-3.4706,-3.5204,-3.5752,-3.6006,-3.6258,-3.6754,-3.6907,-3.6937,-3.6781,-3.675,-3.6812,-3.6815,-3.6321,-3.6013,-3.6415,-3.6414,-3.6414,-3.678,-3.6228,-3.6228,-3.5601,-3.4601,-3.4467,-3.4399,-3.4399,-3.4399,-3.4225,-3.3877,-3.3906,-3.3877,-3.3877,-3.3877,-3.408,-3.4399,-3.4399,-3.4332,-3.4264,-3.4088,-3.402,-3.402,-3.3744,-3.3605,-3.3744,-3.3536,-3.3466,-3.3396,-3.3326,-3.2751,-3.1806,-3.215,-3.1132,-2.8848,-2.8356,-2.8383,-2.8705,-2.9247,-3.0156,-3.1462,-3.1196,-3.0299,-2.886,-2.889,-2.8332,-2.7033,-2.7042,-2.7189,-2.7345,-2.6459,-2.5633,-2.498,-2.3356,-2.2119,0.0,0.0,0.0,0.0,0.0,0.0,0.0,0.0,0.0,0.0,0.0,-2.4917,-2.4435,-2.5763,-2.696,-2.7581,-2.8006,-2.8557,-2.9519,-2.9721,-3.0191,-3.1125,-3.1916,-3.2112,-3.1293,-3.1754,-3.2151,-3.2179,-3.2151,-3.2387,-3.3185,-3.1792,-3.0614,-3.0608,-3.1358,-3.1847,-3.1875,-3.2651,-3.3437,-3.3825,-3.4476,-3.4942,-3.5037,-3.5464,-3.5976,-3.6383,-3.6631,-3.6907,-3.727,-3.7301,-3.7241,-3.7241,-3.7241,-3.7181,-3.7058,-3.6716,-3.6442,-3.6538,-3.6538,-3.6507,-3.7854,-3.7302,-3.7302,-3.6428,-3.5037,-3.4797,-3.4428,-3.4118,-3.4031,-3.4089,-3.4167,-3.4341,-3.4399,-3.4399,-3.4399,-3.4399,-3.4399,-3.4399,-3.4264,-3.4128,-3.4128,-3.4059,-3.3951,-3.3882,-3.3882,-3.3882,-3.376,-3.3649,-3.3718,-3.3593,-3.3466,-3.3326,-3.3241,-3.2595,-3.1359,-3.0079,-2.9149,-2.861,-2.9361,-3.029,-3.1395,-3.1288,-3.0218,-2.8079,-2.8558,-2.8002,-2.6311,-2.6202,-2.6406,-2.6722,-2.5795,-2.5205,-2.5149,-2.3773,-2.2989,0.0,-2.216,0.0,0.0,0.0,0.0,0.0,0.0,0.0,0.0,-2.6726,-2.6924,-2.7263,-2.8194,-2.8684,-2.8677,-2.9256,-3.0134,-3.1329,-3.1495,-3.2119,-3.3378,-3.3466,-3.3536,-3.3882,-3.3536,-3.3396,-3.3451,-3.3466,-3.3297,-3.3297,-3.3185,-3.3016,-3.3326,-3.3241,-3.3185,-3.3326,-3.3368,-3.3756,-3.4476,-3.5109,-3.5529,-3.5593,-3.6039,-3.6507,-3.6445,-3.7029,-3.748,-3.748,-3.748,-3.748,-3.748,-3.748,-3.748,-3.727,-3.7147,-3.7027,-3.6815,-3.66,-3.6538,-3.7854,-3.7302,-3.7302,-3.678,-3.6008,-3.5938,-3.466,-3.2579,-3.2016,-3.2247,-3.3112,-3.4002,-3.4399,-3.4399,-3.4399,-3.4399,-3.4399,-3.4399,-3.4399,-3.4332,-3.4196,-3.4196,-3.4293,-3.3882,-3.3813,-3.402,-3.4087,-3.4128,-3.437,-3.4707,-3.4309,-3.3354,-3.282,-3.1949,-3.074,0.0,0.0,0.0,-3.0498,-3.1154,-3.1184,-3.0405,-2.9398,-2.8208,-2.854,0.0,-2.7298,-2.7332,-2.7283,-2.6835,-2.6582,0.0,0.0,0.0,0.0,0.0,0.0,0.0,0.0,0.0,0.0,0.0,-2.7623,-2.742,-2.736,-2.7847,-2.8656,-2.9968,-3.0306,-3.0956,-3.215,-3.2443,-3.2602,-3.2873,-3.3203,-3.3414,-3.3577,-3.3785,-3.3922,-3.3882,-3.3675,-3.3536,-3.3703,-3.3396,-3.3326,-3.3424,-3.3326,-3.3522,-3.3972,-3.3635,-3.3326,-3.3326,-3.3894,-3.461,-3.5335,-3.6006,-3.6258,-3.607,-3.6631,-3.7089,-3.6785,-3.7089,-3.748,-3.748,-3.748,-3.748,-3.748,-3.748,-3.748,-3.748,-3.7329,-3.715,-3.6999,-3.6785,-3.6662,-3.8028,0.0,-3.7767,-3.7259,0.0,-3.6207,-3.4949,-3.3206,-3.3574,-3.3849,-3.4068,-3.4254,-3.4399,-3.437,-3.3761,-3.347,-3.347,-3.3216,-3.3216,-3.3499,-3.3761,-3.408,-3.4428,-3.4473,-3.4548,-3.4577,-3.4825,-3.4893,-3.4921,-3.5085,-3.4843,-3.4225,-3.3916,-3.3466,-3.2792,-3.2134,-3.1282,-3.0322,-3.1338,-3.2094,-3.2625,-3.2511,-3.1685,-3.0341,-3.0451,0.0,0.0,0.0,0.0,0.0,0.0,0.0,0.0,0.0,0.0,-2.7542,-2.7258,-2.7541,-2.8422,-2.8763,-2.9391,-3.0296,-3.0573,-3.0267,-2.9166,-3.0159,-3.1204,-3.2009,-3.2309,-3.2873,-3.3663,-3.4056,-3.4112,-3.3831,-3.3917,-3.3974,-3.3801,-3.3813,-3.4059,-3.4428,-3.4524,-3.4658,-3.5107,-3.5125,-3.4946,-3.4755,-3.4421,-3.4256,-3.4413,-3.3903,-3.3466,-3.3605,-3.4505,-3.527,-3.5688,-3.6507,-3.7029,-3.6815,-3.715,-3.7361,-3.715,-3.727,-3.748,-3.748,-3.748,-3.748,-3.748,-3.748,-3.748,-3.748,-3.7389,-3.7329,-3.7241,-3.706,-3.6846,-3.8463,-3.8376,-3.8376,-3.7886,-3.6992,-3.6465,-3.5683,-3.4876,0.0,0.0,0.0,-3.4864,-3.4748,-3.4661,-3.3645,-3.318,-3.3151,-3.2757,-3.2786,-3.3209,-3.3835,-3.4359,-3.4777,-3.527,-3.5462,-3.5309,-3.5669,-3.5736,-3.5617,-3.5582,-3.5461,-3.5536,-3.5377,-3.5339,-3.5198,-3.4646,-3.3564,-3.1969,-3.2081,-3.2765,-3.3816,-3.4309,-3.3803,-3.219,-3.223,-3.1752,-3.074,-3.0207,-3.0178,-3.0656,-3.0207,-2.982,-2.9549,-2.9549,-2.9351,-2.9075,-2.9018,-2.9412,-3.0334,-3.087,-3.1594,-3.2651,-3.3185,-3.2792,-3.1265,-3.2495,-3.3382,-3.3466,-3.3944,-3.4253,-3.4393,-3.4916,-3.5029,-3.4522,-3.4466,-3.4484,-3.4241,-3.4266,-3.4669,-3.5251,-3.5527,-3.5889,-3.6365,-3.6507,-3.6575,-3.6104,-3.5404,-3.5264,-3.5136,-3.4526,-3.4171,-3.4629,-3.554,-3.6049,-3.6377,-3.7157,-3.7733,-3.7452,-3.7575,-3.7607,-3.7512,-3.748,-3.748,-3.748,-3.748,-3.748,-3.748,-3.748,-3.748,-3.748,-3.748,-3.748,-3.748,-3.7301,-3.7121,-3.9509,-3.9073,-3.9073,-3.8638,-3.8015,-3.7928,-3.7783,-3.7434,-3.5642,-3.4806,-3.4777,-3.5659,-3.6054,-3.6025,-3.5851,-3.5764,-3.5764,-3.5677,-3.5706,-3.5793,-3.588,-3.5938,-3.6054,-3.597,-3.6028,-3.6157,-3.6225,-3.639,-3.6522,-3.6702,-3.6726,-3.6641,-3.6192,-3.5761,-3.5254,-3.5142,-3.4899,-3.4618,-3.3157,-3.2414,-3.2444,-3.2162,-3.1825,-3.1383,-3.1601,-3.1555,-3.1359,-3.1302,-3.1274,-3.1359,-3.1274,-3.1415,-3.1864,-3.1931,-3.2061,-3.2483,-3.2539,-3.2623,-3.2764,-3.2904,-3.3241,-3.3888,-3.4056,-3.3747,-3.3016,-3.3157,-3.3522,-3.4056,-3.4225,-3.445,-3.4955,-3.5345,-3.5475,-3.5334,-3.5596,-3.5683,-3.5468,-3.6008,-3.6358,-3.6008,-3.6365,-3.6523,-3.6353,-3.6215,-3.6158,-3.5697,-3.5741,-3.5669,-3.5999,-3.5583,-3.5569,-3.6497,-3.6977,-3.737,-3.784,-3.8654,-3.8649,-3.7638,-3.8017,-3.8175,-3.7638,-3.7575,-3.7543,-3.748,-3.748,-3.748,-3.748,-3.748,-3.748,-3.748,-3.748,-3.748,-3.748,-3.7421,-3.7329,-3.9944,-3.9712,-3.9683,-3.9334,-3.8725,-3.8347,-3.8202,-3.8115,-3.7056,-3.6328,-3.6067,-3.6228,-3.6286,-3.6257,-3.559,-3.527,-3.527,-3.4961,-3.499,-3.527,-3.5718,-3.6067,-3.6315,-3.6592,-3.6693,-3.6678,-3.7032,-3.7196,-3.7073,-3.7098,-3.7134,-3.6978,-3.6697,-3.6248,-3.5761,-3.5658,-3.5564,-3.5226,-3.4646,-3.4393,-3.4321,-3.445,-3.445,-3.4377,-3.414,-3.414,-3.445,-3.414,-3.414,-3.445,-3.4478,-3.4309,-3.3916,-3.3888,-3.3719,-3.3354,-3.3326,-3.3326,-3.3326,-3.3635,-3.4084,-3.4674,-3.4731,-3.4618,-3.4337,-3.4309,-3.4421,-3.4731,-3.5012,-3.5423,-3.578,-3.624,-3.64,-3.6134,-3.6327,-3.6403,-3.6344,-3.6357,-3.6641,-3.699,-3.7246,-3.7482,-3.7564,-3.7777,-3.7664,-3.7184,-3.6736,-3.6591,-3.6838,-3.6585,-3.6675,-3.7524,-3.7886,-3.8192,-3.8621,-3.9094,-3.9187,-3.8618,-3.8839,-3.8744,-3.8175,-3.8049,-3.7891,-3.7543,-3.748,-3.748,-3.748,-3.748,-3.748,-3.748,-3.748,-3.748,-3.748,-3.748,-3.748,-4.0466,-4.0321,-4.0321,-3.9973,-3.9363,-3.8841,-3.8638,-3.8638,-3.8492,-3.8173,-3.768,-3.7041,-3.6722,-3.6635,-3.5706,-3.527,-3.5183,-3.4884,-3.4942,-3.527,-3.5933,-3.6428,-3.6751,-3.7273,-3.7432,-3.7341,-3.7699,-3.7701,-3.7471,-3.7394,-3.7211,-3.6978,-3.6978,-3.6754,-3.6276,-3.6276,-3.6023,-3.563,-3.6023,-3.622,-3.6079,-3.6669,-3.6978,-3.695,-3.6529,-3.6501,-3.6922,-3.6529,-3.6501,-3.695,-3.6978,-3.6473,-3.5461,-3.5423,-3.4871,-3.3888,-3.3747,-3.3747,-3.3747,-3.4169,-3.4702,-3.5321,-3.5423,-3.5405,-3.562,-3.5648,-3.5564,-3.5508,-3.5845,-3.6231,-3.6609,-3.7053,-3.7348,-3.7043,-3.706,-3.7082,-3.7054,-3.6866,-3.6937,-3.7814,-3.805,-3.8377,-3.8721,-3.9193,-3.9182,-3.8549,-3.803,-3.7594,-3.7579,-3.7808,-3.8091,-3.8461,-3.8775,-3.8877,-3.9048,-3.9626,-3.9787,-3.9629,-3.9629,-3.9408,-3.8965,-3.8744,-3.8586,-3.8112,-3.7828,-3.7796,-3.7733,-3.7575,-3.7512,-3.748,-3.748,-3.748,-3.748,-3.748,-3.748,-4.1541,-4.1047,-4.1018,-4.0612,-4.0031,-3.9915,-3.9857,-3.9799,-3.9363,-3.9102,-3.8928,-3.8347,-3.8028,-3.8028,-3.7854,-3.7767,-3.7796,-3.7767,-3.7738,-3.7796,-3.7912,-3.797,-3.8028,-3.8115,-3.8115,-3.8069,-3.8034,-3.7968,-3.7892,-3.75,-3.724,-3.6978,-3.6978,-3.695,-3.6894,-3.6894,-3.6866,-3.681,-3.6866,-3.6613,-3.6136,-3.6669,-3.6978,-3.6978,-3.6922,-3.6922,-3.6978,-3.6922,-3.6922,-3.6978,-3.6978,-3.6669,-3.6079,-3.6043,-3.5686,-3.5085,-3.4955,-3.5057,-3.4983,-3.5113,-3.5349,-3.5911,-3.5995,-3.6192,-3.6697,-3.6782,-3.6557,-3.624,-3.6278,-3.6637,-3.7119,-3.7596,-3.7825,-3.771,-3.7832,-3.8011,-3.7895,-3.8399,-3.862,-3.7907,-3.8517,-3.8782,-3.8429,-3.8811,-3.9205,-3.9242,-3.8852,-3.8736,-3.8996,-3.9301,-3.9748,-4.0056,-3.9817,-3.9443,-3.9653,-4.0661,-4.0671,-3.9914,-4.0103,-4.0072,-3.9692,-3.9408,-3.9345,-3.8965,-3.8744,-3.8428,-3.827,-3.7986,-3.7575,-3.7733,-3.7701,-3.7512,-3.748,-3.748,-3.748,-4.1947,-4.1686,-4.1686,-4.1308,-4.067,-4.0263,-4.0089,-4.006,-3.9857,-3.9741,-3.9712,-3.945,-3.9131,-3.8812,-3.8783,-3.8986,-3.9276,-3.8957,-3.8986,-3.9247,-3.8957,-3.8957,-3.9305,-3.9305,-3.9305,-3.9334,-3.9257,-3.9131,-3.8917,-3.8289,-3.7685,-3.719,-3.7056,-3.6978,-3.6978,-3.6978,-3.6978,-3.6978,-3.6978,-3.6866,-3.6669,-3.6838,-3.6978,-3.6978,-3.6978,-3.6978,-3.6978,-3.6978,-3.6978,-3.6978,-3.6978,-3.6697,-3.6107,-3.6079,-3.5798,-3.5208,-3.5226,-3.5395,-3.5733,-3.5761,-3.6043,-3.6557,-3.6613,-3.6726,-3.695,-3.7134,-3.7021,-3.69,-3.6844,-3.711,-3.7567,-3.7777,-3.7929,-3.8052,-3.8127,-3.8277,-3.8604,-3.8575,-3.8501,-3.8604,-3.8575,-3.8501,-3.8277,-3.8277,-3.8575,-3.8914,-3.887,-3.8943,-3.9493,-3.9606,-3.9889,-4.0378,-4.0278,-4.0217,-4.0411,-4.1006,-4.1075,-4.0661,-4.0792,-4.0925,-4.0356,-4.0166,-4.004,-3.9629,-3.9313,-3.9123,-3.9092,-3.8965,-3.8681,-3.8586,-3.8207,-3.7986,-3.7575,-3.748,-3.748,-4.2353,-4.2324,-4.2179,-4.1802,-4.1337,-4.0844,-4.0641,-4.0612,-4.0466,-4.035,-4.035,-4.0205,-3.9973,-3.9712,-3.9538,-3.9712,-4.0002,-3.9625,-3.9683,-4.0031,-3.9654,-3.9683,-4.006,-4.0089,-4.0089,-4.0089,-4.006,-4.001,-3.9773,-3.9082,-3.8439,-3.7884,-3.772,-3.7642,-3.7512,-3.7563,-3.7479,-3.7259,-3.7231,-3.7175,-3.7007,-3.6978,-3.6978,-3.6978,-3.6978,-3.6978,-3.6978,-3.6978,-3.6978,-3.6978,-3.6978,-3.6697,-3.6136,-3.622,-3.6183,-3.5864,-3.5808,-3.608,-3.6533,-3.6485,-3.6654,-3.7078,-3.7134,-3.7134,-3.7134,-3.7289,-3.7394,-3.7443,-3.7471,-3.7596,-3.7853,-3.7929,-3.8052,-3.8202,-3.8202,-3.8427,-3.8723,-3.8427,-3.8352,-3.8723,-3.8427,-3.8277,-3.8427,-3.8501,-3.8767,-3.9133,-3.906,-3.8943,-3.9493,-3.9565,-3.9809,-4.0593,-4.1,-4.1075,-4.095,-4.1225,-4.1323,-4.1256,-4.1327,-4.1367,-4.0956,-4.0893,-4.083,-4.0514,-4.0072,-3.9787,-3.9756,-3.9724,-3.9628,-3.9564,-3.9247,-3.8676,-3.8166,-3.8007,-3.7848,-4.2963,-4.2876,-4.2353,-4.2121,-4.2034,-4.2005,-4.1976,-4.1831,-4.1308,-4.1047,-4.096,-4.0437,-4.0437,-4.0931,-4.0379,-4.0089,-4.0147,-4.0089,-4.0118,-4.0205,-4.0118,-4.0089,-4.0089,-4.0089,-4.0147,-4.0292,-4.0292,-4.0155,-3.9859,-3.9722,-3.9533,-3.9074,-3.915,-3.9126,-3.8855,-3.8908,-3.871,-3.7986,-3.7878,-3.7625,-3.7119,-3.7035,-3.7063,-3.7091,-3.7007,-3.7035,-3.7063,-3.7007,-3.7035,-3.7007,-3.7063,-3.6782,-3.6248,-3.6669,-3.7106,-3.7232,-3.7386,-3.7462,-3.7519,-3.7394,-3.7423,-3.7528,-3.7536,-3.7423,-3.7719,-3.7719,-3.7825,-3.7911,-3.8026,-3.7997,-3.7987,-3.8081,-3.8127,-3.8202,-3.8202,-3.8202,-3.8277,-3.8277,-3.8202,-3.8277,-3.8352,-3.8427,-3.8943,-3.9493,-3.9666,-3.995,-4.0161,-4.0252,-4.0001,-3.997,-4.0466,-4.1388,-4.1959,-4.2009,-4.1278,-4.1771,-4.1841,-4.1743,-4.1834,-4.1718,-4.1588,-4.1525,-4.1462,-4.1336,-4.0926,-4.061,-4.0483,-4.0293,-4.0164,-4.0005,-4.0005,-3.9527,-3.8982,-3.8914,-3.8786,-4.3631,-4.3631,-4.3398,-4.3079,-4.2673,-4.2673,-4.244,-4.2092,-4.186,-4.1744,-4.1715,-4.1453,-4.1512,-4.1715,-4.1482,-4.1366,-4.1337,-4.096,-4.096,-4.1279,-4.0931,-4.096,-4.1366,-4.1366,-4.1395,-4.1366,-4.1366,-4.1163,-4.0625,-4.0516,-4.0124,-3.9619,-3.9482,-3.9401,-3.9268,-3.9187,-3.8993,-3.8795,-3.8605,-3.8412,-3.8187,-3.8187,-3.8187,-3.8159,-3.7793,-3.7765,-3.8159,-3.8187,-3.8187,-3.8187,-3.8187,-3.8154,-3.8173,-3.8445,-3.8638,-3.8717,-3.8796,-3.8825,-3.8825,-3.8717,-3.8717,-3.8825,-3.8717,-3.8688,-3.8825,-3.8903,-3.9061,-3.911,-3.9266,-3.9122,-3.8764,-3.8388,-3.8202,-3.8202,-3.8202,-3.8231,-3.8202,-3.8202,-3.8202,-3.8277,-3.8546,-3.8914,-3.8988,-3.9636,-4.0016,-3.9469,-3.9884,-4.0485,-4.0984,-4.1194,-4.179,-4.3142,-4.3703,-4.3639,-4.3349,-4.3285,-4.3253,-4.2893,-4.273,-4.2677,-4.2616,-4.2234,-4.2075,-4.1914,-4.1596,-4.1533,-4.1374,-4.1279,-4.0991,-4.0734,-4.0639,-4.0384,-3.9806,-3.977,-3.961,-4.4153,-4.4008,-4.4008,-4.3747,-4.334,-4.3311,-4.3079,-4.2702,-4.2498,-4.2382,-4.2353,-4.2179,-4.2092,-4.2092,-4.2092,-4.2092,-4.2063,-4.1628,-4.1657,-4.2034,-4.1628,-4.1657,-4.2005,-4.2092,-4.2092,-4.2092,-4.2092,-4.186,-4.1482,-4.1261,-4.092,-4.0464,-4.0354,-4.0273,-4.011,-4.0028,-3.989,-3.9555,-3.9335,-3.9168,-3.8999,-3.8889,-3.8974,-3.9058,-3.8749,-3.8608,-3.8889,-3.8943,-3.9024,-3.9024,-3.9024,-3.9187,-3.9268,-3.951,-3.9562,-3.9642,-3.9613,-3.9722,-3.9722,-3.9642,-3.9642,-3.9722,-3.9642,-3.9642,-3.9722,-3.9801,-3.9881,-3.996,-4.0039,-3.9915,-3.9538,-3.9073,-3.8667,-3.8376,-3.8376,-3.8522,-3.8522,-3.8522,-3.8551,-3.8597,-3.8767,-3.8885,-3.9047,-3.9921,-4.0141,-3.9563,-4.0321,-4.134,-4.2014,-4.2396,-4.2962,-4.4449,-4.4609,-4.4837,-4.4969,-4.5098,-4.4385,-4.3958,-4.36,-4.3547,-4.3488,-4.3039,-4.2686,-4.2493,-4.2397,-4.2301,-4.2237,-4.2173,-4.1949,-4.1628,-4.1499,-4.1307,-4.0919,-4.0659,-4.0466,-4.456,-4.4153,-4.4008,-4.4066,-4.3979,-4.3979,-4.3979,-4.3747,-4.3253,-4.3021,-4.2934,-4.244,-4.2208,-4.215,-4.2121,-4.2092,-4.2063,-4.2005,-4.2005,-4.2063,-4.2034,-4.2034,-4.2092,-4.2092,-4.2092,-4.2092,-4.2092,-4.2092,-4.2005,-4.2005,-4.1864,-4.1728,-4.1724,-4.1583,-4.1339,-4.1334,-4.105,-4.0347,-4.0122,-3.9756,-3.9056,-3.9112,-3.9365,-3.9704,-3.9732,-3.9562,-3.9084,-3.9219,-3.9357,-3.9329,-3.9463,-3.951,-3.9653,-3.9894,-3.9888,-3.9974,-4.0047,-4.0176,-4.0126,-4.0054,-4.0112,-4.0191,-3.9996,-4.0112,-4.03,-4.0242,-4.0321,-4.035,-4.0321,-4.0176,-4.0147,-4.006,-3.9596,-3.8551,-3.887,-3.9189,-3.9189,-3.9218,-3.9218,-3.9266,-3.9174,-3.8986,-3.9547,-4.0666,-4.1243,-4.1328,-4.1965,-4.2726,-4.3185,-4.3325,-4.3749,-4.4744,-4.5277,-4.5612,-4.627,-4.6763,-4.5749,-4.487,-4.4545,-4.4388,-4.4391,-4.4069,-4.3684,-4.3491,-4.3394,-4.3298,-4.3138,-4.3041,-4.2784,-4.2525,-4.2429,-4.2203,-4.1752,-4.1426,-4.1261,-4.5459,-4.5314,-4.5285,-4.5024,-4.4647,-4.4618,-4.4385,-4.3979,-4.3747,-4.3689,-4.3573,-4.2992,-4.2702,-4.2615,-4.2295,-4.2092,-4.2092,-4.2092,-4.2092,-4.2121,-4.2092,-4.2092,-4.2121,-4.2092,-4.2092,-4.2092,-4.2092,-4.2092,-4.2121,-4.2121,-4.2092,-4.198,-4.2092,-4.2009,-4.1872,-4.1785,-4.1475,-4.1277,-4.1081,-4.0716,-4.0378,-4.035,-4.0379,-4.0378,-4.0548,-4.052,-4.0378,-4.0434,-4.0546,-4.0713,-4.0796,-4.0879,-4.1015,-4.1208,-4.1401,-4.1401,-4.1401,-4.1453,-4.1453,-4.1372,-4.1343,-4.1453,-4.1372,-4.1401,-4.1482,-4.1424,-4.1424,-4.1453,-4.1453,-4.1337,-4.0902,-4.0786,-4.0437,-3.9596,-3.9683,-3.9828,-3.9886,-4.0042,-4.0246,-4.0567,-4.1074,-4.1683,-4.2316,-4.3031,-4.331,-4.2983,-4.3428,-4.3872,-4.426,-4.4369,-4.4935,-4.603,-4.6228,-4.6228,-4.6662,-4.6892,-4.6403,-4.5749,-4.5491,-4.523,-4.5233,-4.5072,-4.4685,-4.4363,-4.4266,-4.4073,-4.3945,-4.3751,-4.3525,-4.3396,-4.3266,-4.2878,-4.2488,-4.2197,-4.2096,-4.5956,-4.5895,-4.5895,-4.5663,-4.5285,-4.5256,-4.5053,-4.4676,-4.4414,-4.4327,-4.4211,-4.366,-4.3369,-4.3282,-4.2963,-4.2818,-4.2818,-4.2789,-4.2789,-4.2673,-4.2237,-4.2208,-4.244,-4.2702,-4.2789,-4.2731,-4.2528,-4.2557,-4.2789,-4.2557,-4.244,-4.244,-4.2673,-4.2673,-4.2469,-4.2215,-4.2132,-4.2048,-4.1678,-4.1367,-4.117,-4.1254,-4.117,-4.1114,-4.1254,-4.1339,-4.1339,-4.1339,-4.1451,-4.1564,-4.1564,-4.1731,-4.1897,-4.198,-4.2092,-4.2092,-4.2092,-4.2063,-4.2092,-4.2005,-4.2092,-4.2092,-4.2092,-4.2063,-4.2092,-4.2092,-4.2092,-4.2092,-4.2266,-4.2179,-4.1628,-4.1715,-4.157,-4.125,-4.0728,-4.0612,-4.0757,-4.1084,-4.1405,-4.1895,-4.2426,-4.306,-4.3765,-4.4494,-4.4861,-4.4452,-4.482,-4.5254,-4.5547,-4.5629,-4.626,-4.6694,-4.6694,-4.6726,-4.6828,-4.6892,-4.6892,-4.6666,-4.6371,-4.6209,-4.6112,-4.5982,-4.5691,-4.5142,-4.4883,-4.4592,-4.4366,-4.4496,-4.4399,-4.4204,-4.401,-4.3654,-4.3298,-4.3167,-4.31,-4.6164,-4.5985,-4.5985,-4.5956,-4.5927,-4.5898,-4.5779,-4.5721,-4.5227,-4.4937,-4.4821,-4.4298,-4.4037,-4.4037,-4.3834,-4.3776,-4.395,-4.3834,-4.3805,-4.3544,-4.2934,-4.2615,-4.3079,-4.3544,-4.3747,-4.3718,-4.3311,-4.3369,-4.3718,-4.3282,-4.305,-4.3108,-4.3544,-4.366,-4.3166,-4.305,-4.2994,-4.2738,-4.2105,-4.1762,-4.1566,-4.1619,-4.176,-4.1789,-4.1955,-4.215,-4.2096,-4.2009,-4.1868,-4.1785,-4.1897,-4.2009,-4.2092,-4.2092,-4.2092,-4.2092,-4.2092,-4.2092,-4.2092,-4.2092,-4.2092,-4.2092,-4.2092,-4.215,-4.2208,-4.2266,-4.2324,-4.244,-4.2789,-4.2789,-4.2382,-4.2698,-4.296,-4.296,-4.2146,-4.1826,-4.2175,-4.2427,-4.2802,-4.3265,-4.3196,-4.3294,-4.4363,-4.5042,-4.5248,-4.5428,-4.615,-4.6502,-4.6404,-4.632,-4.6759,-4.6892,-4.6892,-4.6892,-4.6892,-4.6892,-4.6892,-4.6828,-4.6698,-4.6698,-4.6666,-4.6536,-4.6471,-4.5921,-4.55,-4.5144,-4.5079,-4.534,-4.5242,-4.4983,-4.4723,-4.4399,-4.4205,-4.4106,-4.4008,-4.6933,-4.6432,-4.6403,-4.6314,-4.6135,-4.6135,-4.6046,-4.5866,-4.5692,-4.5665,-4.5459,-4.4937,-4.4647,-4.4618,-4.4211,-4.4008,-4.4066,-4.4037,-4.4008,-4.395,-4.3718,-4.3573,-4.3689,-4.3892,-4.4037,-4.4008,-4.3863,-4.3834,-4.3979,-4.3834,-4.3718,-4.3747,-4.395,-4.395,-4.3747,-4.3718,-4.3718,-4.3574,-4.2994,-4.2647,-4.2505,-4.2129,-4.2212,-4.2618,-4.2869,-4.2982,-4.3036,-4.2679,-4.2392,-4.198,-4.2092,-4.2092,-4.2092,-4.2092,-4.2092,-4.2092,-4.2121,-4.2121,-4.2121,-4.215,-4.2121,-4.2092,-4.2208,-4.2295,-4.2731,-4.276,-4.2992,-4.334,-4.366,-4.3542,-4.319,-4.3595,-4.4001,-4.42,-4.3705,-4.3504,-4.3793,-4.3994,-4.4284,-4.4814,-4.4955,-4.5501,-4.6244,-4.6568,-4.6567,-4.6532,-4.6768,-4.6971,-4.6742,-4.6711,-4.6915,-4.6925,-4.6892,-4.6892,-4.6892,-4.6892,-4.6892,-4.6892,-4.6828,-4.6828,-4.6795,-4.6763,-4.673,-4.6568,-4.6377,-4.6053,-4.6248,-4.6575,-4.6218,-4.5797,-4.5636,-4.5473,-4.5114,-4.4918,-4.4853,-4.7436,-4.6963,-4.6727,-4.6491,-4.6403,-4.6403,-4.6314,-4.6254,-4.6135,-4.6164,-4.6048,-4.5844,-4.5639,-4.5522,-4.5113,-4.4967,-4.4938,-4.4851,-4.4792,-4.4821,-4.4792,-4.4647,-4.4501,-4.4589,-4.4792,-4.4734,-4.4501,-4.456,-4.4705,-4.4618,-4.4559,-4.4618,-4.4909,-4.4909,-4.4732,-4.4617,-4.4617,-4.4586,-4.4089,-4.3738,-4.3679,-4.347,-4.347,-4.3847,-4.4044,-4.4157,-4.4015,-4.372,-4.3254,-4.2567,-4.231,-4.231,-4.231,-4.231,-4.231,-4.231,-4.249,-4.2665,-4.2611,-4.2869,-4.3044,-4.3044,-4.3128,-4.3387,-4.3679,-4.3767,-4.4001,-4.4206,-4.4528,-4.4352,-4.4115,-4.4494,-4.4902,-4.5217,-4.5302,-4.5272,-4.5132,-4.5102,-4.5513,-4.5957,-4.631,-4.6745,-4.7904,-4.7873,-4.7711,-4.7605,-4.7788,-4.751,-4.7088,-4.7037,-4.7071,-4.7179,-4.7022,-4.6957,-4.6892,-4.6892,-4.6892,-4.6892,-4.6892,-4.6892,-4.6892,-4.6892,-4.686,-4.6929,-4.6961,-4.703,-4.7098,-4.7167,-4.7006,-4.6714,-4.6651,-4.6454,-4.6127,-4.5831,-4.5766,-4.803,-4.7703,-4.7022,-4.6756,-4.6697,-4.6697,-4.6668,-4.6609,-4.6609,-4.658,-4.658,-4.658,-4.6403,-4.658,-4.6108,-4.6137,-4.6137,-4.5931,-4.5929,-4.59,-4.5842,-4.5638,-4.5259,-4.552,-4.5723,-4.5812,-4.5316,-4.5403,-4.5638,-4.5552,-4.5464,-4.5551,-4.6167,-4.6226,-4.5726,-4.5695,-4.5666,-4.5577,-4.4991,-4.4781,-4.4722,-4.4714,-4.4768,-4.503,-4.5144,-4.5227,-4.506,-4.4798,-4.4157,-4.3035,-4.2895,-4.3042,-4.2983,-4.2953,-4.2953,-4.3019,-4.3294,-4.3445,-4.3504,-4.3884,-4.4206,-4.4232,-4.4461,-4.4722,-4.4722,-4.4667,-4.4785,-4.502,-4.54,-4.54,-4.5135,-4.5457,-4.572,-4.6096,-4.6551,-4.6406,-4.6007,-4.5892,-4.6185,-4.6694,-4.6783,-4.7246,-4.7934,-4.846,-4.8624,-4.7707,-4.8028,-4.8187,-4.7797,-4.7709,-4.7709,-4.7729,-4.7475,-4.7022,-4.6957,-4.6892,-4.6892,-4.6892,-4.6892,-4.6892,-4.6892,-4.6892,-4.6892,-4.6961,-4.703,-4.7098,-4.7167,-4.7235,-4.7437,-4.7506,-4.7309,-4.7342,-4.7309,-4.6979,-4.6814,-4.9374,-4.8325,-4.8205,-4.767,-4.6991,-4.7048,-4.7048,-4.6873,-4.6844,-4.6931,-4.6844,-4.6668,-4.6609,-4.6609,-4.658,-4.6491,-4.6491,-4.6432,-4.6403,-4.6432,-4.6403,-4.6373,-4.6197,-4.6195,-4.6225,-4.6373,-4.6285,-4.6285,-4.6314,-4.6344,-4.6285,-4.6403,-4.6432,-4.6521,-4.6373,-4.6372,-4.6373,-4.6255,-4.5725,-4.5602,-4.5598,-4.5327,-4.5412,-4.5938,-4.6028,-4.6028,-4.5878,-4.549,-4.4989,-4.478,-4.4472,-4.4305,-4.4187,-4.4216,-4.4187,-4.4216,-4.428,-4.4373,-4.4431,-4.4549,-4.4608,-4.4696,-4.487,-4.487,-4.5341,-4.5486,-4.5666,-4.6019,-4.6285,-4.6284,-4.631,-4.6215,-4.642,-4.6804,-4.7036,-4.7111,-4.6857,-4.629,-4.6214,-4.6436,-4.6506,-4.6569,-4.7448,-4.8187,-4.8214,-4.7824,-4.8105,-4.8663,-4.8647,-4.8413,-4.8417,-4.8408,-4.8058,-4.7702,-4.7475,-4.7443,-4.7443,-4.741,-4.7378,-4.7452,-4.7452,-4.7091,-4.7192,-4.7127,-4.703,-4.7167,-4.7302,-4.7604,-4.7836,-4.7901,-4.79,-4.7933,-4.7965,-4.7799,-4.7668,-5.0276,-4.973,-4.9221,-4.8713,-4.8177,-4.7965,-4.7845,-4.7668,-4.7486,-4.7366,-4.7193,-4.7106,-4.7019,-4.6931,-4.6756,-4.6756,-4.6756,-4.6697,-4.6609,-4.6609,-4.658,-4.6668,-4.6756,-4.658,-4.658,-4.658,-4.658,-4.6609,-4.6609,-4.6697,-4.6726,-4.6756,-4.6873,-4.6961,-4.6961,-4.6961,-4.6931,-4.6901,-4.6634,-4.6513,-4.6539,-4.6301,-4.6181,-4.6711,-4.677,-4.68,-4.6741,-4.6471,-4.6262,-4.6147,-4.5947,-4.5565,-4.509,-4.5,-4.5,-4.5,-4.5187,-4.5276,-4.5335,-4.5572,-4.5779,-4.5691,-4.5836,-4.61,-4.6307,-4.6397,-4.6545,-4.6842,-4.6931,-4.7019,-4.7076,-4.6983,-4.704,-4.7186,-4.7267,-4.7273,-4.7159,-4.6793,-4.6702,-4.7037,-4.7241,-4.7742,-4.8296,-4.8625,-4.8872,-4.892,-4.868,-4.9095,-4.9387,-4.9234,-4.9148,-4.8973,-4.8699,-4.8414,-4.8155,-4.8091,-4.8155,-4.8188,-4.8252,-4.8362,-4.8572,-4.8046,-4.7521,-4.7427,-4.7332,-4.737,-4.7504,-4.7869,-4.8229,-4.8227,-4.8322,-4.842,-4.8483,-4.8356,-4.8161,-5.088,-5.0939,-5.0184,-4.9793,-4.9523,-4.9068,-4.8766,-4.8615,-4.8389,-4.8031,-4.7709,-4.7709,-4.7538,-4.7366,-4.7193,-4.7106,-4.7019,-4.6844,-4.6844,-4.6844,-4.6756,-4.6844,-4.6931,-4.6931,-4.6844,-4.6697,-4.6756,-4.6756,-4.6756,-4.6844,-4.6931,-4.7019,-4.7135,-4.7222,-4.7309,-4.7309,-4.7222,-4.7193,-4.7163,-4.7103,-4.7219,-4.716,-4.7189,-4.7189,-4.7219,-4.7219,-4.7219,-4.716,-4.7219,-4.7309,-4.7309,-4.6681,-4.5963,-4.5603,-4.5603,-4.5663,-4.6062,-4.6185,-4.6304,-4.6545,-4.6899,-4.7019,-4.7076,-4.7249,-4.7249,-4.7133,-4.7133,-4.7163,-4.7222,-4.7222,-4.7309,-4.7392,-4.7422,-4.7392,-4.7334,-4.7363,-4.7293,-4.7293,-4.7558,-4.788,-4.7862,-4.8302,-4.8997,-4.947,-4.9789,-4.9947,-4.971,-4.9567,-4.9914,-5.0077,-5.0005,-4.9839,-4.9531,-4.9115,-4.8855,-4.879,-4.8887,-4.8914,-4.9044,-4.9257,-4.9468,-4.9112,-4.8486,-4.7795,-4.7667,-4.7735,-4.8002,-4.8397,-4.8623,-4.8651,-4.9046,-4.948,-4.9379,-4.8979,-4.8885,-5.1667,-5.097,-5.0997,-5.0484,-4.9732,-4.9904,-4.96,-4.9027,-4.9047,-4.8736,-4.8194,-4.7964,-4.794,-4.7825,-4.788,-4.7794,-4.7714,-4.7572,-4.7426,-4.7309,-4.7252,-4.7282,-4.7312,-4.7461,-4.7342,-4.7222,-4.7225,-4.7285,-4.7195,-4.7222,-4.7402,-4.7282,-4.7369,-4.7369,-4.7309,-4.7309,-4.7309,-4.7309,-4.7309,-4.7309,-4.7309,-4.7309,-4.7309,-4.7309,-4.7309,-4.7309,-4.7309,-4.7309,-4.7309,-4.7309,-4.7309,-4.716,-4.692,-4.686,-4.686,-4.683,-4.6834,-4.6954,-4.7013,-4.7133,-4.7222,-4.7222,-4.7429,-4.7429,-4.7399,-4.7339,-4.7399,-4.7396,-4.7396,-4.7309,-4.7309,-4.7709,-4.7794,-4.7649,-4.7728,-4.7926,-4.764,-4.7762,-4.8244,-4.8671,-4.8592,-4.8686,-4.9552,-5.0104,-5.026,-5.0493,-5.0416,-5.0493,-5.0843,-5.1015,-5.101,-5.0798,-5.0478,-4.9987,-4.9562,-4.9562,-4.9594,-4.9725,-4.9823,-4.9965,-5.0109,-5.005,-4.9587,-4.9192,-4.863,-4.8365,-4.8694,-4.9089,-4.9385,-4.9614,-5.0146,-5.0615,-5.0315,-5.0045,-5.0281,-5.263,-5.244,-5.2321,-5.2048,-5.1444,-5.0931,-5.0567,-5.0262,-5.0069,-4.9549,-4.8974,-4.8736,-4.8651,-4.8566,-4.848,-4.848,-4.848,-4.8222,-4.7955,-4.7688,-4.7782,-4.7875,-4.7965,-4.8117,-4.8297,-4.8327,-4.8327,-4.8175,-4.7908,-4.8207,-4.8087,-4.7878,-4.7818,-4.7638,-4.7369,-4.7309,-4.7339,-4.7339,-4.7339,-4.7309,-4.7309,-4.7309,-4.7309,-4.7309,-4.7309,-4.7309,-4.7309,-4.7309,-4.7309,-4.7309,-4.7309,-4.7309,-4.7399,-4.7578,-4.7668,-4.7399,-4.7339,-4.7339,-4.7429,-4.7578,-4.7818,-4.7878,-4.8057,-4.8297,-4.8207,-4.8057,-4.7872,-4.783,-4.7794,-4.7794,-4.788,-4.8133,-4.8133,-4.7964,-4.8187,-4.8502,-4.8773,-4.884,-4.9174,-4.9546,-4.9693,-4.9929,-5.0454,-5.08,-5.0723,-5.0908,-5.1059,-5.1317,-5.1647,-5.1696,-5.1638,-5.1507,-5.1179,-5.0982,-5.0555,-5.049,-5.0495,-5.0561,-5.0702,-5.0843,-5.1052,-5.109,-5.1094,-5.0994,-5.0324,-4.9558,-4.9624,-5.0123,-5.0385,-5.0582,-5.0851,-5.1119,-5.1119,-5.1217,-5.1386,-5.3258,-5.3434,-5.3258,-5.317,-5.2958,-5.1994,-5.1509,-5.1294,-5.101,-5.0426,-4.9641,-4.961,-4.9524,-4.9438,-4.9352,-4.9352,-4.9352,-4.9092,-4.8645,-4.8347,-4.8501,-4.8653,-4.8892,-4.9163,-4.9551,-4.9695,-4.994,-4.9373,-4.8745,-4.8865,-4.8865,-4.8626,-4.8476,-4.8267,-4.7908,-4.7938,-4.7698,-4.7519,-4.7489,-4.7459,-4.7339,-4.7309,-4.7309,-4.7309,-4.7309,-4.7309,-4.7309,-4.7309,-4.7309,-4.7309,-4.7309,-4.7309,-4.7399,-4.7908,-4.8027,-4.7638,-4.7608,-4.7698,-4.7848,-4.8147,-4.8476,-4.8506,-4.8955,-4.9164,-4.9134,-4.8745,-4.8413,-4.8329,-4.8431,-4.834,-4.8248,-4.8521,-4.8604,-4.8604,-4.8687,-4.9066,-4.9647,-5.0009,-5.0288,-5.0585,-5.0815,-5.1019,-5.1294,-5.1285,-5.121,-5.1285,-5.1466,-5.1614,-5.1868,-5.1941,-5.1948,-5.1948,-5.1882,-5.1849,-5.1684,-5.1586,-5.1559,-5.1493,-5.1706,-5.1918,-5.2127,-5.2232,-5.227,-5.2135,-5.19,-5.1296,-5.1295,-5.106,-5.1225,-5.1423,-5.149,-5.1792,-5.2097,-5.2131,-5.2198,-5.2667,-5.2487,-5.2667,-5.2608,-5.2457,-5.2544,-5.2027,-5.1417,-5.1621,-5.119,-5.0629,-5.0574,-5.066,-5.0574,-5.0605,-5.0519,-5.0401,-5.0197,-4.99,-4.963,-4.9549,-4.9728,-4.9992,-5.011,-5.0677,-5.1117,-5.1692,-5.0835,-4.9942,-4.9644,-4.9374,-4.9254,-4.9224,-4.9134,-4.8953,-4.8835,-4.8745,-4.8267,-4.8177,-4.7908,-4.7519,-4.7429,-4.7429,-4.7429,-4.7429,-4.7489,-4.7519,-4.7575,-4.7486,-4.7456,-4.7396,-4.7309,-4.7399,-4.7938,-4.8207,-4.8356,-4.8656,-4.9045,-4.8925,-4.9045,-4.9134,-4.9164,-4.9344,-4.9284,-4.9494,-4.9434,-4.9132,-4.8325,-4.8814,-4.9028,-4.9026,-4.9403,-4.9501,-4.9582,-4.9693,-4.971,-5.0073,-5.0493,-5.0832,-5.121,-5.1255,-5.1499,-5.1762,-5.1688,-5.1688,-5.1762,-5.1868,-5.1941,-5.2013,-5.2158,-5.223,-5.2158,-5.2158,-5.2158,-5.223,-5.223,-5.2269,-5.2269,-5.2483,-5.2764,-5.2803,-5.284,-5.3146,-5.3045,-5.2842,-5.2438,-5.1932,-5.1796,-5.2031,-5.2266,-5.2401,-5.2807,-5.3281,-5.3179,-5.2875,-5.3521,-5.317,-5.3608,-5.3521,-5.317,-5.3608,-5.3365,-5.2854,-5.3169,-5.3049,-5.2482,-5.2387,-5.2303,-5.2229,-5.2426,-5.234,-5.209,-5.1654,-5.132,-5.111,-5.1092,-5.1277,-5.1574,-5.1822,-5.2269,-5.241,-5.2691,-5.2554,-5.1686,-5.1417,-5.1178,-5.0005,-5.0215,-5.0272,-5.0031,-4.9554,-4.9432,-4.9309,-4.9042,-4.8775,-4.8476,-4.8386,-4.8386,-4.8386,-4.8386,-4.8356,-4.8355,-4.8404,-4.8339,-4.842,-4.8347,-4.837,-4.8541,-4.8944,-4.937,-4.9464,-5.0002,-4.9972,-4.9434,-4.9643,-4.9854,-4.9942,-5.0154,-5.0425,-5.0487,-5.0484,-5.0476,-5.0064,-5.0314,-5.0381,-5.0237,-5.077,-5.0819,-5.088,-5.0877,-5.1025,-5.0928,-5.08,-5.1135,-5.1508,-5.1762,-5.1908,-5.2013,-5.2086,-5.2053,-5.2086,-5.2158,-5.2158,-5.223,-5.2302,-5.2302,-5.2373,-5.2373,-5.2373,-5.2445,-5.2483,-5.2553,-5.2624,-5.2834,-5.2972,-5.311,-5.3247,-5.345,-5.3518,-5.3247,-5.2876,-5.2469,-5.257,-5.2807,-5.3044,-5.3247,-5.3416,-5.3518,-5.3484,-5.3247,-5.4295,-5.4008,-5.4517,-5.4348,-5.4008,-5.4517,-5.4433,-5.4008,-5.4401,-5.4397,-5.4013,-5.3917,-5.3834,-5.3764,-5.3914,-5.3798,-5.3481,-5.325,-5.2797,-5.2639,-5.2681,-5.2793,-5.295,-5.3326,-5.3656,-5.3922,-5.4052,-5.3796,-5.3742,-5.3624,-5.2909,-5.1092,-5.1631,-5.1563,-5.1107,-5.0781,-5.072,-5.0795,-5.0201,-4.9934,-4.9847,-4.9611,-4.9523,-4.9463,-4.9434,-4.9344,-4.9523,-4.9482,-4.9408,-4.9435,-4.9378,-4.9378,-4.9528,-5.0027,-5.0529,-5.0786,-5.1425,-5.1576,-5.106,-5.0849,-5.0788,-5.1061,-5.1242,-5.1668,-5.1959,-5.2012,-5.1909,-5.1684,-5.2041,-5.2029,-5.2023,-5.2187,-5.2294,-5.2223,-5.2074,-5.23,-5.2327,-5.2146,-5.1974,-5.2196,-5.2349,-5.2053,-5.2197,-5.2302,-5.2373,-5.2373,-5.2373,-5.2407,-5.2373,-5.2373,-5.2373,-5.2373,-5.2373,-5.2445,-5.2553,-5.2624,-5.2764,-5.2903,-5.311,-5.3179,-5.3212,-5.3348,-5.345,-5.3518,-5.3518,-5.3348,-5.2976,-5.3247,-5.3518,-5.345,-5.3416,-5.345,-5.3518,-5.3518,-5.3518,-5.4094,-5.4601,-5.4717,-5.4717,-5.4601,-5.4685,-5.4717,-5.4601,-5.4685,-5.4819,-5.4773,-5.4672,-5.4691,-5.4704,-5.4672,-5.4736,-5.4589,-5.4369,-5.4094,-5.384,-5.3742,-5.3935,-5.4168,-5.4485,-5.4749,-5.536,-5.5328,-5.5049,-5.5099,-5.5213,-5.4485,-5.3427,-5.3153,-5.3159,-5.2947,-5.2611,-5.2281,-5.2082,-5.1506,-5.1282,-5.1079,-5.079,-5.0441,-5.0235,-4.9851,-4.9613,-5.0171,-5.0401,-5.0444,-5.0455,-5.0536,-5.0536,-5.0746,-5.1131,-5.1616,-5.2182,-5.2709,-5.3009,-5.2885,-5.2445,-5.2452,-5.2723,-5.2931,-5.302,-5.3412,-5.3159,-5.2934,-5.2997,-5.3318,-5.339,-5.3358,-5.3363,-5.3672,-5.3618,-5.3389,-5.3377,-5.3445,-5.3247,-5.3148,-5.3162,-5.303,-5.2897,-5.2798,-5.3003,-5.2771,-5.2771,-5.2672,-5.2672,-5.2407,-5.2373,-5.2373,-5.2373,-5.2373,-5.2445,-5.2553,-5.2694,-5.2834,-5.3006,-5.3212,-5.3247,-5.3247,-5.3348,-5.3518,-5.3518,-5.3518,-5.3518,-5.3518,-5.3518,-5.3518,-5.3518,-5.3518,-5.3518,-5.3551,-5.3551,-5.3551,-5.6515,-5.6006,-5.6432,-5.5848,-5.4768,-5.562,-5.5701,-5.5458,-5.5781,-5.5941,-5.5861,-5.5941,-5.5861,-5.5781,-5.5701,-5.562,-5.5572,-5.5458,-5.5295,-5.5295,-5.5213,-5.5328,-5.5409,-5.5409,-5.5685,-5.5927,-5.6006,-5.5927,-5.5733,-5.5974,-5.5814,-5.5049,-5.4517,-5.4317,-5.4147,-5.404,-5.3593,-5.3177,-5.2778,-5.259,-5.2535,-5.2362,-5.2188,-5.21,-5.2012,-5.1836,-5.2157,-5.2184,-5.2156,-5.2144,-5.2091,-5.2122,-5.22,-5.2499,-5.2922,-5.3354,-5.3882,-5.4147,-5.4348,-5.3836,-5.349,-5.3719,-5.4062,-5.4401,-5.4653,-5.4401,-5.4305,-5.4416,-5.4566,-5.46,-5.46,-5.4731,-5.4929,-5.4863,-5.4698,-5.4576,-5.4452,-5.4221,-5.4129,-5.403,-5.3964,-5.3897,-5.3831,-5.3798,-5.3467,-5.3169,-5.3036,-5.287,-5.2572,-5.2445,-5.2445,-5.2445,-5.2445,-5.2587,-5.2764,-5.2834,-5.2903,-5.3075,-5.328,-5.3348,-5.3348,-5.3416,-5.3518,-5.3518,-5.3518,-5.3518,-5.3518,-5.3518,-5.3518,-5.3518,-5.3518,-5.3585,-5.3551,-5.3584,-5.3651,-5.7939,-5.7155,-5.7421,-5.6751,-5.5458,-5.6257,-5.6447,-5.6132,-5.6447,-5.668,-5.668,-5.668,-5.6603,-5.6525,-5.6447,-5.6369,-5.6211,-5.6211,-5.6244,-5.6165,-5.6053,-5.6165,-5.6086,-5.6086,-5.6006,-5.6165,-5.6165,-5.6165,-5.6211,-5.6323,-5.6211,-5.6053,-5.5781,-5.5426,-5.5131,-5.4915,-5.4549,-5.421,-5.4008,-5.4008,-5.3976,-5.3773,-5.3601,-5.3483,-5.319,-5.3278,-5.3357,-5.3471,-5.349,-5.3614,-5.3681,-5.3808,-5.3954,-5.4132,-5.4291,-5.4512,-5.4768,-5.4985,-5.5099,-5.5017,-5.4685,-5.4934,-5.4934,-5.5263,-5.5507,-5.5507,-5.5198,-5.5555,-5.5636,-5.5749,-5.5716,-5.5842,-5.5875,-5.5776,-5.5643,-5.5445,-5.5279,-5.5156,-5.499,-5.4825,-5.4659,-5.4394,-5.4494,-5.4361,-5.4063,-5.3632,-5.3268,-5.297,-5.2506,-5.2445,-5.2516,-5.2516,-5.2587,-5.2797,-5.2903,-5.2972,-5.3041,-5.3212,-5.3416,-5.345,-5.345,-5.3518,-5.3518,-5.3518,-5.3518,-5.3518,-5.3551,-5.3618,-5.3551,-5.3484,-5.3551,-5.3618,-5.3751,-5.3783,-5.3849,-5.7773,-5.7986,-5.7353,-5.69,-5.6603,-5.668,-5.668,-5.6603,-5.668,-5.668,-5.668,-5.668,-5.668,-5.668,-5.6603,-5.6603,-5.6603,-5.6603,-5.6525,-5.6402,-5.6369,-5.6323,-5.6244,-5.6165,-5.6323,-5.6369,-5.6447,-5.6525,-5.668,-5.668,-5.668,-5.668,-5.6525,-5.629,-5.6086,-5.5846,-5.5685,-5.5718,-5.5604,-5.5409,-5.5246,-5.4851,-5.4685,-5.4517,-5.4179,-5.4264,-5.4569,-5.4589,-5.468,-5.4727,-5.4789,-5.4914,-5.5025,-5.5181,-5.5509,-5.5876,-5.6257,-5.6447,-5.6369,-5.6132,-5.6053,-5.5974,-5.5781,-5.5781,-5.6257,-5.6179,-5.5941,-5.6179,-5.6447,-5.6525,-5.6603,-5.6647,-5.6547,-5.6525,-5.6359,-5.626,-5.606,-5.6037,-5.5837,-5.5738,-5.5132,-5.4626,-5.4858,-5.4924,-5.4667,-5.4162,-5.3632,-5.3169,-5.2876,-5.2715,-5.2924,-5.2824,-5.2894,-5.2834,-5.3041,-5.311,-5.3247,-5.3416,-5.3518,-5.3518,-5.3518,-5.3551,-5.3518,-5.3518,-5.3551,-5.3685,-5.3651,-5.3717,-5.3853,-5.3955,-5.3719,-5.3783,-5.3915,-5.4117,-5.4353,-5.9031,-5.8318,-5.805,-5.7606,-5.7096,-5.6834,-5.668,-5.668,-5.668,-5.668,-5.668,-5.668,-5.668,-5.668,-5.668,-5.668,-5.668,-5.668,-5.6603,-5.6603,-5.6603,-5.6525,-5.6525,-5.6447,-5.6603,-5.6757,-5.6834,-5.6911,-5.7139,-5.7063,-5.7063,-5.7063,-5.6987,-5.6757,-5.6402,-5.6086,-5.6006,-5.6006,-5.6086,-5.6132,-5.6053,-5.5941,-5.5941,-5.5781,-5.5507,-5.5507,-5.5701,-5.5701,-5.5777,-5.5863,-5.583,-5.6018,-5.6172,-5.6293,-5.6535,-5.6801,-5.7063,-5.7063,-5.6987,-5.6911,-5.6757,-5.6603,-5.6447,-5.6369,-5.6603,-5.6525,-5.6525,-5.6603,-5.668,-5.668,-5.668,-5.668,-5.6691,-5.6877,-5.6778,-5.6778,-5.6678,-5.6796,-5.6771,-5.6696,-5.6287,-5.6121,-5.6296,-5.6021,-5.5688,-5.5488,-5.5055,-5.4482,-5.4083,-5.3695,-5.3636,-5.3436,-5.3372,-5.314,-5.3144,-5.3313,-5.3517,-5.3619,-5.3619,-5.3518,-5.3518,-5.3889,-5.3754,-5.3888,-5.3853,-5.3883,-5.402,-5.4222,-5.4424,-5.4459,-5.4459,-5.4561,-5.4864,-5.5101,-5.5338,-6.0225,-5.9242,-5.8705,-5.8203,-5.7658,-5.7087,-5.6911,-5.6911,-5.6911,-5.6911,-5.6834,-5.6834,-5.6834,-5.6757,-5.6757,-5.6757,-5.668,-5.668,-5.668,-5.668,-5.668,-5.668,-5.6757,-5.6834,-5.6911,-5.7063,-5.7139,-5.7139,-5.7289,-5.7289,-5.7289,-5.7289,-5.7289,-5.7063,-5.6757,-5.6525,-5.6447,-5.648,-5.6558,-5.6525,-5.6525,-5.6603,-5.668,-5.6603,-5.6603,-5.6603,-5.668,-5.668,-5.6757,-5.6757,-5.6834,-5.6911,-5.7063,-5.7214,-5.7214,-5.7289,-5.7289,-5.7289,-5.7289,-5.7289,-5.7063,-5.6911,-5.6911,-5.6834,-5.6834,-5.6757,-5.668,-5.6757,-5.668,-5.668,-5.6757,-5.6757,-5.6834,-5.6987,-5.7063,-5.7063,-5.7139,-5.7147,-5.7222,-5.7181,-5.7214,-5.7289,-5.7364,-5.7156,-5.678,-5.6612,-5.6445,-5.5836,-5.5235,-5.4812,-5.4418,-5.4149,-5.3881,-5.3717,-5.3651,-5.372,-5.3822,-5.389,-5.4025,-5.4127,-5.4466,-5.4941,-5.46,-5.4292,-5.4427,-5.4561,-5.4627,-5.4795,-5.5272,-5.551,-5.551,-5.5613,-5.585,-5.6053,-5.6191,-6.1221,-6.0751,-5.9338,-5.8623,-5.826,-5.7591,-5.7289,-5.7289,-5.7323,-5.7239,-5.7053,-5.7415,-5.7396,-5.7033,-5.7077,-5.7177,-5.7066,-5.6989,-5.6923,-5.6823,-5.69,-5.6944,-5.6987,-5.6987,-5.7139,-5.7214,-5.7289,-5.7364,-5.7364,-5.7439,-5.7439,-5.7364,-5.7439,-5.7364,-5.7214,-5.7139,-5.6987,-5.6911,-5.6987,-5.6911,-5.6911,-5.6987,-5.7063,-5.6987,-5.6987,-5.6911,-5.6911,-5.6911,-5.6987,-5.6987,-5.7063,-5.7214,-5.7289,-5.7514,-5.7439,-5.7364,-5.7364,-5.7364,-5.7439,-5.7439,-5.7364,-5.7364,-5.7289,-5.7214,-5.7063,-5.6987,-5.6987,-5.6911,-5.6834,-5.6834,-5.6757,-5.6911,-5.7063,-5.7139,-5.7214,-5.7289,-5.7289,-5.7364,-5.7364,-5.7364,-5.7364,-5.7439,-5.7439,-5.7406,-5.7372,-5.7345,-5.711,-5.6774,-5.613,-5.5732,-5.5299,-5.4932,-5.4698,-5.4397,-5.4329,-5.4499,-5.4669,-5.4839,-5.5247,-5.5485,-5.5826,-5.5826,-5.5552,-5.5244,-5.5243,-5.5309,-5.5475,-5.5884,-5.6464,-5.6567,-5.6466,-5.6535,-5.6739,-5.6774,-5.6877,-6.1221,-6.1052,-5.9565,-5.8882,-5.8747,-5.8073,-5.7588,-5.7323,-5.7825,-5.8017,-5.805,-5.8629,-5.8619,-5.8708,-5.8786,-5.8719,-5.8474,-5.8241,-5.8007,-5.7807,-5.7463,-5.7272,-5.7281,-5.7348,-5.7398,-5.7506,-5.7614,-5.7756,-5.7729,-5.7769,-5.7769,-5.7735,-5.7662,-5.7662,-5.7662,-5.7662,-5.7439,-5.7289,-5.7364,-5.7364,-5.7364,-5.7439,-5.7514,-5.7439,-5.7439,-5.7439,-5.7439,-5.7439,-5.7514,-5.7588,-5.7588,-5.7662,-5.7735,-5.7808,-5.7735,-5.7735,-5.7735,-5.7735,-5.7735,-5.7735,-5.7735,-5.7662,-5.7662,-5.7514,-5.7364,-5.7214,-5.7214,-5.7063,-5.7063,-5.7063,-5.7063,-5.7139,-5.7214,-5.7364,-5.7439,-5.7514,-5.7514,-5.7588,-5.7588,-5.7514,-5.7588,-5.7588,-5.7662,-5.7662,-5.7701,-5.7735,-5.7634,-5.733,-5.706,-5.666,-5.6187,-5.5747,-5.5583,-5.5349,-5.5451,-5.5621,-5.5724,-5.5928,-5.6269,-5.6474,-5.6474,-5.644,-5.6302,-5.6232,-5.6196,-5.6263,-5.6429,-5.6874,-5.7322,-5.7495,-5.7463,-5.7564,-5.7598,-5.7598,-5.7702,-6.1738,-6.1569,-6.0419,-5.9607,-5.8998,-5.8524,-5.8174,-5.8051,-5.8455,-5.8623,-5.8648,-5.9362,-5.9621,-5.9399,-5.9477,-5.9477,-5.9365,-5.9031,-5.883,-5.8696,-5.8404,-5.8404,-5.827,-5.8245,-5.8488,-5.8538,-5.8579,-5.8815,-5.866,-5.8355,-5.8287,-5.7881,-5.7881,-5.7881,-5.7881,-5.7808,-5.7735,-5.7662,-5.7662,-5.7662,-5.7735,-5.7808,-5.7881,-5.7881,-5.7881,-5.7881,-5.7881,-5.7881,-5.7881,-5.7881,-5.7881,-5.7881,-5.7881,-5.7881,-5.7881,-5.7881,-5.7881,-5.7881,-5.7881,-5.7881,-5.7881,-5.7881,-5.7881,-5.7735,-5.7588,-5.7514,-5.7364,-5.7289,-5.7289,-5.7289,-5.7364,-5.7364,-5.7439,-5.7588,-5.7662,-5.7735,-5.7735,-5.7808,-5.7808,-5.7735,-5.7808,-5.7808,-5.7881,-5.7881,-5.7954,-5.7954,-5.8027,-5.7925,-5.7789,-5.7552,-5.7077,-5.6636,-5.6505,-5.6405,-5.6508,-5.6577,-5.6679,-5.6919,-5.7329,-5.7467,-5.7227,-5.7329,-5.7431,-5.7327,-5.7187,-5.7187,-5.7253,-5.7633,-5.8047,-5.815,-5.8254,-5.8288,-5.8288,-5.8357,-5.853,-6.2381,-6.2313,-6.1603,-6.0419,-5.9201,-5.9099,-5.9099,-5.9133,-5.9194,-5.9085,-5.9212,-5.9937,-6.0223,-6.0236,-6.0314,-6.0203,-6.0169,-5.989,-5.9755,-5.9611,-5.9386,-5.9362,-5.9472,-5.9785,-5.9524,-5.9836,-5.9979,-5.9641,-5.9776,-5.9404,-5.8795,-5.8051,-5.822,-5.8355,-5.8423,-5.822,-5.8113,-5.8113,-5.7944,-5.7881,-5.7881,-5.7881,-5.7881,-5.7881,-5.7881,-5.7881,-5.7881,-5.7881,-5.7881,-5.7881,-5.7881,-5.7881,-5.7881,-5.7881,-5.7881,-5.7881,-5.7881,-5.7881,-5.7881,-5.7881,-5.7881,-5.7881,-5.7881,-5.7881,-5.7735,-5.7662,-5.7588,-5.7514,-5.7514,-5.7514,-5.7514,-5.7588,-5.7662,-5.7735,-5.7735,-5.7808,-5.7808,-5.7881,-5.7881,-5.7881,-5.7954,-5.8027,-5.8099,-5.8099,-5.8171,-5.8205,-5.8277,-5.8314,-5.8314,-5.8246,-5.7868,-5.7426,-5.7464,-5.7398,-5.7261,-5.7364,-5.7535,-5.7809,-5.8187,-5.8393,-5.8187,-5.8359,-5.8702,-5.8357,-5.7945,-5.7978,-5.8081,-5.8357,-5.853,-5.8668,-5.8771,-5.8909,-5.8944,-5.8875,-5.8909,-6.2415,-6.2313,-6.1603,-6.0723,-5.9911,-5.9844,-5.9844,-5.9911,-6.052,-6.0723,-6.0782,-6.1434,-6.1694,-6.1514,-6.1481,-6.1481,-6.1447,-6.093,-6.0873,-6.0637,-6.0401,-6.0223,-6.014,-6.0309,-6.0173,-6.008,-6.008,-6.0216,-6.0013,-5.9844,-5.9742,-5.9471,-5.9268,-5.9099,-5.9066,-5.8795,-5.849,-5.8423,-5.8118,-5.7915,-5.7881,-5.7881,-5.7881,-5.7881,-5.7881,-5.7881,-5.7881,-5.7881,-5.7881,-5.7881,-5.7881,-5.7881,-5.7881,-5.7881,-5.7881,-5.7881,-5.7881,-5.7881,-5.7881,-5.7881,-5.7881,-5.7881,-5.7881,-5.7881,-5.7881,-5.7881,-5.7808,-5.7735,-5.7735,-5.7735,-5.7735,-5.7808,-5.7808,-5.7808,-5.7881,-5.7881,-5.7881,-5.7954,-5.7954,-5.8027,-5.8099,-5.8171,-5.8277,-5.8348,-5.8419,-5.8419,-5.8419,-5.849,-5.8561,-5.8526,-5.8492,-5.8184,-5.8357,-5.829,-5.8153,-5.805,-5.8187,-5.8359,-5.8669,-5.8806,-5.8944,-5.8875,-5.8875,-5.8909,-5.8737,-5.8599,-5.8564,-5.8771,-5.8944,-5.9012,-5.9012,-5.9081,-5.9081,-5.908,-5.9046,-6.2415,-6.2313,-6.1603,-6.1061,-6.0689,-6.0655,-6.0622,-6.0791,-6.1467,-6.1806,-6.1806,-6.2178,-6.2415,-6.2415,-6.2415,-6.2415,-6.2347,-6.1975,-6.1806,-6.1569,-6.1332,-6.1264,-6.1095,-6.1028,-6.1231,-6.1129,-6.1061,-6.0994,-6.0351,-6.0013,-5.9911,-5.9471,-5.9302,-5.9336,-5.9235,-5.8761,-5.866,-5.8457,-5.8152,-5.8017,-5.7949,-5.7915,-5.7881,-5.7881,-5.7881,-5.7915,-5.7881,-5.7881,-5.7881,-5.7881,-5.7881,-5.7881,-5.7881,-5.7881,-5.7881,-5.7881,-5.7881,-5.7881,-5.7915,-5.7915,-5.7949,-5.7949,-5.7881,-5.7881,-5.7881,-5.7881,-5.7881,-5.7808,-5.7808,-5.7808,-5.7808,-5.7881,-5.7881,-5.7881,-5.7881,-5.7881,-5.8027,-5.8171,-5.8277,-5.8277,-5.8348,-5.8348,-5.8419,-5.8419,-5.849,-5.8631,-5.8631,-5.8701,-5.8771,-5.8771,-5.8771,-5.8771,-5.884,-5.884,-5.8669,-5.8634,-5.8772,-5.8909,-5.9012,-5.9012,-5.8944,-5.9012,-5.9012,-5.8978,-5.8978,-5.8944,-5.8978,-5.9012,-5.9012,-5.9012,-5.9081,-5.9183,-5.9217,-5.9351,-5.9418,-6.2415,-6.2313,-6.1704,-6.1467,-6.1434,-6.1434,-6.1434,-6.1535,-6.211,-6.2381,-6.2347,-6.2347,-6.2415,-6.2415,-6.2415,-6.2415,-6.2347,-6.2245,-6.2279,-6.2313,-6.2279,-6.2009,-6.2042,-6.2245,-6.211,-6.211,-6.2076,-6.1434,-6.0723,-6.0622,-6.0114,-5.8693,-5.8457,-5.8558,-5.8423,-5.8423,-5.8761,-5.8863,-5.8693,-5.8355,-5.8152,-5.7983,-5.8017,-5.7983,-5.8051,-5.8051,-5.8118,-5.8084,-5.8084,-5.8084,-5.8118,-5.8017,-5.8051,-5.8051,-5.7983,-5.7983,-5.8118,-5.8152,-5.8152,-5.8186,-5.8152,-5.8084,-5.7949,-5.7881,-5.7954,-5.7954,-5.7954,-5.7954,-5.7954,-5.7881,-5.7881,-5.7881,-5.7881,-5.7954,-5.7954,-5.8061,-5.8205,-5.8419,-5.8419,-5.849,-5.8561,-5.8561,-5.8561,-5.8561,-5.8631,-5.8771,-5.884,-5.8909,-5.8978,-5.8875,-5.8875,-5.8875,-5.8875,-5.8944,-5.9012,-5.9012,-5.9012,-5.9012,-5.9012,-5.9012,-5.9012,-5.9012,-5.9012,-5.9012,-5.9012,-5.9012,-5.9012,-5.9012,-5.9012,-5.9012,-5.9351,-5.9485,-5.9582,-5.9714,-5.9879,-6.2415,-6.2381,-6.2212,-6.2178,-6.2178,-6.2144,-6.2178,-6.2178,-6.2313,-6.2415,-6.2415,-6.2415,-6.2415,-6.2415,-6.2415,-6.2415,-6.2415,-6.2415,-6.2415,-6.2381,-6.2415,-6.2415,-6.2415,-6.2415,-6.2415,-6.2415,-6.2381,-6.2144,-6.1332,-6.1535,-6.1738,-6.1061,-6.1197,-6.1231,-6.1197,-6.0858,-6.0114,-5.9945,-5.9641,-5.9404,-5.9133,-5.8863,-5.8389,-5.849,-5.8795,-5.9167,-5.937,-5.9066,-5.8896,-5.8795,-5.8761,-5.849,-5.8457,-5.8524,-5.8524,-5.8457,-5.8558,-5.8727,-5.8795,-5.8795,-5.8795,-5.8632,-5.8462,-5.8128,-5.8095,-5.8099,-5.8171,-5.8243,-5.8171,-5.8027,-5.7954,-5.7954,-5.7954,-5.8205,-5.8277,-5.8348,-5.849,-5.8561,-5.8561,-5.8631,-5.8701,-5.8771,-5.8806,-5.8806,-5.8806,-5.8944,-5.8944,-5.8944,-5.8944,-5.9012,-5.9012,-5.9012,-5.9012,-5.9012,-5.9012,-5.9012,-5.9012,-5.9012,-5.9012,-5.9012,-5.9012,-5.9012,-5.9012,-5.9012,-5.9012,-5.9012,-5.9012,-5.9012,-5.9081,-5.9217,-5.9648,-5.9908,-6.0036,-6.0254,-6.0477]}]]